<?xml version="1.0" encoding="UTF-8" standalone="no" ?>
<gpx xmlns="http://www.topografix.com/GPX/1/1" xmlns:xsi="http://www.w3.org/2001/XMLSchema-instance" xsi:schemaLocation="http://www.topografix.com/GPX/1/1 http://www.topografix.com/GPX/1/1/gpx.xsd" version="1.1" creator="VisuGPX - https://www.visugpx.com">
  <metadata>
    <name>Vacances Avril 2019 Grenoble Camargue</name>
    <desc><![CDATA[Deuxième partie du voyage après le but dans le Nord, direction le Sud. 
Pas de pluie mais Mistral d'enfer]]></desc>
  </metadata>
  <trk>
    <name><![CDATA[20190502221855-rGymn]]></name>
    <trkseg>
      <trkpt lat="44.2989" lon="5.65324">
        <ele>783.723</ele>
        <time>2019-04-27T07:45:41Z</time>
      </trkpt>
      <trkpt lat="44.29891" lon="5.65328">
        <ele>786.432</ele>
        <time>2019-04-27T07:45:51Z</time>
      </trkpt>
      <trkpt lat="44.29888" lon="5.65323">
        <ele>793.589</ele>
        <time>2019-04-27T07:46:02Z</time>
      </trkpt>
      <trkpt lat="44.29878" lon="5.65324">
        <ele>789.099</ele>
        <time>2019-04-27T07:46:13Z</time>
      </trkpt>
      <trkpt lat="44.29879" lon="5.65323">
        <ele>788.693</ele>
        <time>2019-04-27T07:46:24Z</time>
      </trkpt>
      <trkpt lat="44.29884" lon="5.65325">
        <ele>788.989</ele>
        <time>2019-04-27T07:46:34Z</time>
      </trkpt>
      <trkpt lat="44.29883" lon="5.65325">
        <ele>789.333</ele>
        <time>2019-04-27T07:46:45Z</time>
      </trkpt>
      <trkpt lat="44.29884" lon="5.65322">
        <ele>789.433</ele>
        <time>2019-04-27T07:46:56Z</time>
      </trkpt>
      <trkpt lat="44.29884" lon="5.65318">
        <ele>789.581</ele>
        <time>2019-04-27T07:47:07Z</time>
      </trkpt>
      <trkpt lat="44.29885" lon="5.65317">
        <ele>789.627</ele>
        <time>2019-04-27T07:47:17Z</time>
      </trkpt>
      <trkpt lat="44.29886" lon="5.65316">
        <ele>789.684</ele>
        <time>2019-04-27T07:47:27Z</time>
      </trkpt>
      <trkpt lat="44.29886" lon="5.65314">
        <ele>789.523</ele>
        <time>2019-04-27T07:47:38Z</time>
      </trkpt>
      <trkpt lat="44.29887" lon="5.65318">
        <ele>788.859</ele>
        <time>2019-04-27T07:47:48Z</time>
      </trkpt>
      <trkpt lat="44.29888" lon="5.65318">
        <ele>788.502</ele>
        <time>2019-04-27T07:47:59Z</time>
      </trkpt>
      <trkpt lat="44.29887" lon="5.65318">
        <ele>788.346</ele>
        <time>2019-04-27T07:48:09Z</time>
      </trkpt>
      <trkpt lat="44.29886" lon="5.65318">
        <ele>787.789</ele>
        <time>2019-04-27T07:48:19Z</time>
      </trkpt>
      <trkpt lat="44.29886" lon="5.65318">
        <ele>787.698</ele>
        <time>2019-04-27T07:48:30Z</time>
      </trkpt>
      <trkpt lat="44.29886" lon="5.6532">
        <ele>787.532</ele>
        <time>2019-04-27T07:48:41Z</time>
      </trkpt>
      <trkpt lat="44.29887" lon="5.65323">
        <ele>787.084</ele>
        <time>2019-04-27T07:48:52Z</time>
      </trkpt>
      <trkpt lat="44.29887" lon="5.65328">
        <ele>786.487</ele>
        <time>2019-04-27T07:49:02Z</time>
      </trkpt>
      <trkpt lat="44.29889" lon="5.65342">
        <ele>786.403</ele>
        <time>2019-04-27T07:49:12Z</time>
      </trkpt>
      <trkpt lat="44.29885" lon="5.65354">
        <ele>790.547</ele>
        <time>2019-04-27T07:49:33Z</time>
      </trkpt>
      <trkpt lat="44.29887" lon="5.65337">
        <ele>791.288</ele>
        <time>2019-04-27T07:49:43Z</time>
      </trkpt>
      <trkpt lat="44.29889" lon="5.65334">
        <ele>796.353</ele>
        <time>2019-04-27T07:49:54Z</time>
      </trkpt>
      <trkpt lat="44.2989" lon="5.65343">
        <ele>798.856</ele>
        <time>2019-04-27T07:50:05Z</time>
      </trkpt>
      <trkpt lat="44.29888" lon="5.65344">
        <ele>800.634</ele>
        <time>2019-04-27T07:50:16Z</time>
      </trkpt>
      <trkpt lat="44.29891" lon="5.65344">
        <ele>801.018</ele>
        <time>2019-04-27T07:50:27Z</time>
      </trkpt>
      <trkpt lat="44.29889" lon="5.65339">
        <ele>801.289</ele>
        <time>2019-04-27T07:50:38Z</time>
      </trkpt>
      <trkpt lat="44.29896" lon="5.65352">
        <ele>802.076</ele>
        <time>2019-04-27T07:50:49Z</time>
      </trkpt>
      <trkpt lat="44.2991" lon="5.65359">
        <ele>801.687</ele>
        <time>2019-04-27T07:50:59Z</time>
      </trkpt>
      <trkpt lat="44.29921" lon="5.65357">
        <ele>801.072</ele>
        <time>2019-04-27T07:51:10Z</time>
      </trkpt>
      <trkpt lat="44.2991" lon="5.65329">
        <ele>800.41</ele>
        <time>2019-04-27T07:51:20Z</time>
      </trkpt>
      <trkpt lat="44.29905" lon="5.65312">
        <ele>799.985</ele>
        <time>2019-04-27T07:51:31Z</time>
      </trkpt>
      <trkpt lat="44.29904" lon="5.65311">
        <ele>799.68</ele>
        <time>2019-04-27T07:51:41Z</time>
      </trkpt>
      <trkpt lat="44.29897" lon="5.65293">
        <ele>799.248</ele>
        <time>2019-04-27T07:51:52Z</time>
      </trkpt>
      <trkpt lat="44.29883" lon="5.65263">
        <ele>799.144</ele>
        <time>2019-04-27T07:52:02Z</time>
      </trkpt>
      <trkpt lat="44.29865" lon="5.6523">
        <ele>799.099</ele>
        <time>2019-04-27T07:52:13Z</time>
      </trkpt>
      <trkpt lat="44.29849" lon="5.65194">
        <ele>799.179</ele>
        <time>2019-04-27T07:52:23Z</time>
      </trkpt>
      <trkpt lat="44.29833" lon="5.65157">
        <ele>799.376</ele>
        <time>2019-04-27T07:52:33Z</time>
      </trkpt>
      <trkpt lat="44.29817" lon="5.65116">
        <ele>799.406</ele>
        <time>2019-04-27T07:52:44Z</time>
      </trkpt>
      <trkpt lat="44.29795" lon="5.65065">
        <ele>799.544</ele>
        <time>2019-04-27T07:52:54Z</time>
      </trkpt>
      <trkpt lat="44.29773" lon="5.65013">
        <ele>803.224</ele>
        <time>2019-04-27T07:53:05Z</time>
      </trkpt>
      <trkpt lat="44.29748" lon="5.6496">
        <ele>804.139</ele>
        <time>2019-04-27T07:53:16Z</time>
      </trkpt>
      <trkpt lat="44.29727" lon="5.64913">
        <ele>804.016</ele>
        <time>2019-04-27T07:53:26Z</time>
      </trkpt>
      <trkpt lat="44.29705" lon="5.64856">
        <ele>803.852</ele>
        <time>2019-04-27T07:53:37Z</time>
      </trkpt>
      <trkpt lat="44.29688" lon="5.64804">
        <ele>802.706</ele>
        <time>2019-04-27T07:53:47Z</time>
      </trkpt>
      <trkpt lat="44.29686" lon="5.64744">
        <ele>802.085</ele>
        <time>2019-04-27T07:53:57Z</time>
      </trkpt>
      <trkpt lat="44.2968" lon="5.64669">
        <ele>802.633</ele>
        <time>2019-04-27T07:54:07Z</time>
      </trkpt>
      <trkpt lat="44.29637" lon="5.64627">
        <ele>807.281</ele>
        <time>2019-04-27T07:54:18Z</time>
      </trkpt>
      <trkpt lat="44.29619" lon="5.64569">
        <ele>805.537</ele>
        <time>2019-04-27T07:54:29Z</time>
      </trkpt>
      <trkpt lat="44.2961" lon="5.64515">
        <ele>804.682</ele>
        <time>2019-04-27T07:54:39Z</time>
      </trkpt>
      <trkpt lat="44.29596" lon="5.6446">
        <ele>804.833</ele>
        <time>2019-04-27T07:54:49Z</time>
      </trkpt>
      <trkpt lat="44.29577" lon="5.64405">
        <ele>806.283</ele>
        <time>2019-04-27T07:54:59Z</time>
      </trkpt>
      <trkpt lat="44.29556" lon="5.64355">
        <ele>807.079</ele>
        <time>2019-04-27T07:55:09Z</time>
      </trkpt>
      <trkpt lat="44.2953" lon="5.64298">
        <ele>807.385</ele>
        <time>2019-04-27T07:55:20Z</time>
      </trkpt>
      <trkpt lat="44.29499" lon="5.64236">
        <ele>805.043</ele>
        <time>2019-04-27T07:55:31Z</time>
      </trkpt>
      <trkpt lat="44.29462" lon="5.64165">
        <ele>804.256</ele>
        <time>2019-04-27T07:55:42Z</time>
      </trkpt>
      <trkpt lat="44.29453" lon="5.64074">
        <ele>800.762</ele>
        <time>2019-04-27T07:55:53Z</time>
      </trkpt>
      <trkpt lat="44.29426" lon="5.63999">
        <ele>800.696</ele>
        <time>2019-04-27T07:56:03Z</time>
      </trkpt>
      <trkpt lat="44.29391" lon="5.63937">
        <ele>799.543</ele>
        <time>2019-04-27T07:56:13Z</time>
      </trkpt>
      <trkpt lat="44.29347" lon="5.63882">
        <ele>798.002</ele>
        <time>2019-04-27T07:56:24Z</time>
      </trkpt>
      <trkpt lat="44.29311" lon="5.63827">
        <ele>796.958</ele>
        <time>2019-04-27T07:56:34Z</time>
      </trkpt>
      <trkpt lat="44.29281" lon="5.63766">
        <ele>798.249</ele>
        <time>2019-04-27T07:56:45Z</time>
      </trkpt>
      <trkpt lat="44.29283" lon="5.63706">
        <ele>801.844</ele>
        <time>2019-04-27T07:56:55Z</time>
      </trkpt>
      <trkpt lat="44.29276" lon="5.63642">
        <ele>806.052</ele>
        <time>2019-04-27T07:57:06Z</time>
      </trkpt>
      <trkpt lat="44.29248" lon="5.63596">
        <ele>804.817</ele>
        <time>2019-04-27T07:57:16Z</time>
      </trkpt>
      <trkpt lat="44.29218" lon="5.63547">
        <ele>803.814</ele>
        <time>2019-04-27T07:57:27Z</time>
      </trkpt>
      <trkpt lat="44.29197" lon="5.635">
        <ele>802.231</ele>
        <time>2019-04-27T07:57:37Z</time>
      </trkpt>
      <trkpt lat="44.29176" lon="5.63449">
        <ele>801.869</ele>
        <time>2019-04-27T07:57:47Z</time>
      </trkpt>
      <trkpt lat="44.29162" lon="5.63392">
        <ele>805.081</ele>
        <time>2019-04-27T07:57:58Z</time>
      </trkpt>
      <trkpt lat="44.29153" lon="5.63332">
        <ele>807.303</ele>
        <time>2019-04-27T07:58:09Z</time>
      </trkpt>
      <trkpt lat="44.29148" lon="5.63278">
        <ele>809.237</ele>
        <time>2019-04-27T07:58:19Z</time>
      </trkpt>
      <trkpt lat="44.29155" lon="5.63212">
        <ele>814.697</ele>
        <time>2019-04-27T07:58:30Z</time>
      </trkpt>
      <trkpt lat="44.29165" lon="5.63164">
        <ele>814.915</ele>
        <time>2019-04-27T07:58:40Z</time>
      </trkpt>
      <trkpt lat="44.29162" lon="5.6311">
        <ele>814.58</ele>
        <time>2019-04-27T07:58:51Z</time>
      </trkpt>
      <trkpt lat="44.29158" lon="5.63064">
        <ele>814.722</ele>
        <time>2019-04-27T07:59:01Z</time>
      </trkpt>
      <trkpt lat="44.29154" lon="5.63016">
        <ele>815.104</ele>
        <time>2019-04-27T07:59:12Z</time>
      </trkpt>
      <trkpt lat="44.2915" lon="5.62967">
        <ele>815.503</ele>
        <time>2019-04-27T07:59:23Z</time>
      </trkpt>
      <trkpt lat="44.29145" lon="5.62918">
        <ele>816.004</ele>
        <time>2019-04-27T07:59:34Z</time>
      </trkpt>
      <trkpt lat="44.29134" lon="5.62868">
        <ele>816.482</ele>
        <time>2019-04-27T07:59:45Z</time>
      </trkpt>
      <trkpt lat="44.29114" lon="5.62826">
        <ele>816.979</ele>
        <time>2019-04-27T07:59:56Z</time>
      </trkpt>
      <trkpt lat="44.2909" lon="5.62793">
        <ele>817.733</ele>
        <time>2019-04-27T08:00:07Z</time>
      </trkpt>
      <trkpt lat="44.29072" lon="5.6276">
        <ele>818.659</ele>
        <time>2019-04-27T08:00:18Z</time>
      </trkpt>
      <trkpt lat="44.29052" lon="5.62712">
        <ele>819.35</ele>
        <time>2019-04-27T08:00:29Z</time>
      </trkpt>
      <trkpt lat="44.29027" lon="5.62656">
        <ele>822.95</ele>
        <time>2019-04-27T08:00:40Z</time>
      </trkpt>
      <trkpt lat="44.29" lon="5.62594">
        <ele>824.397</ele>
        <time>2019-04-27T08:00:51Z</time>
      </trkpt>
      <trkpt lat="44.28981" lon="5.62532">
        <ele>824.502</ele>
        <time>2019-04-27T08:01:02Z</time>
      </trkpt>
      <trkpt lat="44.2897" lon="5.6247">
        <ele>824.719</ele>
        <time>2019-04-27T08:01:13Z</time>
      </trkpt>
      <trkpt lat="44.28957" lon="5.624">
        <ele>824.908</ele>
        <time>2019-04-27T08:01:24Z</time>
      </trkpt>
      <trkpt lat="44.28942" lon="5.62341">
        <ele>825.335</ele>
        <time>2019-04-27T08:01:34Z</time>
      </trkpt>
      <trkpt lat="44.28927" lon="5.62282">
        <ele>825.525</ele>
        <time>2019-04-27T08:01:45Z</time>
      </trkpt>
      <trkpt lat="44.28915" lon="5.62229">
        <ele>827.164</ele>
        <time>2019-04-27T08:01:55Z</time>
      </trkpt>
      <trkpt lat="44.28904" lon="5.62172">
        <ele>828.263</ele>
        <time>2019-04-27T08:02:06Z</time>
      </trkpt>
      <trkpt lat="44.28899" lon="5.6212">
        <ele>828.516</ele>
        <time>2019-04-27T08:02:17Z</time>
      </trkpt>
      <trkpt lat="44.289" lon="5.62073">
        <ele>829.093</ele>
        <time>2019-04-27T08:02:28Z</time>
      </trkpt>
      <trkpt lat="44.28909" lon="5.62033">
        <ele>829.883</ele>
        <time>2019-04-27T08:02:39Z</time>
      </trkpt>
      <trkpt lat="44.28923" lon="5.61996">
        <ele>830.508</ele>
        <time>2019-04-27T08:02:49Z</time>
      </trkpt>
      <trkpt lat="44.28946" lon="5.61961">
        <ele>831.356</ele>
        <time>2019-04-27T08:03:00Z</time>
      </trkpt>
      <trkpt lat="44.28981" lon="5.61929">
        <ele>833.107</ele>
        <time>2019-04-27T08:03:11Z</time>
      </trkpt>
      <trkpt lat="44.29017" lon="5.61901">
        <ele>834.69</ele>
        <time>2019-04-27T08:03:21Z</time>
      </trkpt>
      <trkpt lat="44.29053" lon="5.61872">
        <ele>835.554</ele>
        <time>2019-04-27T08:03:32Z</time>
      </trkpt>
      <trkpt lat="44.29086" lon="5.61847">
        <ele>835.82</ele>
        <time>2019-04-27T08:03:42Z</time>
      </trkpt>
      <trkpt lat="44.29119" lon="5.6182">
        <ele>836.233</ele>
        <time>2019-04-27T08:03:53Z</time>
      </trkpt>
      <trkpt lat="44.29153" lon="5.61794">
        <ele>836.58</ele>
        <time>2019-04-27T08:04:04Z</time>
      </trkpt>
      <trkpt lat="44.29188" lon="5.61766">
        <ele>837.617</ele>
        <time>2019-04-27T08:04:15Z</time>
      </trkpt>
      <trkpt lat="44.29218" lon="5.61727">
        <ele>838.73</ele>
        <time>2019-04-27T08:04:26Z</time>
      </trkpt>
      <trkpt lat="44.29233" lon="5.61674">
        <ele>839.707</ele>
        <time>2019-04-27T08:04:37Z</time>
      </trkpt>
      <trkpt lat="44.29247" lon="5.6162">
        <ele>842.155</ele>
        <time>2019-04-27T08:04:48Z</time>
      </trkpt>
      <trkpt lat="44.29262" lon="5.61561">
        <ele>842.791</ele>
        <time>2019-04-27T08:04:59Z</time>
      </trkpt>
      <trkpt lat="44.29273" lon="5.61505">
        <ele>842.209</ele>
        <time>2019-04-27T08:05:09Z</time>
      </trkpt>
      <trkpt lat="44.29278" lon="5.61449">
        <ele>843.097</ele>
        <time>2019-04-27T08:05:19Z</time>
      </trkpt>
      <trkpt lat="44.29277" lon="5.61391">
        <ele>843.523</ele>
        <time>2019-04-27T08:05:30Z</time>
      </trkpt>
      <trkpt lat="44.29276" lon="5.61335">
        <ele>843.922</ele>
        <time>2019-04-27T08:05:41Z</time>
      </trkpt>
      <trkpt lat="44.29276" lon="5.61282">
        <ele>845.898</ele>
        <time>2019-04-27T08:05:52Z</time>
      </trkpt>
      <trkpt lat="44.29275" lon="5.6122">
        <ele>846.216</ele>
        <time>2019-04-27T08:06:02Z</time>
      </trkpt>
      <trkpt lat="44.29272" lon="5.61151">
        <ele>846.181</ele>
        <time>2019-04-27T08:06:13Z</time>
      </trkpt>
      <trkpt lat="44.29265" lon="5.61091">
        <ele>846.442</ele>
        <time>2019-04-27T08:06:23Z</time>
      </trkpt>
      <trkpt lat="44.29255" lon="5.6102">
        <ele>846.118</ele>
        <time>2019-04-27T08:06:34Z</time>
      </trkpt>
      <trkpt lat="44.29247" lon="5.60963">
        <ele>847.241</ele>
        <time>2019-04-27T08:06:44Z</time>
      </trkpt>
      <trkpt lat="44.29241" lon="5.60907">
        <ele>847.493</ele>
        <time>2019-04-27T08:06:55Z</time>
      </trkpt>
      <trkpt lat="44.29235" lon="5.60853">
        <ele>847.425</ele>
        <time>2019-04-27T08:07:06Z</time>
      </trkpt>
      <trkpt lat="44.29227" lon="5.60801">
        <ele>847.534</ele>
        <time>2019-04-27T08:07:17Z</time>
      </trkpt>
      <trkpt lat="44.29222" lon="5.60754">
        <ele>847.824</ele>
        <time>2019-04-27T08:07:27Z</time>
      </trkpt>
      <trkpt lat="44.29219" lon="5.60708">
        <ele>848.378</ele>
        <time>2019-04-27T08:07:38Z</time>
      </trkpt>
      <trkpt lat="44.29222" lon="5.60668">
        <ele>849.21</ele>
        <time>2019-04-27T08:07:49Z</time>
      </trkpt>
      <trkpt lat="44.29227" lon="5.60631">
        <ele>850.424</ele>
        <time>2019-04-27T08:08:00Z</time>
      </trkpt>
      <trkpt lat="44.29233" lon="5.60599">
        <ele>851.492</ele>
        <time>2019-04-27T08:08:11Z</time>
      </trkpt>
      <trkpt lat="44.2924" lon="5.60563">
        <ele>852.884</ele>
        <time>2019-04-27T08:08:21Z</time>
      </trkpt>
      <trkpt lat="44.29248" lon="5.60517">
        <ele>853.778</ele>
        <time>2019-04-27T08:08:32Z</time>
      </trkpt>
      <trkpt lat="44.29256" lon="5.60466">
        <ele>854.585</ele>
        <time>2019-04-27T08:08:43Z</time>
      </trkpt>
      <trkpt lat="44.29251" lon="5.6042">
        <ele>855.699</ele>
        <time>2019-04-27T08:08:54Z</time>
      </trkpt>
      <trkpt lat="44.29243" lon="5.60381">
        <ele>856.528</ele>
        <time>2019-04-27T08:09:04Z</time>
      </trkpt>
      <trkpt lat="44.29235" lon="5.6034">
        <ele>857.34</ele>
        <time>2019-04-27T08:09:14Z</time>
      </trkpt>
      <trkpt lat="44.29228" lon="5.60294">
        <ele>858.082</ele>
        <time>2019-04-27T08:09:25Z</time>
      </trkpt>
      <trkpt lat="44.29215" lon="5.60243">
        <ele>858.429</ele>
        <time>2019-04-27T08:09:36Z</time>
      </trkpt>
      <trkpt lat="44.29197" lon="5.60199">
        <ele>858.741</ele>
        <time>2019-04-27T08:09:46Z</time>
      </trkpt>
      <trkpt lat="44.29174" lon="5.60157">
        <ele>858.995</ele>
        <time>2019-04-27T08:09:57Z</time>
      </trkpt>
      <trkpt lat="44.29153" lon="5.60115">
        <ele>859.722</ele>
        <time>2019-04-27T08:10:07Z</time>
      </trkpt>
      <trkpt lat="44.29137" lon="5.60071">
        <ele>860.143</ele>
        <time>2019-04-27T08:10:18Z</time>
      </trkpt>
      <trkpt lat="44.2913" lon="5.60034">
        <ele>860.717</ele>
        <time>2019-04-27T08:10:28Z</time>
      </trkpt>
      <trkpt lat="44.29127" lon="5.59997">
        <ele>861.658</ele>
        <time>2019-04-27T08:10:39Z</time>
      </trkpt>
      <trkpt lat="44.29129" lon="5.5996">
        <ele>863.232</ele>
        <time>2019-04-27T08:10:50Z</time>
      </trkpt>
      <trkpt lat="44.2913" lon="5.59923">
        <ele>864.712</ele>
        <time>2019-04-27T08:11:01Z</time>
      </trkpt>
      <trkpt lat="44.29133" lon="5.5989">
        <ele>866.078</ele>
        <time>2019-04-27T08:11:11Z</time>
      </trkpt>
      <trkpt lat="44.29143" lon="5.59857">
        <ele>867.895</ele>
        <time>2019-04-27T08:11:22Z</time>
      </trkpt>
      <trkpt lat="44.29149" lon="5.59829">
        <ele>869.084</ele>
        <time>2019-04-27T08:11:32Z</time>
      </trkpt>
      <trkpt lat="44.29163" lon="5.59803">
        <ele>870.162</ele>
        <time>2019-04-27T08:11:43Z</time>
      </trkpt>
      <trkpt lat="44.2918" lon="5.59777">
        <ele>871.487</ele>
        <time>2019-04-27T08:11:54Z</time>
      </trkpt>
      <trkpt lat="44.29201" lon="5.59755">
        <ele>872.55</ele>
        <time>2019-04-27T08:12:04Z</time>
      </trkpt>
      <trkpt lat="44.29226" lon="5.5972">
        <ele>874.59</ele>
        <time>2019-04-27T08:12:14Z</time>
      </trkpt>
      <trkpt lat="44.29259" lon="5.59671">
        <ele>879.808</ele>
        <time>2019-04-27T08:12:25Z</time>
      </trkpt>
      <trkpt lat="44.29279" lon="5.59618">
        <ele>880.017</ele>
        <time>2019-04-27T08:12:36Z</time>
      </trkpt>
      <trkpt lat="44.29252" lon="5.59586">
        <ele>880.032</ele>
        <time>2019-04-27T08:12:46Z</time>
      </trkpt>
      <trkpt lat="44.29207" lon="5.59561">
        <ele>878.012</ele>
        <time>2019-04-27T08:12:57Z</time>
      </trkpt>
      <trkpt lat="44.29145" lon="5.59582">
        <ele>873.834</ele>
        <time>2019-04-27T08:13:08Z</time>
      </trkpt>
      <trkpt lat="44.29088" lon="5.59668">
        <ele>871.338</ele>
        <time>2019-04-27T08:13:19Z</time>
      </trkpt>
      <trkpt lat="44.29033" lon="5.59708">
        <ele>872.735</ele>
        <time>2019-04-27T08:13:30Z</time>
      </trkpt>
      <trkpt lat="44.28993" lon="5.59686">
        <ele>873.371</ele>
        <time>2019-04-27T08:13:40Z</time>
      </trkpt>
      <trkpt lat="44.28954" lon="5.59667">
        <ele>873.567</ele>
        <time>2019-04-27T08:13:51Z</time>
      </trkpt>
      <trkpt lat="44.28925" lon="5.59656">
        <ele>873.984</ele>
        <time>2019-04-27T08:14:02Z</time>
      </trkpt>
      <trkpt lat="44.28904" lon="5.59653">
        <ele>874.415</ele>
        <time>2019-04-27T08:14:12Z</time>
      </trkpt>
      <trkpt lat="44.28881" lon="5.59667">
        <ele>874.744</ele>
        <time>2019-04-27T08:14:22Z</time>
      </trkpt>
      <trkpt lat="44.28863" lon="5.59682">
        <ele>875.328</ele>
        <time>2019-04-27T08:14:33Z</time>
      </trkpt>
      <trkpt lat="44.28842" lon="5.59686">
        <ele>875.94</ele>
        <time>2019-04-27T08:14:44Z</time>
      </trkpt>
      <trkpt lat="44.28829" lon="5.59673">
        <ele>876.681</ele>
        <time>2019-04-27T08:14:55Z</time>
      </trkpt>
      <trkpt lat="44.28815" lon="5.59658">
        <ele>877.534</ele>
        <time>2019-04-27T08:15:06Z</time>
      </trkpt>
      <trkpt lat="44.28803" lon="5.59643">
        <ele>878.526</ele>
        <time>2019-04-27T08:15:17Z</time>
      </trkpt>
      <trkpt lat="44.28789" lon="5.59627">
        <ele>879.616</ele>
        <time>2019-04-27T08:15:28Z</time>
      </trkpt>
      <trkpt lat="44.28777" lon="5.5961">
        <ele>880.748</ele>
        <time>2019-04-27T08:15:39Z</time>
      </trkpt>
      <trkpt lat="44.28768" lon="5.5959">
        <ele>881.83</ele>
        <time>2019-04-27T08:15:49Z</time>
      </trkpt>
      <trkpt lat="44.28762" lon="5.59566">
        <ele>883.039</ele>
        <time>2019-04-27T08:16:00Z</time>
      </trkpt>
      <trkpt lat="44.28754" lon="5.59543">
        <ele>884.494</ele>
        <time>2019-04-27T08:16:11Z</time>
      </trkpt>
      <trkpt lat="44.28742" lon="5.59523">
        <ele>886.045</ele>
        <time>2019-04-27T08:16:22Z</time>
      </trkpt>
      <trkpt lat="44.28728" lon="5.59508">
        <ele>887.621</ele>
        <time>2019-04-27T08:16:33Z</time>
      </trkpt>
      <trkpt lat="44.28712" lon="5.59501">
        <ele>889.185</ele>
        <time>2019-04-27T08:16:44Z</time>
      </trkpt>
      <trkpt lat="44.28694" lon="5.59497">
        <ele>890.697</ele>
        <time>2019-04-27T08:16:55Z</time>
      </trkpt>
      <trkpt lat="44.28678" lon="5.59488">
        <ele>891.991</ele>
        <time>2019-04-27T08:17:05Z</time>
      </trkpt>
      <trkpt lat="44.28663" lon="5.59486">
        <ele>893.455</ele>
        <time>2019-04-27T08:17:15Z</time>
      </trkpt>
      <trkpt lat="44.28645" lon="5.59481">
        <ele>894.917</ele>
        <time>2019-04-27T08:17:26Z</time>
      </trkpt>
      <trkpt lat="44.2863" lon="5.5948">
        <ele>896.457</ele>
        <time>2019-04-27T08:17:36Z</time>
      </trkpt>
      <trkpt lat="44.28614" lon="5.59482">
        <ele>897.994</ele>
        <time>2019-04-27T08:17:46Z</time>
      </trkpt>
      <trkpt lat="44.28596" lon="5.59476">
        <ele>899.383</ele>
        <time>2019-04-27T08:17:56Z</time>
      </trkpt>
      <trkpt lat="44.28582" lon="5.59484">
        <ele>901.087</ele>
        <time>2019-04-27T08:18:07Z</time>
      </trkpt>
      <trkpt lat="44.28594" lon="5.59494">
        <ele>904.094</ele>
        <time>2019-04-27T08:18:17Z</time>
      </trkpt>
      <trkpt lat="44.28614" lon="5.595">
        <ele>905.444</ele>
        <time>2019-04-27T08:18:27Z</time>
      </trkpt>
      <trkpt lat="44.28638" lon="5.59505">
        <ele>906.614</ele>
        <time>2019-04-27T08:18:37Z</time>
      </trkpt>
      <trkpt lat="44.28662" lon="5.59519">
        <ele>907.322</ele>
        <time>2019-04-27T08:18:48Z</time>
      </trkpt>
      <trkpt lat="44.28682" lon="5.59536">
        <ele>907.663</ele>
        <time>2019-04-27T08:18:58Z</time>
      </trkpt>
      <trkpt lat="44.28699" lon="5.59561">
        <ele>908.083</ele>
        <time>2019-04-27T08:19:09Z</time>
      </trkpt>
      <trkpt lat="44.28699" lon="5.59586">
        <ele>908.888</ele>
        <time>2019-04-27T08:19:20Z</time>
      </trkpt>
      <trkpt lat="44.28688" lon="5.59604">
        <ele>910.086</ele>
        <time>2019-04-27T08:19:30Z</time>
      </trkpt>
      <trkpt lat="44.2868" lon="5.59628">
        <ele>911.466</ele>
        <time>2019-04-27T08:19:41Z</time>
      </trkpt>
      <trkpt lat="44.28679" lon="5.59654">
        <ele>912.782</ele>
        <time>2019-04-27T08:19:51Z</time>
      </trkpt>
      <trkpt lat="44.28685" lon="5.59678">
        <ele>914.965</ele>
        <time>2019-04-27T08:20:01Z</time>
      </trkpt>
      <trkpt lat="44.28689" lon="5.59704">
        <ele>917.01</ele>
        <time>2019-04-27T08:20:12Z</time>
      </trkpt>
      <trkpt lat="44.28694" lon="5.59728">
        <ele>918.816</ele>
        <time>2019-04-27T08:20:22Z</time>
      </trkpt>
      <trkpt lat="44.28695" lon="5.59753">
        <ele>920.501</ele>
        <time>2019-04-27T08:20:33Z</time>
      </trkpt>
      <trkpt lat="44.28683" lon="5.59732">
        <ele>921.686</ele>
        <time>2019-04-27T08:20:44Z</time>
      </trkpt>
      <trkpt lat="44.28673" lon="5.59711">
        <ele>922.83</ele>
        <time>2019-04-27T08:20:55Z</time>
      </trkpt>
      <trkpt lat="44.28663" lon="5.5969">
        <ele>923.796</ele>
        <time>2019-04-27T08:21:06Z</time>
      </trkpt>
      <trkpt lat="44.28651" lon="5.59671">
        <ele>924.682</ele>
        <time>2019-04-27T08:21:17Z</time>
      </trkpt>
      <trkpt lat="44.28639" lon="5.59657">
        <ele>925.57</ele>
        <time>2019-04-27T08:21:27Z</time>
      </trkpt>
      <trkpt lat="44.28622" lon="5.59647">
        <ele>926.463</ele>
        <time>2019-04-27T08:21:38Z</time>
      </trkpt>
      <trkpt lat="44.28606" lon="5.59633">
        <ele>927.598</ele>
        <time>2019-04-27T08:21:49Z</time>
      </trkpt>
      <trkpt lat="44.28596" lon="5.59611">
        <ele>929.095</ele>
        <time>2019-04-27T08:22:00Z</time>
      </trkpt>
      <trkpt lat="44.28587" lon="5.59593">
        <ele>930.223</ele>
        <time>2019-04-27T08:22:10Z</time>
      </trkpt>
      <trkpt lat="44.28572" lon="5.59579">
        <ele>931.513</ele>
        <time>2019-04-27T08:22:21Z</time>
      </trkpt>
      <trkpt lat="44.2856" lon="5.59576">
        <ele>932.846</ele>
        <time>2019-04-27T08:22:31Z</time>
      </trkpt>
      <trkpt lat="44.28545" lon="5.59576">
        <ele>934.676</ele>
        <time>2019-04-27T08:22:42Z</time>
      </trkpt>
      <trkpt lat="44.28524" lon="5.59575">
        <ele>936.861</ele>
        <time>2019-04-27T08:22:52Z</time>
      </trkpt>
      <trkpt lat="44.28504" lon="5.59581">
        <ele>939.91</ele>
        <time>2019-04-27T08:23:02Z</time>
      </trkpt>
      <trkpt lat="44.28479" lon="5.59582">
        <ele>943.002</ele>
        <time>2019-04-27T08:23:13Z</time>
      </trkpt>
      <trkpt lat="44.28458" lon="5.59593">
        <ele>945.443</ele>
        <time>2019-04-27T08:23:24Z</time>
      </trkpt>
      <trkpt lat="44.2844" lon="5.596">
        <ele>946.999</ele>
        <time>2019-04-27T08:23:34Z</time>
      </trkpt>
      <trkpt lat="44.2842" lon="5.59606">
        <ele>948.691</ele>
        <time>2019-04-27T08:23:45Z</time>
      </trkpt>
      <trkpt lat="44.284" lon="5.59611">
        <ele>950.402</ele>
        <time>2019-04-27T08:23:56Z</time>
      </trkpt>
      <trkpt lat="44.28379" lon="5.59611">
        <ele>951.685</ele>
        <time>2019-04-27T08:24:07Z</time>
      </trkpt>
      <trkpt lat="44.28358" lon="5.59607">
        <ele>953.302</ele>
        <time>2019-04-27T08:24:18Z</time>
      </trkpt>
      <trkpt lat="44.28341" lon="5.59604">
        <ele>954.572</ele>
        <time>2019-04-27T08:24:28Z</time>
      </trkpt>
      <trkpt lat="44.28322" lon="5.59599">
        <ele>955.614</ele>
        <time>2019-04-27T08:24:38Z</time>
      </trkpt>
      <trkpt lat="44.28302" lon="5.59594">
        <ele>957.516</ele>
        <time>2019-04-27T08:24:49Z</time>
      </trkpt>
      <trkpt lat="44.28283" lon="5.59596">
        <ele>959.286</ele>
        <time>2019-04-27T08:24:59Z</time>
      </trkpt>
      <trkpt lat="44.28265" lon="5.59605">
        <ele>960.81</ele>
        <time>2019-04-27T08:25:09Z</time>
      </trkpt>
      <trkpt lat="44.28254" lon="5.59628">
        <ele>962.048</ele>
        <time>2019-04-27T08:25:20Z</time>
      </trkpt>
      <trkpt lat="44.28246" lon="5.59653">
        <ele>963.252</ele>
        <time>2019-04-27T08:25:30Z</time>
      </trkpt>
      <trkpt lat="44.28236" lon="5.59677">
        <ele>964.752</ele>
        <time>2019-04-27T08:25:41Z</time>
      </trkpt>
      <trkpt lat="44.28224" lon="5.59691">
        <ele>966.468</ele>
        <time>2019-04-27T08:25:51Z</time>
      </trkpt>
      <trkpt lat="44.28211" lon="5.59707">
        <ele>968.17</ele>
        <time>2019-04-27T08:26:02Z</time>
      </trkpt>
      <trkpt lat="44.28197" lon="5.59722">
        <ele>969.107</ele>
        <time>2019-04-27T08:26:12Z</time>
      </trkpt>
      <trkpt lat="44.28183" lon="5.59738">
        <ele>970.115</ele>
        <time>2019-04-27T08:26:23Z</time>
      </trkpt>
      <trkpt lat="44.28166" lon="5.59757">
        <ele>970.895</ele>
        <time>2019-04-27T08:26:34Z</time>
      </trkpt>
      <trkpt lat="44.28154" lon="5.5978">
        <ele>972.181</ele>
        <time>2019-04-27T08:26:44Z</time>
      </trkpt>
      <trkpt lat="44.28136" lon="5.59801">
        <ele>973.507</ele>
        <time>2019-04-27T08:26:54Z</time>
      </trkpt>
      <trkpt lat="44.28109" lon="5.5981">
        <ele>974.861</ele>
        <time>2019-04-27T08:27:05Z</time>
      </trkpt>
      <trkpt lat="44.28087" lon="5.59826">
        <ele>976.346</ele>
        <time>2019-04-27T08:27:16Z</time>
      </trkpt>
      <trkpt lat="44.28071" lon="5.5984">
        <ele>977.559</ele>
        <time>2019-04-27T08:27:26Z</time>
      </trkpt>
      <trkpt lat="44.28063" lon="5.5986">
        <ele>979.103</ele>
        <time>2019-04-27T08:27:36Z</time>
      </trkpt>
      <trkpt lat="44.28048" lon="5.59875">
        <ele>981.132</ele>
        <time>2019-04-27T08:27:47Z</time>
      </trkpt>
      <trkpt lat="44.28032" lon="5.59881">
        <ele>982.872</ele>
        <time>2019-04-27T08:27:58Z</time>
      </trkpt>
      <trkpt lat="44.28014" lon="5.59883">
        <ele>984.381</ele>
        <time>2019-04-27T08:28:09Z</time>
      </trkpt>
      <trkpt lat="44.27998" lon="5.59897">
        <ele>985.928</ele>
        <time>2019-04-27T08:28:20Z</time>
      </trkpt>
      <trkpt lat="44.27991" lon="5.5992">
        <ele>987.681</ele>
        <time>2019-04-27T08:28:30Z</time>
      </trkpt>
      <trkpt lat="44.27985" lon="5.59942">
        <ele>989.525</ele>
        <time>2019-04-27T08:28:40Z</time>
      </trkpt>
      <trkpt lat="44.27978" lon="5.59967">
        <ele>991.526</ele>
        <time>2019-04-27T08:28:51Z</time>
      </trkpt>
      <trkpt lat="44.27973" lon="5.59992">
        <ele>993.283</ele>
        <time>2019-04-27T08:29:01Z</time>
      </trkpt>
      <trkpt lat="44.27963" lon="5.60013">
        <ele>994.876</ele>
        <time>2019-04-27T08:29:12Z</time>
      </trkpt>
      <trkpt lat="44.27964" lon="5.60013">
        <ele>995.17</ele>
        <time>2019-04-27T08:29:23Z</time>
      </trkpt>
      <trkpt lat="44.27964" lon="5.60013">
        <ele>995.304</ele>
        <time>2019-04-27T08:29:34Z</time>
      </trkpt>
      <trkpt lat="44.27964" lon="5.60013">
        <ele>995.442</ele>
        <time>2019-04-27T08:29:44Z</time>
      </trkpt>
      <trkpt lat="44.27964" lon="5.60013">
        <ele>995.583</ele>
        <time>2019-04-27T08:29:54Z</time>
      </trkpt>
      <trkpt lat="44.27964" lon="5.60014">
        <ele>995.679</ele>
        <time>2019-04-27T08:30:04Z</time>
      </trkpt>
      <trkpt lat="44.27964" lon="5.60014">
        <ele>995.753</ele>
        <time>2019-04-27T08:30:15Z</time>
      </trkpt>
      <trkpt lat="44.27965" lon="5.60014">
        <ele>995.817</ele>
        <time>2019-04-27T08:30:26Z</time>
      </trkpt>
      <trkpt lat="44.27965" lon="5.60014">
        <ele>995.847</ele>
        <time>2019-04-27T08:30:36Z</time>
      </trkpt>
      <trkpt lat="44.27965" lon="5.60014">
        <ele>995.879</ele>
        <time>2019-04-27T08:30:47Z</time>
      </trkpt>
      <trkpt lat="44.27965" lon="5.60014">
        <ele>995.947</ele>
        <time>2019-04-27T08:30:58Z</time>
      </trkpt>
      <trkpt lat="44.27965" lon="5.60014">
        <ele>995.997</ele>
        <time>2019-04-27T08:31:09Z</time>
      </trkpt>
      <trkpt lat="44.27965" lon="5.60015">
        <ele>996.053</ele>
        <time>2019-04-27T08:31:19Z</time>
      </trkpt>
      <trkpt lat="44.27964" lon="5.60015">
        <ele>996.153</ele>
        <time>2019-04-27T08:31:30Z</time>
      </trkpt>
      <trkpt lat="44.27961" lon="5.60021">
        <ele>996.672</ele>
        <time>2019-04-27T08:31:41Z</time>
      </trkpt>
      <trkpt lat="44.27945" lon="5.60033">
        <ele>997.589</ele>
        <time>2019-04-27T08:31:52Z</time>
      </trkpt>
      <trkpt lat="44.27928" lon="5.60045">
        <ele>998.042</ele>
        <time>2019-04-27T08:32:02Z</time>
      </trkpt>
      <trkpt lat="44.27909" lon="5.60054">
        <ele>998.139</ele>
        <time>2019-04-27T08:32:13Z</time>
      </trkpt>
      <trkpt lat="44.27891" lon="5.60071">
        <ele>999.47</ele>
        <time>2019-04-27T08:32:24Z</time>
      </trkpt>
      <trkpt lat="44.27876" lon="5.60085">
        <ele>1000.732</ele>
        <time>2019-04-27T08:32:34Z</time>
      </trkpt>
      <trkpt lat="44.27859" lon="5.60104">
        <ele>1002.06</ele>
        <time>2019-04-27T08:32:45Z</time>
      </trkpt>
      <trkpt lat="44.27843" lon="5.60119">
        <ele>1003.593</ele>
        <time>2019-04-27T08:32:55Z</time>
      </trkpt>
      <trkpt lat="44.27823" lon="5.60132">
        <ele>1005.393</ele>
        <time>2019-04-27T08:33:06Z</time>
      </trkpt>
      <trkpt lat="44.27802" lon="5.60135">
        <ele>1006.517</ele>
        <time>2019-04-27T08:33:17Z</time>
      </trkpt>
      <trkpt lat="44.27783" lon="5.60129">
        <ele>1007.87</ele>
        <time>2019-04-27T08:33:27Z</time>
      </trkpt>
      <trkpt lat="44.27761" lon="5.6013">
        <ele>1009</ele>
        <time>2019-04-27T08:33:38Z</time>
      </trkpt>
      <trkpt lat="44.27743" lon="5.60142">
        <ele>1010.143</ele>
        <time>2019-04-27T08:33:49Z</time>
      </trkpt>
      <trkpt lat="44.27727" lon="5.60155">
        <ele>1011.539</ele>
        <time>2019-04-27T08:33:59Z</time>
      </trkpt>
      <trkpt lat="44.27712" lon="5.60169">
        <ele>1013.021</ele>
        <time>2019-04-27T08:34:10Z</time>
      </trkpt>
      <trkpt lat="44.27701" lon="5.60191">
        <ele>1014.718</ele>
        <time>2019-04-27T08:34:21Z</time>
      </trkpt>
      <trkpt lat="44.27707" lon="5.60217">
        <ele>1016.276</ele>
        <time>2019-04-27T08:34:32Z</time>
      </trkpt>
      <trkpt lat="44.27726" lon="5.60233">
        <ele>1017.934</ele>
        <time>2019-04-27T08:34:43Z</time>
      </trkpt>
      <trkpt lat="44.27741" lon="5.6025">
        <ele>1019.358</ele>
        <time>2019-04-27T08:34:54Z</time>
      </trkpt>
      <trkpt lat="44.27732" lon="5.60268">
        <ele>1020.461</ele>
        <time>2019-04-27T08:35:04Z</time>
      </trkpt>
      <trkpt lat="44.27717" lon="5.60284">
        <ele>1022.084</ele>
        <time>2019-04-27T08:35:14Z</time>
      </trkpt>
      <trkpt lat="44.27715" lon="5.60311">
        <ele>1023.619</ele>
        <time>2019-04-27T08:35:25Z</time>
      </trkpt>
      <trkpt lat="44.27718" lon="5.60335">
        <ele>1025.026</ele>
        <time>2019-04-27T08:35:35Z</time>
      </trkpt>
      <trkpt lat="44.2772" lon="5.60361">
        <ele>1026.087</ele>
        <time>2019-04-27T08:35:46Z</time>
      </trkpt>
      <trkpt lat="44.2772" lon="5.60384">
        <ele>1027.184</ele>
        <time>2019-04-27T08:35:56Z</time>
      </trkpt>
      <trkpt lat="44.27719" lon="5.60408">
        <ele>1028.146</ele>
        <time>2019-04-27T08:36:07Z</time>
      </trkpt>
      <trkpt lat="44.27715" lon="5.60432">
        <ele>1028.908</ele>
        <time>2019-04-27T08:36:17Z</time>
      </trkpt>
      <trkpt lat="44.27703" lon="5.60451">
        <ele>1030.326</ele>
        <time>2019-04-27T08:36:27Z</time>
      </trkpt>
      <trkpt lat="44.27689" lon="5.60464">
        <ele>1032.256</ele>
        <time>2019-04-27T08:36:38Z</time>
      </trkpt>
      <trkpt lat="44.27673" lon="5.60475">
        <ele>1033.614</ele>
        <time>2019-04-27T08:36:48Z</time>
      </trkpt>
      <trkpt lat="44.27657" lon="5.60476">
        <ele>1034.635</ele>
        <time>2019-04-27T08:36:58Z</time>
      </trkpt>
      <trkpt lat="44.27641" lon="5.60476">
        <ele>1036.061</ele>
        <time>2019-04-27T08:37:09Z</time>
      </trkpt>
      <trkpt lat="44.27621" lon="5.60476">
        <ele>1037.15</ele>
        <time>2019-04-27T08:37:20Z</time>
      </trkpt>
      <trkpt lat="44.27601" lon="5.60475">
        <ele>1038.179</ele>
        <time>2019-04-27T08:37:31Z</time>
      </trkpt>
      <trkpt lat="44.27584" lon="5.60473">
        <ele>1039.139</ele>
        <time>2019-04-27T08:37:41Z</time>
      </trkpt>
      <trkpt lat="44.27567" lon="5.60467">
        <ele>1040.308</ele>
        <time>2019-04-27T08:37:51Z</time>
      </trkpt>
      <trkpt lat="44.27546" lon="5.60454">
        <ele>1041.644</ele>
        <time>2019-04-27T08:38:02Z</time>
      </trkpt>
      <trkpt lat="44.27529" lon="5.6044">
        <ele>1043.343</ele>
        <time>2019-04-27T08:38:13Z</time>
      </trkpt>
      <trkpt lat="44.27511" lon="5.60431">
        <ele>1044.712</ele>
        <time>2019-04-27T08:38:23Z</time>
      </trkpt>
      <trkpt lat="44.27505" lon="5.60453">
        <ele>1046.048</ele>
        <time>2019-04-27T08:38:34Z</time>
      </trkpt>
      <trkpt lat="44.27509" lon="5.6048">
        <ele>1047.473</ele>
        <time>2019-04-27T08:38:44Z</time>
      </trkpt>
      <trkpt lat="44.27507" lon="5.60503">
        <ele>1049.415</ele>
        <time>2019-04-27T08:38:54Z</time>
      </trkpt>
      <trkpt lat="44.27499" lon="5.60524">
        <ele>1051.1</ele>
        <time>2019-04-27T08:39:04Z</time>
      </trkpt>
      <trkpt lat="44.27492" lon="5.60548">
        <ele>1052.576</ele>
        <time>2019-04-27T08:39:15Z</time>
      </trkpt>
      <trkpt lat="44.27486" lon="5.6057">
        <ele>1053.723</ele>
        <time>2019-04-27T08:39:25Z</time>
      </trkpt>
      <trkpt lat="44.2748" lon="5.60594">
        <ele>1055.252</ele>
        <time>2019-04-27T08:39:36Z</time>
      </trkpt>
      <trkpt lat="44.27466" lon="5.60615">
        <ele>1057.141</ele>
        <time>2019-04-27T08:39:47Z</time>
      </trkpt>
      <trkpt lat="44.2745" lon="5.60624">
        <ele>1058.882</ele>
        <time>2019-04-27T08:39:58Z</time>
      </trkpt>
      <trkpt lat="44.27433" lon="5.60634">
        <ele>1060.137</ele>
        <time>2019-04-27T08:40:09Z</time>
      </trkpt>
      <trkpt lat="44.27423" lon="5.60657">
        <ele>1061.503</ele>
        <time>2019-04-27T08:40:20Z</time>
      </trkpt>
      <trkpt lat="44.2742" lon="5.60687">
        <ele>1063.732</ele>
        <time>2019-04-27T08:40:31Z</time>
      </trkpt>
      <trkpt lat="44.27406" lon="5.60708">
        <ele>1065.648</ele>
        <time>2019-04-27T08:40:42Z</time>
      </trkpt>
      <trkpt lat="44.27389" lon="5.60715">
        <ele>1067.511</ele>
        <time>2019-04-27T08:40:53Z</time>
      </trkpt>
      <trkpt lat="44.27368" lon="5.60716">
        <ele>1069.199</ele>
        <time>2019-04-27T08:41:04Z</time>
      </trkpt>
      <trkpt lat="44.27352" lon="5.60725">
        <ele>1069.976</ele>
        <time>2019-04-27T08:41:14Z</time>
      </trkpt>
      <trkpt lat="44.27333" lon="5.60741">
        <ele>1070.95</ele>
        <time>2019-04-27T08:41:24Z</time>
      </trkpt>
      <trkpt lat="44.27319" lon="5.60767">
        <ele>1072.565</ele>
        <time>2019-04-27T08:41:35Z</time>
      </trkpt>
      <trkpt lat="44.27311" lon="5.60792">
        <ele>1074.155</ele>
        <time>2019-04-27T08:41:45Z</time>
      </trkpt>
      <trkpt lat="44.27307" lon="5.60824">
        <ele>1076.038</ele>
        <time>2019-04-27T08:41:56Z</time>
      </trkpt>
      <trkpt lat="44.2732" lon="5.60841">
        <ele>1077.241</ele>
        <time>2019-04-27T08:42:06Z</time>
      </trkpt>
      <trkpt lat="44.27319" lon="5.60862">
        <ele>1078.971</ele>
        <time>2019-04-27T08:42:17Z</time>
      </trkpt>
      <trkpt lat="44.27308" lon="5.60876">
        <ele>1080.434</ele>
        <time>2019-04-27T08:42:27Z</time>
      </trkpt>
      <trkpt lat="44.27297" lon="5.60892">
        <ele>1082.038</ele>
        <time>2019-04-27T08:42:38Z</time>
      </trkpt>
      <trkpt lat="44.2729" lon="5.60913">
        <ele>1083.382</ele>
        <time>2019-04-27T08:42:49Z</time>
      </trkpt>
      <trkpt lat="44.27284" lon="5.60934">
        <ele>1084.455</ele>
        <time>2019-04-27T08:43:00Z</time>
      </trkpt>
      <trkpt lat="44.27277" lon="5.60953">
        <ele>1085.389</ele>
        <time>2019-04-27T08:43:10Z</time>
      </trkpt>
      <trkpt lat="44.27262" lon="5.60965">
        <ele>1086.599</ele>
        <time>2019-04-27T08:43:21Z</time>
      </trkpt>
      <trkpt lat="44.27244" lon="5.60972">
        <ele>1087.974</ele>
        <time>2019-04-27T08:43:32Z</time>
      </trkpt>
      <trkpt lat="44.27225" lon="5.60979">
        <ele>1089.46</ele>
        <time>2019-04-27T08:43:42Z</time>
      </trkpt>
      <trkpt lat="44.27203" lon="5.60988">
        <ele>1091.316</ele>
        <time>2019-04-27T08:43:52Z</time>
      </trkpt>
      <trkpt lat="44.2718" lon="5.60998">
        <ele>1093.465</ele>
        <time>2019-04-27T08:44:03Z</time>
      </trkpt>
      <trkpt lat="44.27157" lon="5.61009">
        <ele>1097.689</ele>
        <time>2019-04-27T08:44:14Z</time>
      </trkpt>
      <trkpt lat="44.27139" lon="5.61024">
        <ele>1099.432</ele>
        <time>2019-04-27T08:44:25Z</time>
      </trkpt>
      <trkpt lat="44.27116" lon="5.61036">
        <ele>1101.529</ele>
        <time>2019-04-27T08:44:36Z</time>
      </trkpt>
      <trkpt lat="44.271" lon="5.6104">
        <ele>1103.386</ele>
        <time>2019-04-27T08:44:46Z</time>
      </trkpt>
      <trkpt lat="44.27086" lon="5.61049">
        <ele>1104.907</ele>
        <time>2019-04-27T08:44:56Z</time>
      </trkpt>
      <trkpt lat="44.27071" lon="5.61058">
        <ele>1106.146</ele>
        <time>2019-04-27T08:45:07Z</time>
      </trkpt>
      <trkpt lat="44.27054" lon="5.61063">
        <ele>1107.822</ele>
        <time>2019-04-27T08:45:17Z</time>
      </trkpt>
      <trkpt lat="44.27037" lon="5.61068">
        <ele>1109.485</ele>
        <time>2019-04-27T08:45:28Z</time>
      </trkpt>
      <trkpt lat="44.2702" lon="5.61073">
        <ele>1111.054</ele>
        <time>2019-04-27T08:45:39Z</time>
      </trkpt>
      <trkpt lat="44.27005" lon="5.61085">
        <ele>1112.362</ele>
        <time>2019-04-27T08:45:50Z</time>
      </trkpt>
      <trkpt lat="44.26986" lon="5.61102">
        <ele>1113.563</ele>
        <time>2019-04-27T08:46:01Z</time>
      </trkpt>
      <trkpt lat="44.26964" lon="5.61119">
        <ele>1114.749</ele>
        <time>2019-04-27T08:46:12Z</time>
      </trkpt>
      <trkpt lat="44.26944" lon="5.61133">
        <ele>1116.164</ele>
        <time>2019-04-27T08:46:23Z</time>
      </trkpt>
      <trkpt lat="44.26927" lon="5.61146">
        <ele>1118.006</ele>
        <time>2019-04-27T08:46:34Z</time>
      </trkpt>
      <trkpt lat="44.26915" lon="5.61162">
        <ele>1119.22</ele>
        <time>2019-04-27T08:46:44Z</time>
      </trkpt>
      <trkpt lat="44.26902" lon="5.61178">
        <ele>1120.54</ele>
        <time>2019-04-27T08:46:55Z</time>
      </trkpt>
      <trkpt lat="44.2689" lon="5.61189">
        <ele>1121.56</ele>
        <time>2019-04-27T08:47:05Z</time>
      </trkpt>
      <trkpt lat="44.26878" lon="5.61198">
        <ele>1122.403</ele>
        <time>2019-04-27T08:47:15Z</time>
      </trkpt>
      <trkpt lat="44.26864" lon="5.61208">
        <ele>1123.468</ele>
        <time>2019-04-27T08:47:26Z</time>
      </trkpt>
      <trkpt lat="44.26851" lon="5.61216">
        <ele>1124.533</ele>
        <time>2019-04-27T08:47:36Z</time>
      </trkpt>
      <trkpt lat="44.26839" lon="5.61228">
        <ele>1125.793</ele>
        <time>2019-04-27T08:47:46Z</time>
      </trkpt>
      <trkpt lat="44.26827" lon="5.61242">
        <ele>1127.353</ele>
        <time>2019-04-27T08:47:57Z</time>
      </trkpt>
      <trkpt lat="44.26818" lon="5.61258">
        <ele>1128.707</ele>
        <time>2019-04-27T08:48:07Z</time>
      </trkpt>
      <trkpt lat="44.26808" lon="5.61279">
        <ele>1130.081</ele>
        <time>2019-04-27T08:48:17Z</time>
      </trkpt>
      <trkpt lat="44.26795" lon="5.61297">
        <ele>1131.741</ele>
        <time>2019-04-27T08:48:28Z</time>
      </trkpt>
      <trkpt lat="44.26783" lon="5.61315">
        <ele>1133.356</ele>
        <time>2019-04-27T08:48:39Z</time>
      </trkpt>
      <trkpt lat="44.26769" lon="5.61334">
        <ele>1134.915</ele>
        <time>2019-04-27T08:48:49Z</time>
      </trkpt>
      <trkpt lat="44.26753" lon="5.61353">
        <ele>1136.855</ele>
        <time>2019-04-27T08:49:00Z</time>
      </trkpt>
      <trkpt lat="44.26739" lon="5.61369">
        <ele>1138.491</ele>
        <time>2019-04-27T08:49:10Z</time>
      </trkpt>
      <trkpt lat="44.26724" lon="5.61386">
        <ele>1140.178</ele>
        <time>2019-04-27T08:49:20Z</time>
      </trkpt>
      <trkpt lat="44.26711" lon="5.61402">
        <ele>1141.88</ele>
        <time>2019-04-27T08:49:31Z</time>
      </trkpt>
      <trkpt lat="44.26698" lon="5.61415">
        <ele>1143.314</ele>
        <time>2019-04-27T08:49:41Z</time>
      </trkpt>
      <trkpt lat="44.26684" lon="5.6143">
        <ele>1144.312</ele>
        <time>2019-04-27T08:49:52Z</time>
      </trkpt>
      <trkpt lat="44.2667" lon="5.61442">
        <ele>1145.143</ele>
        <time>2019-04-27T08:50:03Z</time>
      </trkpt>
      <trkpt lat="44.26651" lon="5.61452">
        <ele>1146.306</ele>
        <time>2019-04-27T08:50:14Z</time>
      </trkpt>
      <trkpt lat="44.26636" lon="5.61459">
        <ele>1147.6</ele>
        <time>2019-04-27T08:50:24Z</time>
      </trkpt>
      <trkpt lat="44.26618" lon="5.61469">
        <ele>1149.182</ele>
        <time>2019-04-27T08:50:35Z</time>
      </trkpt>
      <trkpt lat="44.26604" lon="5.6149">
        <ele>1151.45</ele>
        <time>2019-04-27T08:50:46Z</time>
      </trkpt>
      <trkpt lat="44.26592" lon="5.61515">
        <ele>1153.405</ele>
        <time>2019-04-27T08:50:56Z</time>
      </trkpt>
      <trkpt lat="44.26579" lon="5.61541">
        <ele>1155.202</ele>
        <time>2019-04-27T08:51:07Z</time>
      </trkpt>
      <trkpt lat="44.26566" lon="5.61565">
        <ele>1157.281</ele>
        <time>2019-04-27T08:51:17Z</time>
      </trkpt>
      <trkpt lat="44.26558" lon="5.61596">
        <ele>1159.455</ele>
        <time>2019-04-27T08:51:28Z</time>
      </trkpt>
      <trkpt lat="44.26555" lon="5.61627">
        <ele>1161.684</ele>
        <time>2019-04-27T08:51:38Z</time>
      </trkpt>
      <trkpt lat="44.26544" lon="5.6165">
        <ele>1164.484</ele>
        <time>2019-04-27T08:51:49Z</time>
      </trkpt>
      <trkpt lat="44.26539" lon="5.61682">
        <ele>1166.398</ele>
        <time>2019-04-27T08:52:00Z</time>
      </trkpt>
      <trkpt lat="44.26541" lon="5.61713">
        <ele>1167.778</ele>
        <time>2019-04-27T08:52:10Z</time>
      </trkpt>
      <trkpt lat="44.26549" lon="5.61748">
        <ele>1169.614</ele>
        <time>2019-04-27T08:52:21Z</time>
      </trkpt>
      <trkpt lat="44.26548" lon="5.61778">
        <ele>1171.537</ele>
        <time>2019-04-27T08:52:32Z</time>
      </trkpt>
      <trkpt lat="44.26537" lon="5.61798">
        <ele>1173.433</ele>
        <time>2019-04-27T08:52:43Z</time>
      </trkpt>
      <trkpt lat="44.2652" lon="5.61806">
        <ele>1174.699</ele>
        <time>2019-04-27T08:52:54Z</time>
      </trkpt>
      <trkpt lat="44.26503" lon="5.61806">
        <ele>1175.848</ele>
        <time>2019-04-27T08:53:04Z</time>
      </trkpt>
      <trkpt lat="44.26483" lon="5.61813">
        <ele>1176.921</ele>
        <time>2019-04-27T08:53:15Z</time>
      </trkpt>
      <trkpt lat="44.26471" lon="5.61833">
        <ele>1177.547</ele>
        <time>2019-04-27T08:53:26Z</time>
      </trkpt>
      <trkpt lat="44.2646" lon="5.61853">
        <ele>1178.177</ele>
        <time>2019-04-27T08:53:36Z</time>
      </trkpt>
      <trkpt lat="44.26449" lon="5.61874">
        <ele>1179.66</ele>
        <time>2019-04-27T08:53:47Z</time>
      </trkpt>
      <trkpt lat="44.26438" lon="5.61902">
        <ele>1181.627</ele>
        <time>2019-04-27T08:53:58Z</time>
      </trkpt>
      <trkpt lat="44.26428" lon="5.61933">
        <ele>1183.146</ele>
        <time>2019-04-27T08:54:09Z</time>
      </trkpt>
      <trkpt lat="44.26422" lon="5.61957">
        <ele>1184.62</ele>
        <time>2019-04-27T08:54:20Z</time>
      </trkpt>
      <trkpt lat="44.26413" lon="5.61978">
        <ele>1186.54</ele>
        <time>2019-04-27T08:54:30Z</time>
      </trkpt>
      <trkpt lat="44.264" lon="5.61996">
        <ele>1188.217</ele>
        <time>2019-04-27T08:54:41Z</time>
      </trkpt>
      <trkpt lat="44.26386" lon="5.62008">
        <ele>1189.397</ele>
        <time>2019-04-27T08:54:51Z</time>
      </trkpt>
      <trkpt lat="44.2637" lon="5.62021">
        <ele>1190.94</ele>
        <time>2019-04-27T08:55:02Z</time>
      </trkpt>
      <trkpt lat="44.26353" lon="5.62035">
        <ele>1192.672</ele>
        <time>2019-04-27T08:55:13Z</time>
      </trkpt>
      <trkpt lat="44.26336" lon="5.62051">
        <ele>1194.264</ele>
        <time>2019-04-27T08:55:24Z</time>
      </trkpt>
      <trkpt lat="44.26321" lon="5.62071">
        <ele>1195.714</ele>
        <time>2019-04-27T08:55:35Z</time>
      </trkpt>
      <trkpt lat="44.26306" lon="5.62084">
        <ele>1197.104</ele>
        <time>2019-04-27T08:55:45Z</time>
      </trkpt>
      <trkpt lat="44.26289" lon="5.62104">
        <ele>1198.889</ele>
        <time>2019-04-27T08:55:56Z</time>
      </trkpt>
      <trkpt lat="44.26273" lon="5.62126">
        <ele>1200.808</ele>
        <time>2019-04-27T08:56:07Z</time>
      </trkpt>
      <trkpt lat="44.26263" lon="5.6215">
        <ele>1202.27</ele>
        <time>2019-04-27T08:56:17Z</time>
      </trkpt>
      <trkpt lat="44.26251" lon="5.62174">
        <ele>1203.98</ele>
        <time>2019-04-27T08:56:28Z</time>
      </trkpt>
      <trkpt lat="44.26244" lon="5.62199">
        <ele>1205.242</ele>
        <time>2019-04-27T08:56:38Z</time>
      </trkpt>
      <trkpt lat="44.26244" lon="5.622">
        <ele>1205.602</ele>
        <time>2019-04-27T08:56:48Z</time>
      </trkpt>
      <trkpt lat="44.26244" lon="5.622">
        <ele>1205.768</ele>
        <time>2019-04-27T08:56:59Z</time>
      </trkpt>
      <trkpt lat="44.26243" lon="5.622">
        <ele>1205.854</ele>
        <time>2019-04-27T08:57:09Z</time>
      </trkpt>
      <trkpt lat="44.26244" lon="5.622">
        <ele>1205.853</ele>
        <time>2019-04-27T08:57:20Z</time>
      </trkpt>
      <trkpt lat="44.26244" lon="5.62199">
        <ele>1205.831</ele>
        <time>2019-04-27T08:57:30Z</time>
      </trkpt>
      <trkpt lat="44.26244" lon="5.62199">
        <ele>1205.788</ele>
        <time>2019-04-27T08:57:41Z</time>
      </trkpt>
      <trkpt lat="44.26245" lon="5.62199">
        <ele>1205.721</ele>
        <time>2019-04-27T08:57:52Z</time>
      </trkpt>
      <trkpt lat="44.26245" lon="5.62199">
        <ele>1205.67</ele>
        <time>2019-04-27T08:58:03Z</time>
      </trkpt>
      <trkpt lat="44.26245" lon="5.62199">
        <ele>1205.653</ele>
        <time>2019-04-27T08:58:14Z</time>
      </trkpt>
      <trkpt lat="44.26246" lon="5.62199">
        <ele>1205.708</ele>
        <time>2019-04-27T08:58:24Z</time>
      </trkpt>
      <trkpt lat="44.26246" lon="5.62199">
        <ele>1205.787</ele>
        <time>2019-04-27T08:58:35Z</time>
      </trkpt>
      <trkpt lat="44.26246" lon="5.622">
        <ele>1205.869</ele>
        <time>2019-04-27T08:58:46Z</time>
      </trkpt>
      <trkpt lat="44.26246" lon="5.622">
        <ele>1205.948</ele>
        <time>2019-04-27T08:58:56Z</time>
      </trkpt>
      <trkpt lat="44.26246" lon="5.622">
        <ele>1206.039</ele>
        <time>2019-04-27T08:59:07Z</time>
      </trkpt>
      <trkpt lat="44.26245" lon="5.622">
        <ele>1206.138</ele>
        <time>2019-04-27T08:59:18Z</time>
      </trkpt>
      <trkpt lat="44.26245" lon="5.622">
        <ele>1206.236</ele>
        <time>2019-04-27T08:59:29Z</time>
      </trkpt>
      <trkpt lat="44.26245" lon="5.622">
        <ele>1206.328</ele>
        <time>2019-04-27T08:59:40Z</time>
      </trkpt>
      <trkpt lat="44.26244" lon="5.62198">
        <ele>1206.588</ele>
        <time>2019-04-27T08:59:51Z</time>
      </trkpt>
      <trkpt lat="44.26245" lon="5.62196">
        <ele>1206.672</ele>
        <time>2019-04-27T09:00:01Z</time>
      </trkpt>
      <trkpt lat="44.26246" lon="5.62195">
        <ele>1206.721</ele>
        <time>2019-04-27T09:00:12Z</time>
      </trkpt>
      <trkpt lat="44.26246" lon="5.62195">
        <ele>1206.717</ele>
        <time>2019-04-27T09:00:22Z</time>
      </trkpt>
      <trkpt lat="44.26242" lon="5.62192">
        <ele>1206.895</ele>
        <time>2019-04-27T09:00:32Z</time>
      </trkpt>
      <trkpt lat="44.26226" lon="5.62187">
        <ele>1207.061</ele>
        <time>2019-04-27T09:00:43Z</time>
      </trkpt>
      <trkpt lat="44.2623" lon="5.62184">
        <ele>1207.181</ele>
        <time>2019-04-27T09:00:54Z</time>
      </trkpt>
      <trkpt lat="44.26231" lon="5.62185">
        <ele>1207.514</ele>
        <time>2019-04-27T09:01:05Z</time>
      </trkpt>
      <trkpt lat="44.26231" lon="5.62186">
        <ele>1207.182</ele>
        <time>2019-04-27T09:01:16Z</time>
      </trkpt>
      <trkpt lat="44.26233" lon="5.62187">
        <ele>1207.251</ele>
        <time>2019-04-27T09:01:27Z</time>
      </trkpt>
      <trkpt lat="44.2623" lon="5.62183">
        <ele>1207.928</ele>
        <time>2019-04-27T09:01:37Z</time>
      </trkpt>
      <trkpt lat="44.2623" lon="5.62181">
        <ele>1208.571</ele>
        <time>2019-04-27T09:01:48Z</time>
      </trkpt>
      <trkpt lat="44.2623" lon="5.62182">
        <ele>1208.685</ele>
        <time>2019-04-27T09:01:58Z</time>
      </trkpt>
      <trkpt lat="44.26229" lon="5.62182">
        <ele>1208.738</ele>
        <time>2019-04-27T09:02:09Z</time>
      </trkpt>
      <trkpt lat="44.26229" lon="5.62183">
        <ele>1208.76</ele>
        <time>2019-04-27T09:02:20Z</time>
      </trkpt>
      <trkpt lat="44.26229" lon="5.62183">
        <ele>1208.755</ele>
        <time>2019-04-27T09:02:31Z</time>
      </trkpt>
      <trkpt lat="44.26229" lon="5.62183">
        <ele>1208.747</ele>
        <time>2019-04-27T09:02:42Z</time>
      </trkpt>
      <trkpt lat="44.26229" lon="5.62183">
        <ele>1208.748</ele>
        <time>2019-04-27T09:02:53Z</time>
      </trkpt>
      <trkpt lat="44.26229" lon="5.62183">
        <ele>1208.72</ele>
        <time>2019-04-27T09:03:04Z</time>
      </trkpt>
      <trkpt lat="44.26229" lon="5.62184">
        <ele>1208.712</ele>
        <time>2019-04-27T09:03:15Z</time>
      </trkpt>
      <trkpt lat="44.26229" lon="5.62185">
        <ele>1208.814</ele>
        <time>2019-04-27T09:03:25Z</time>
      </trkpt>
      <trkpt lat="44.26228" lon="5.62186">
        <ele>1208.871</ele>
        <time>2019-04-27T09:03:36Z</time>
      </trkpt>
      <trkpt lat="44.26228" lon="5.62185">
        <ele>1208.894</ele>
        <time>2019-04-27T09:03:47Z</time>
      </trkpt>
      <trkpt lat="44.26228" lon="5.62186">
        <ele>1209.01</ele>
        <time>2019-04-27T09:03:57Z</time>
      </trkpt>
      <trkpt lat="44.26227" lon="5.62186">
        <ele>1209.13</ele>
        <time>2019-04-27T09:04:08Z</time>
      </trkpt>
      <trkpt lat="44.26226" lon="5.62183">
        <ele>1209.5</ele>
        <time>2019-04-27T09:04:18Z</time>
      </trkpt>
      <trkpt lat="44.26229" lon="5.62192">
        <ele>1209.078</ele>
        <time>2019-04-27T09:04:29Z</time>
      </trkpt>
      <trkpt lat="44.26238" lon="5.62195">
        <ele>1208.823</ele>
        <time>2019-04-27T09:04:39Z</time>
      </trkpt>
      <trkpt lat="44.26243" lon="5.62199">
        <ele>1208.681</ele>
        <time>2019-04-27T09:04:50Z</time>
      </trkpt>
      <trkpt lat="44.26244" lon="5.62199">
        <ele>1208.688</ele>
        <time>2019-04-27T09:05:01Z</time>
      </trkpt>
      <trkpt lat="44.26244" lon="5.62199">
        <ele>1208.717</ele>
        <time>2019-04-27T09:05:11Z</time>
      </trkpt>
      <trkpt lat="44.26244" lon="5.62199">
        <ele>1208.749</ele>
        <time>2019-04-27T09:05:21Z</time>
      </trkpt>
      <trkpt lat="44.26243" lon="5.622">
        <ele>1208.741</ele>
        <time>2019-04-27T09:05:32Z</time>
      </trkpt>
      <trkpt lat="44.26243" lon="5.62201">
        <ele>1208.737</ele>
        <time>2019-04-27T09:05:42Z</time>
      </trkpt>
      <trkpt lat="44.26237" lon="5.62194">
        <ele>1208.58</ele>
        <time>2019-04-27T09:05:53Z</time>
      </trkpt>
      <trkpt lat="44.26236" lon="5.62196">
        <ele>1208.324</ele>
        <time>2019-04-27T09:06:03Z</time>
      </trkpt>
      <trkpt lat="44.26245" lon="5.622">
        <ele>1207.887</ele>
        <time>2019-04-27T09:06:13Z</time>
      </trkpt>
      <trkpt lat="44.26244" lon="5.62198">
        <ele>1208.202</ele>
        <time>2019-04-27T09:06:24Z</time>
      </trkpt>
      <trkpt lat="44.26243" lon="5.62198">
        <ele>1208.51</ele>
        <time>2019-04-27T09:06:35Z</time>
      </trkpt>
      <trkpt lat="44.26243" lon="5.62199">
        <ele>1208.59</ele>
        <time>2019-04-27T09:06:47Z</time>
      </trkpt>
      <trkpt lat="44.26245" lon="5.62199">
        <ele>1208.663</ele>
        <time>2019-04-27T09:06:57Z</time>
      </trkpt>
      <trkpt lat="44.26245" lon="5.62199">
        <ele>1208.715</ele>
        <time>2019-04-27T09:07:07Z</time>
      </trkpt>
      <trkpt lat="44.26245" lon="5.62199">
        <ele>1208.753</ele>
        <time>2019-04-27T09:07:18Z</time>
      </trkpt>
      <trkpt lat="44.26245" lon="5.62198">
        <ele>1208.789</ele>
        <time>2019-04-27T09:07:28Z</time>
      </trkpt>
      <trkpt lat="44.26245" lon="5.62199">
        <ele>1208.806</ele>
        <time>2019-04-27T09:07:39Z</time>
      </trkpt>
      <trkpt lat="44.26245" lon="5.62198">
        <ele>1208.818</ele>
        <time>2019-04-27T09:07:49Z</time>
      </trkpt>
      <trkpt lat="44.26245" lon="5.62199">
        <ele>1208.812</ele>
        <time>2019-04-27T09:08:00Z</time>
      </trkpt>
      <trkpt lat="44.26246" lon="5.62199">
        <ele>1208.81</ele>
        <time>2019-04-27T09:08:11Z</time>
      </trkpt>
      <trkpt lat="44.26246" lon="5.622">
        <ele>1208.82</ele>
        <time>2019-04-27T09:08:21Z</time>
      </trkpt>
      <trkpt lat="44.26246" lon="5.622">
        <ele>1208.823</ele>
        <time>2019-04-27T09:08:32Z</time>
      </trkpt>
      <trkpt lat="44.26246" lon="5.622">
        <ele>1208.787</ele>
        <time>2019-04-27T09:08:42Z</time>
      </trkpt>
      <trkpt lat="44.26246" lon="5.622">
        <ele>1208.742</ele>
        <time>2019-04-27T09:08:52Z</time>
      </trkpt>
      <trkpt lat="44.26246" lon="5.622">
        <ele>1208.695</ele>
        <time>2019-04-27T09:09:02Z</time>
      </trkpt>
      <trkpt lat="44.26246" lon="5.622">
        <ele>1208.693</ele>
        <time>2019-04-27T09:09:13Z</time>
      </trkpt>
      <trkpt lat="44.26245" lon="5.622">
        <ele>1208.729</ele>
        <time>2019-04-27T09:09:24Z</time>
      </trkpt>
      <trkpt lat="44.26245" lon="5.622">
        <ele>1208.761</ele>
        <time>2019-04-27T09:09:34Z</time>
      </trkpt>
      <trkpt lat="44.26245" lon="5.62201">
        <ele>1208.823</ele>
        <time>2019-04-27T09:09:45Z</time>
      </trkpt>
      <trkpt lat="44.26245" lon="5.62201">
        <ele>1208.898</ele>
        <time>2019-04-27T09:09:56Z</time>
      </trkpt>
      <trkpt lat="44.26245" lon="5.62201">
        <ele>1208.974</ele>
        <time>2019-04-27T09:10:07Z</time>
      </trkpt>
      <trkpt lat="44.26245" lon="5.62201">
        <ele>1209.092</ele>
        <time>2019-04-27T09:10:18Z</time>
      </trkpt>
      <trkpt lat="44.26245" lon="5.62201">
        <ele>1209.142</ele>
        <time>2019-04-27T09:10:29Z</time>
      </trkpt>
      <trkpt lat="44.26244" lon="5.62201">
        <ele>1209.241</ele>
        <time>2019-04-27T09:10:40Z</time>
      </trkpt>
      <trkpt lat="44.26226" lon="5.62191">
        <ele>1209.057</ele>
        <time>2019-04-27T09:10:50Z</time>
      </trkpt>
      <trkpt lat="44.26173" lon="5.62156">
        <ele>1209.94</ele>
        <time>2019-04-27T09:11:01Z</time>
      </trkpt>
      <trkpt lat="44.26201" lon="5.62158">
        <ele>1208.398</ele>
        <time>2019-04-27T09:11:12Z</time>
      </trkpt>
      <trkpt lat="44.26205" lon="5.62157">
        <ele>1207.962</ele>
        <time>2019-04-27T09:11:22Z</time>
      </trkpt>
      <trkpt lat="44.26205" lon="5.62157">
        <ele>1207.916</ele>
        <time>2019-04-27T09:11:33Z</time>
      </trkpt>
      <trkpt lat="44.26205" lon="5.62157">
        <ele>1207.947</ele>
        <time>2019-04-27T09:11:44Z</time>
      </trkpt>
      <trkpt lat="44.26205" lon="5.62157">
        <ele>1207.977</ele>
        <time>2019-04-27T09:11:54Z</time>
      </trkpt>
      <trkpt lat="44.26205" lon="5.62157">
        <ele>1207.985</ele>
        <time>2019-04-27T09:12:04Z</time>
      </trkpt>
      <trkpt lat="44.26205" lon="5.62157">
        <ele>1207.969</ele>
        <time>2019-04-27T09:12:15Z</time>
      </trkpt>
      <trkpt lat="44.26205" lon="5.62157">
        <ele>1207.934</ele>
        <time>2019-04-27T09:12:25Z</time>
      </trkpt>
      <trkpt lat="44.26205" lon="5.62157">
        <ele>1207.867</ele>
        <time>2019-04-27T09:12:36Z</time>
      </trkpt>
      <trkpt lat="44.26205" lon="5.62157">
        <ele>1207.819</ele>
        <time>2019-04-27T09:12:46Z</time>
      </trkpt>
      <trkpt lat="44.26205" lon="5.62157">
        <ele>1207.765</ele>
        <time>2019-04-27T09:12:57Z</time>
      </trkpt>
      <trkpt lat="44.26205" lon="5.62157">
        <ele>1207.709</ele>
        <time>2019-04-27T09:13:08Z</time>
      </trkpt>
      <trkpt lat="44.26205" lon="5.62157">
        <ele>1207.661</ele>
        <time>2019-04-27T09:13:18Z</time>
      </trkpt>
      <trkpt lat="44.26205" lon="5.62157">
        <ele>1207.612</ele>
        <time>2019-04-27T09:13:29Z</time>
      </trkpt>
      <trkpt lat="44.26205" lon="5.62157">
        <ele>1207.565</ele>
        <time>2019-04-27T09:13:40Z</time>
      </trkpt>
      <trkpt lat="44.26205" lon="5.62157">
        <ele>1207.51</ele>
        <time>2019-04-27T09:13:51Z</time>
      </trkpt>
      <trkpt lat="44.26205" lon="5.62157">
        <ele>1207.456</ele>
        <time>2019-04-27T09:14:02Z</time>
      </trkpt>
      <trkpt lat="44.26205" lon="5.62157">
        <ele>1207.26</ele>
        <time>2019-04-27T09:14:12Z</time>
      </trkpt>
      <trkpt lat="44.26228" lon="5.62105">
        <ele>1204.988</ele>
        <time>2019-04-27T09:14:22Z</time>
      </trkpt>
      <trkpt lat="44.2622" lon="5.62016">
        <ele>1202.906</ele>
        <time>2019-04-27T09:14:33Z</time>
      </trkpt>
      <trkpt lat="44.26217" lon="5.62011">
        <ele>1202.463</ele>
        <time>2019-04-27T09:14:43Z</time>
      </trkpt>
      <trkpt lat="44.26216" lon="5.62007">
        <ele>1200.012</ele>
        <time>2019-04-27T09:14:53Z</time>
      </trkpt>
      <trkpt lat="44.26216" lon="5.62007">
        <ele>1199.921</ele>
        <time>2019-04-27T09:15:03Z</time>
      </trkpt>
      <trkpt lat="44.26216" lon="5.62007">
        <ele>1199.822</ele>
        <time>2019-04-27T09:15:14Z</time>
      </trkpt>
      <trkpt lat="44.26216" lon="5.62007">
        <ele>1199.724</ele>
        <time>2019-04-27T09:15:25Z</time>
      </trkpt>
      <trkpt lat="44.26216" lon="5.62007">
        <ele>1199.62</ele>
        <time>2019-04-27T09:15:36Z</time>
      </trkpt>
      <trkpt lat="44.26216" lon="5.62007">
        <ele>1199.52</ele>
        <time>2019-04-27T09:15:47Z</time>
      </trkpt>
      <trkpt lat="44.26217" lon="5.61985">
        <ele>1197.746</ele>
        <time>2019-04-27T09:15:58Z</time>
      </trkpt>
      <trkpt lat="44.26194" lon="5.61902">
        <ele>1193.779</ele>
        <time>2019-04-27T09:16:08Z</time>
      </trkpt>
      <trkpt lat="44.26155" lon="5.61783">
        <ele>1190.937</ele>
        <time>2019-04-27T09:16:18Z</time>
      </trkpt>
      <trkpt lat="44.26073" lon="5.61713">
        <ele>1187.544</ele>
        <time>2019-04-27T09:16:28Z</time>
      </trkpt>
      <trkpt lat="44.2598" lon="5.61634">
        <ele>1182.416</ele>
        <time>2019-04-27T09:16:39Z</time>
      </trkpt>
      <trkpt lat="44.25869" lon="5.61692">
        <ele>1176.176</ele>
        <time>2019-04-27T09:16:50Z</time>
      </trkpt>
      <trkpt lat="44.25765" lon="5.61713">
        <ele>1167.832</ele>
        <time>2019-04-27T09:17:01Z</time>
      </trkpt>
      <trkpt lat="44.25838" lon="5.6175">
        <ele>1157.598</ele>
        <time>2019-04-27T09:17:12Z</time>
      </trkpt>
      <trkpt lat="44.25927" lon="5.61787">
        <ele>1147.963</ele>
        <time>2019-04-27T09:17:23Z</time>
      </trkpt>
      <trkpt lat="44.25942" lon="5.61928">
        <ele>1140.376</ele>
        <time>2019-04-27T09:17:33Z</time>
      </trkpt>
      <trkpt lat="44.25893" lon="5.62042">
        <ele>1129.96</ele>
        <time>2019-04-27T09:17:44Z</time>
      </trkpt>
      <trkpt lat="44.25797" lon="5.62165">
        <ele>1120.42</ele>
        <time>2019-04-27T09:17:55Z</time>
      </trkpt>
      <trkpt lat="44.25696" lon="5.62207">
        <ele>1113.042</ele>
        <time>2019-04-27T09:18:06Z</time>
      </trkpt>
      <trkpt lat="44.25693" lon="5.62162">
        <ele>1106.312</ele>
        <time>2019-04-27T09:18:16Z</time>
      </trkpt>
      <trkpt lat="44.25722" lon="5.62023">
        <ele>1096.761</ele>
        <time>2019-04-27T09:18:27Z</time>
      </trkpt>
      <trkpt lat="44.257" lon="5.61977">
        <ele>1088.339</ele>
        <time>2019-04-27T09:18:38Z</time>
      </trkpt>
      <trkpt lat="44.25584" lon="5.61991">
        <ele>1080.398</ele>
        <time>2019-04-27T09:18:49Z</time>
      </trkpt>
      <trkpt lat="44.25495" lon="5.62015">
        <ele>1071.742</ele>
        <time>2019-04-27T09:18:59Z</time>
      </trkpt>
      <trkpt lat="44.25559" lon="5.62039">
        <ele>1063.346</ele>
        <time>2019-04-27T09:19:10Z</time>
      </trkpt>
      <trkpt lat="44.25478" lon="5.62048">
        <ele>1055.917</ele>
        <time>2019-04-27T09:19:20Z</time>
      </trkpt>
      <trkpt lat="44.25362" lon="5.62021">
        <ele>1048.296</ele>
        <time>2019-04-27T09:19:31Z</time>
      </trkpt>
      <trkpt lat="44.25235" lon="5.62058">
        <ele>1036.931</ele>
        <time>2019-04-27T09:19:42Z</time>
      </trkpt>
      <trkpt lat="44.25108" lon="5.62048">
        <ele>1025.685</ele>
        <time>2019-04-27T09:19:53Z</time>
      </trkpt>
      <trkpt lat="44.2505" lon="5.61956">
        <ele>1011.347</ele>
        <time>2019-04-27T09:20:04Z</time>
      </trkpt>
      <trkpt lat="44.25051" lon="5.61909">
        <ele>1007.547</ele>
        <time>2019-04-27T09:20:15Z</time>
      </trkpt>
      <trkpt lat="44.25051" lon="5.61909">
        <ele>1006.586</ele>
        <time>2019-04-27T09:20:27Z</time>
      </trkpt>
      <trkpt lat="44.25051" lon="5.61909">
        <ele>1005.553</ele>
        <time>2019-04-27T09:20:37Z</time>
      </trkpt>
      <trkpt lat="44.25046" lon="5.61881">
        <ele>997.098</ele>
        <time>2019-04-27T09:20:48Z</time>
      </trkpt>
      <trkpt lat="44.25083" lon="5.61795">
        <ele>986.267</ele>
        <time>2019-04-27T09:20:58Z</time>
      </trkpt>
      <trkpt lat="44.2503" lon="5.61764">
        <ele>982.988</ele>
        <time>2019-04-27T09:21:08Z</time>
      </trkpt>
      <trkpt lat="44.24959" lon="5.61657">
        <ele>977.074</ele>
        <time>2019-04-27T09:21:19Z</time>
      </trkpt>
      <trkpt lat="44.24955" lon="5.61551">
        <ele>968.925</ele>
        <time>2019-04-27T09:21:30Z</time>
      </trkpt>
      <trkpt lat="44.24855" lon="5.61521">
        <ele>960.796</ele>
        <time>2019-04-27T09:21:41Z</time>
      </trkpt>
      <trkpt lat="44.24801" lon="5.61408">
        <ele>951.189</ele>
        <time>2019-04-27T09:21:51Z</time>
      </trkpt>
      <trkpt lat="44.24732" lon="5.6131">
        <ele>943.112</ele>
        <time>2019-04-27T09:22:01Z</time>
      </trkpt>
      <trkpt lat="44.24718" lon="5.61157">
        <ele>935.382</ele>
        <time>2019-04-27T09:22:11Z</time>
      </trkpt>
      <trkpt lat="44.24709" lon="5.6104">
        <ele>929.506</ele>
        <time>2019-04-27T09:22:22Z</time>
      </trkpt>
      <trkpt lat="44.24693" lon="5.61154">
        <ele>921.961</ele>
        <time>2019-04-27T09:22:33Z</time>
      </trkpt>
      <trkpt lat="44.24679" lon="5.61305">
        <ele>915.833</ele>
        <time>2019-04-27T09:22:44Z</time>
      </trkpt>
      <trkpt lat="44.24702" lon="5.61447">
        <ele>909.788</ele>
        <time>2019-04-27T09:22:54Z</time>
      </trkpt>
      <trkpt lat="44.24679" lon="5.6156">
        <ele>902.972</ele>
        <time>2019-04-27T09:23:05Z</time>
      </trkpt>
      <trkpt lat="44.24639" lon="5.61483">
        <ele>897.575</ele>
        <time>2019-04-27T09:23:15Z</time>
      </trkpt>
      <trkpt lat="44.24589" lon="5.61365">
        <ele>891.368</ele>
        <time>2019-04-27T09:23:26Z</time>
      </trkpt>
      <trkpt lat="44.24556" lon="5.61221">
        <ele>885.052</ele>
        <time>2019-04-27T09:23:37Z</time>
      </trkpt>
      <trkpt lat="44.24505" lon="5.61114">
        <ele>878.765</ele>
        <time>2019-04-27T09:23:48Z</time>
      </trkpt>
      <trkpt lat="44.24429" lon="5.61012">
        <ele>873.491</ele>
        <time>2019-04-27T09:23:59Z</time>
      </trkpt>
      <trkpt lat="44.24354" lon="5.60945">
        <ele>868.32</ele>
        <time>2019-04-27T09:24:09Z</time>
      </trkpt>
      <trkpt lat="44.24261" lon="5.60896">
        <ele>860.915</ele>
        <time>2019-04-27T09:24:20Z</time>
      </trkpt>
      <trkpt lat="44.24225" lon="5.60834">
        <ele>855.033</ele>
        <time>2019-04-27T09:24:31Z</time>
      </trkpt>
      <trkpt lat="44.24145" lon="5.60812">
        <ele>848.902</ele>
        <time>2019-04-27T09:24:42Z</time>
      </trkpt>
      <trkpt lat="44.24127" lon="5.60811">
        <ele>848.378</ele>
        <time>2019-04-27T09:24:53Z</time>
      </trkpt>
      <trkpt lat="44.24118" lon="5.60813">
        <ele>847.426</ele>
        <time>2019-04-27T09:25:04Z</time>
      </trkpt>
      <trkpt lat="44.2408" lon="5.6081">
        <ele>842.548</ele>
        <time>2019-04-27T09:25:14Z</time>
      </trkpt>
      <trkpt lat="44.24023" lon="5.60806">
        <ele>840.03</ele>
        <time>2019-04-27T09:25:25Z</time>
      </trkpt>
      <trkpt lat="44.23976" lon="5.60809">
        <ele>839.519</ele>
        <time>2019-04-27T09:25:36Z</time>
      </trkpt>
      <trkpt lat="44.23928" lon="5.60764">
        <ele>839.859</ele>
        <time>2019-04-27T09:25:47Z</time>
      </trkpt>
      <trkpt lat="44.23886" lon="5.60741">
        <ele>837.973</ele>
        <time>2019-04-27T09:25:57Z</time>
      </trkpt>
      <trkpt lat="44.23829" lon="5.60706">
        <ele>835.44</ele>
        <time>2019-04-27T09:26:08Z</time>
      </trkpt>
      <trkpt lat="44.2382" lon="5.60699">
        <ele>835.212</ele>
        <time>2019-04-27T09:26:18Z</time>
      </trkpt>
      <trkpt lat="44.2382" lon="5.60699">
        <ele>834.279</ele>
        <time>2019-04-27T09:26:28Z</time>
      </trkpt>
      <trkpt lat="44.2382" lon="5.60699">
        <ele>834.06</ele>
        <time>2019-04-27T09:26:39Z</time>
      </trkpt>
      <trkpt lat="44.2382" lon="5.60699">
        <ele>833.891</ele>
        <time>2019-04-27T09:26:50Z</time>
      </trkpt>
      <trkpt lat="44.23805" lon="5.60694">
        <ele>833.066</ele>
        <time>2019-04-27T09:27:00Z</time>
      </trkpt>
      <trkpt lat="44.23758" lon="5.6068">
        <ele>828.796</ele>
        <time>2019-04-27T09:27:11Z</time>
      </trkpt>
      <trkpt lat="44.23695" lon="5.60683">
        <ele>826.726</ele>
        <time>2019-04-27T09:27:21Z</time>
      </trkpt>
      <trkpt lat="44.23659" lon="5.60689">
        <ele>826.34</ele>
        <time>2019-04-27T09:27:32Z</time>
      </trkpt>
      <trkpt lat="44.23609" lon="5.60713">
        <ele>825.694</ele>
        <time>2019-04-27T09:27:43Z</time>
      </trkpt>
      <trkpt lat="44.23553" lon="5.60756">
        <ele>824.534</ele>
        <time>2019-04-27T09:27:53Z</time>
      </trkpt>
      <trkpt lat="44.23504" lon="5.60823">
        <ele>823.46</ele>
        <time>2019-04-27T09:28:03Z</time>
      </trkpt>
      <trkpt lat="44.23457" lon="5.60892">
        <ele>824.415</ele>
        <time>2019-04-27T09:28:14Z</time>
      </trkpt>
      <trkpt lat="44.234" lon="5.6096">
        <ele>821.203</ele>
        <time>2019-04-27T09:28:25Z</time>
      </trkpt>
      <trkpt lat="44.23357" lon="5.60978">
        <ele>818.781</ele>
        <time>2019-04-27T09:28:35Z</time>
      </trkpt>
      <trkpt lat="44.23355" lon="5.60983">
        <ele>817.83</ele>
        <time>2019-04-27T09:28:45Z</time>
      </trkpt>
      <trkpt lat="44.23356" lon="5.60982">
        <ele>817.232</ele>
        <time>2019-04-27T09:28:56Z</time>
      </trkpt>
      <trkpt lat="44.23356" lon="5.60982">
        <ele>817.212</ele>
        <time>2019-04-27T09:29:06Z</time>
      </trkpt>
      <trkpt lat="44.23356" lon="5.60982">
        <ele>816.845</ele>
        <time>2019-04-27T09:29:17Z</time>
      </trkpt>
      <trkpt lat="44.23326" lon="5.60992">
        <ele>815.166</ele>
        <time>2019-04-27T09:29:27Z</time>
      </trkpt>
      <trkpt lat="44.23282" lon="5.61037">
        <ele>805.043</ele>
        <time>2019-04-27T09:29:38Z</time>
      </trkpt>
      <trkpt lat="44.23221" lon="5.61042">
        <ele>796.193</ele>
        <time>2019-04-27T09:29:49Z</time>
      </trkpt>
      <trkpt lat="44.23141" lon="5.61063">
        <ele>800.818</ele>
        <time>2019-04-27T09:30:00Z</time>
      </trkpt>
      <trkpt lat="44.23062" lon="5.61046">
        <ele>803.058</ele>
        <time>2019-04-27T09:30:11Z</time>
      </trkpt>
      <trkpt lat="44.23002" lon="5.61017">
        <ele>803.73</ele>
        <time>2019-04-27T09:30:21Z</time>
      </trkpt>
      <trkpt lat="44.2294" lon="5.60988">
        <ele>804.215</ele>
        <time>2019-04-27T09:30:31Z</time>
      </trkpt>
      <trkpt lat="44.22852" lon="5.60991">
        <ele>803.9</ele>
        <time>2019-04-27T09:30:42Z</time>
      </trkpt>
      <trkpt lat="44.22763" lon="5.60993">
        <ele>802.452</ele>
        <time>2019-04-27T09:30:53Z</time>
      </trkpt>
      <trkpt lat="44.22689" lon="5.60968">
        <ele>800.676</ele>
        <time>2019-04-27T09:31:03Z</time>
      </trkpt>
      <trkpt lat="44.22611" lon="5.60957">
        <ele>800.926</ele>
        <time>2019-04-27T09:31:14Z</time>
      </trkpt>
      <trkpt lat="44.22544" lon="5.60941">
        <ele>801.899</ele>
        <time>2019-04-27T09:31:25Z</time>
      </trkpt>
      <trkpt lat="44.22488" lon="5.60919">
        <ele>802.806</ele>
        <time>2019-04-27T09:31:36Z</time>
      </trkpt>
      <trkpt lat="44.2245" lon="5.60879">
        <ele>801.324</ele>
        <time>2019-04-27T09:31:46Z</time>
      </trkpt>
      <trkpt lat="44.22393" lon="5.60865">
        <ele>798.258</ele>
        <time>2019-04-27T09:31:57Z</time>
      </trkpt>
      <trkpt lat="44.22341" lon="5.60916">
        <ele>796.428</ele>
        <time>2019-04-27T09:32:07Z</time>
      </trkpt>
      <trkpt lat="44.22272" lon="5.60885">
        <ele>793.894</ele>
        <time>2019-04-27T09:32:17Z</time>
      </trkpt>
      <trkpt lat="44.22201" lon="5.60857">
        <ele>792.36</ele>
        <time>2019-04-27T09:32:28Z</time>
      </trkpt>
      <trkpt lat="44.22134" lon="5.60867">
        <ele>790.388</ele>
        <time>2019-04-27T09:32:39Z</time>
      </trkpt>
      <trkpt lat="44.22112" lon="5.60786">
        <ele>788.272</ele>
        <time>2019-04-27T09:32:50Z</time>
      </trkpt>
      <trkpt lat="44.22119" lon="5.60711">
        <ele>786.621</ele>
        <time>2019-04-27T09:33:01Z</time>
      </trkpt>
      <trkpt lat="44.22131" lon="5.60644">
        <ele>785.658</ele>
        <time>2019-04-27T09:33:11Z</time>
      </trkpt>
      <trkpt lat="44.2214" lon="5.60575">
        <ele>785.018</ele>
        <time>2019-04-27T09:33:22Z</time>
      </trkpt>
      <trkpt lat="44.22141" lon="5.60512">
        <ele>784.535</ele>
        <time>2019-04-27T09:33:33Z</time>
      </trkpt>
      <trkpt lat="44.22137" lon="5.60458">
        <ele>783.666</ele>
        <time>2019-04-27T09:33:43Z</time>
      </trkpt>
      <trkpt lat="44.22127" lon="5.60399">
        <ele>782.561</ele>
        <time>2019-04-27T09:33:54Z</time>
      </trkpt>
      <trkpt lat="44.2212" lon="5.60341">
        <ele>783.249</ele>
        <time>2019-04-27T09:34:05Z</time>
      </trkpt>
      <trkpt lat="44.22128" lon="5.60289">
        <ele>783.95</ele>
        <time>2019-04-27T09:34:15Z</time>
      </trkpt>
      <trkpt lat="44.22131" lon="5.60229">
        <ele>785.236</ele>
        <time>2019-04-27T09:34:26Z</time>
      </trkpt>
      <trkpt lat="44.22136" lon="5.60171">
        <ele>785.662</ele>
        <time>2019-04-27T09:34:37Z</time>
      </trkpt>
      <trkpt lat="44.2214" lon="5.60122">
        <ele>785.863</ele>
        <time>2019-04-27T09:34:47Z</time>
      </trkpt>
      <trkpt lat="44.22141" lon="5.60067">
        <ele>786.186</ele>
        <time>2019-04-27T09:34:58Z</time>
      </trkpt>
      <trkpt lat="44.22141" lon="5.6002">
        <ele>786.53</ele>
        <time>2019-04-27T09:35:08Z</time>
      </trkpt>
      <trkpt lat="44.22143" lon="5.59961">
        <ele>788.698</ele>
        <time>2019-04-27T09:35:19Z</time>
      </trkpt>
      <trkpt lat="44.22141" lon="5.59902">
        <ele>789.02</ele>
        <time>2019-04-27T09:35:30Z</time>
      </trkpt>
      <trkpt lat="44.22138" lon="5.59839">
        <ele>789.324</ele>
        <time>2019-04-27T09:35:41Z</time>
      </trkpt>
      <trkpt lat="44.22138" lon="5.59777">
        <ele>788.968</ele>
        <time>2019-04-27T09:35:52Z</time>
      </trkpt>
      <trkpt lat="44.22143" lon="5.59722">
        <ele>788.524</ele>
        <time>2019-04-27T09:36:02Z</time>
      </trkpt>
      <trkpt lat="44.22151" lon="5.59666">
        <ele>788.21</ele>
        <time>2019-04-27T09:36:12Z</time>
      </trkpt>
      <trkpt lat="44.22149" lon="5.59601">
        <ele>787.943</ele>
        <time>2019-04-27T09:36:23Z</time>
      </trkpt>
      <trkpt lat="44.22137" lon="5.59536">
        <ele>787.596</ele>
        <time>2019-04-27T09:36:34Z</time>
      </trkpt>
      <trkpt lat="44.22127" lon="5.59477">
        <ele>787.587</ele>
        <time>2019-04-27T09:36:45Z</time>
      </trkpt>
      <trkpt lat="44.22119" lon="5.59432">
        <ele>787.617</ele>
        <time>2019-04-27T09:36:55Z</time>
      </trkpt>
      <trkpt lat="44.22109" lon="5.59378">
        <ele>788.188</ele>
        <time>2019-04-27T09:37:06Z</time>
      </trkpt>
      <trkpt lat="44.221" lon="5.59319">
        <ele>788.963</ele>
        <time>2019-04-27T09:37:16Z</time>
      </trkpt>
      <trkpt lat="44.22089" lon="5.59254">
        <ele>789.397</ele>
        <time>2019-04-27T09:37:27Z</time>
      </trkpt>
      <trkpt lat="44.22082" lon="5.59202">
        <ele>789.569</ele>
        <time>2019-04-27T09:37:37Z</time>
      </trkpt>
      <trkpt lat="44.2208" lon="5.59151">
        <ele>789.855</ele>
        <time>2019-04-27T09:37:48Z</time>
      </trkpt>
      <trkpt lat="44.22083" lon="5.59102">
        <ele>790.352</ele>
        <time>2019-04-27T09:37:59Z</time>
      </trkpt>
      <trkpt lat="44.22093" lon="5.59051">
        <ele>790.964</ele>
        <time>2019-04-27T09:38:10Z</time>
      </trkpt>
      <trkpt lat="44.22103" lon="5.59007">
        <ele>791.65</ele>
        <time>2019-04-27T09:38:20Z</time>
      </trkpt>
      <trkpt lat="44.22109" lon="5.58953">
        <ele>792.608</ele>
        <time>2019-04-27T09:38:31Z</time>
      </trkpt>
      <trkpt lat="44.22109" lon="5.58896">
        <ele>795.557</ele>
        <time>2019-04-27T09:38:42Z</time>
      </trkpt>
      <trkpt lat="44.22109" lon="5.5884">
        <ele>796.7</ele>
        <time>2019-04-27T09:38:53Z</time>
      </trkpt>
      <trkpt lat="44.22108" lon="5.58787">
        <ele>797.029</ele>
        <time>2019-04-27T09:39:04Z</time>
      </trkpt>
      <trkpt lat="44.22105" lon="5.58732">
        <ele>798.234</ele>
        <time>2019-04-27T09:39:14Z</time>
      </trkpt>
      <trkpt lat="44.22105" lon="5.58676">
        <ele>798.402</ele>
        <time>2019-04-27T09:39:25Z</time>
      </trkpt>
      <trkpt lat="44.22104" lon="5.5863">
        <ele>798.624</ele>
        <time>2019-04-27T09:39:36Z</time>
      </trkpt>
      <trkpt lat="44.22106" lon="5.58586">
        <ele>799.17</ele>
        <time>2019-04-27T09:39:47Z</time>
      </trkpt>
      <trkpt lat="44.22105" lon="5.5854">
        <ele>799.912</ele>
        <time>2019-04-27T09:39:58Z</time>
      </trkpt>
      <trkpt lat="44.22104" lon="5.58496">
        <ele>800.532</ele>
        <time>2019-04-27T09:40:08Z</time>
      </trkpt>
      <trkpt lat="44.22104" lon="5.58451">
        <ele>801.341</ele>
        <time>2019-04-27T09:40:19Z</time>
      </trkpt>
      <trkpt lat="44.22103" lon="5.58405">
        <ele>802.18</ele>
        <time>2019-04-27T09:40:30Z</time>
      </trkpt>
      <trkpt lat="44.22102" lon="5.58362">
        <ele>802.886</ele>
        <time>2019-04-27T09:40:40Z</time>
      </trkpt>
      <trkpt lat="44.22102" lon="5.58314">
        <ele>803.535</ele>
        <time>2019-04-27T09:40:51Z</time>
      </trkpt>
      <trkpt lat="44.22102" lon="5.58256">
        <ele>805.82</ele>
        <time>2019-04-27T09:41:01Z</time>
      </trkpt>
      <trkpt lat="44.22108" lon="5.58185">
        <ele>806.33</ele>
        <time>2019-04-27T09:41:12Z</time>
      </trkpt>
      <trkpt lat="44.22115" lon="5.58121">
        <ele>806.518</ele>
        <time>2019-04-27T09:41:22Z</time>
      </trkpt>
      <trkpt lat="44.22124" lon="5.58048">
        <ele>806.521</ele>
        <time>2019-04-27T09:41:33Z</time>
      </trkpt>
      <trkpt lat="44.22131" lon="5.57972">
        <ele>806.604</ele>
        <time>2019-04-27T09:41:44Z</time>
      </trkpt>
      <trkpt lat="44.22138" lon="5.57908">
        <ele>805.616</ele>
        <time>2019-04-27T09:41:54Z</time>
      </trkpt>
      <trkpt lat="44.22145" lon="5.5784">
        <ele>804.58</ele>
        <time>2019-04-27T09:42:05Z</time>
      </trkpt>
      <trkpt lat="44.22147" lon="5.57787">
        <ele>804.91</ele>
        <time>2019-04-27T09:42:15Z</time>
      </trkpt>
      <trkpt lat="44.22145" lon="5.57732">
        <ele>806.479</ele>
        <time>2019-04-27T09:42:25Z</time>
      </trkpt>
      <trkpt lat="44.22141" lon="5.57675">
        <ele>806.567</ele>
        <time>2019-04-27T09:42:36Z</time>
      </trkpt>
      <trkpt lat="44.22139" lon="5.57623">
        <ele>806.982</ele>
        <time>2019-04-27T09:42:46Z</time>
      </trkpt>
      <trkpt lat="44.22138" lon="5.57564">
        <ele>807.479</ele>
        <time>2019-04-27T09:42:57Z</time>
      </trkpt>
      <trkpt lat="44.22136" lon="5.57505">
        <ele>807.07</ele>
        <time>2019-04-27T09:43:07Z</time>
      </trkpt>
      <trkpt lat="44.22135" lon="5.57439">
        <ele>808.501</ele>
        <time>2019-04-27T09:43:18Z</time>
      </trkpt>
      <trkpt lat="44.22132" lon="5.57374">
        <ele>808.781</ele>
        <time>2019-04-27T09:43:29Z</time>
      </trkpt>
      <trkpt lat="44.22132" lon="5.5732">
        <ele>809.433</ele>
        <time>2019-04-27T09:43:39Z</time>
      </trkpt>
      <trkpt lat="44.22133" lon="5.57306">
        <ele>809.744</ele>
        <time>2019-04-27T09:43:49Z</time>
      </trkpt>
      <trkpt lat="44.22134" lon="5.57308">
        <ele>810.168</ele>
        <time>2019-04-27T09:43:59Z</time>
      </trkpt>
      <trkpt lat="44.22134" lon="5.57308">
        <ele>810.209</ele>
        <time>2019-04-27T09:44:10Z</time>
      </trkpt>
      <trkpt lat="44.22136" lon="5.57298">
        <ele>810.836</ele>
        <time>2019-04-27T09:44:21Z</time>
      </trkpt>
      <trkpt lat="44.22134" lon="5.57302">
        <ele>811.032</ele>
        <time>2019-04-27T09:44:32Z</time>
      </trkpt>
      <trkpt lat="44.22135" lon="5.57303">
        <ele>811.596</ele>
        <time>2019-04-27T09:44:43Z</time>
      </trkpt>
      <trkpt lat="44.22135" lon="5.57303">
        <ele>811.733</ele>
        <time>2019-04-27T09:44:53Z</time>
      </trkpt>
      <trkpt lat="44.22134" lon="5.57303">
        <ele>811.724</ele>
        <time>2019-04-27T09:45:03Z</time>
      </trkpt>
      <trkpt lat="44.22135" lon="5.57305">
        <ele>811.919</ele>
        <time>2019-04-27T09:45:14Z</time>
      </trkpt>
      <trkpt lat="44.22134" lon="5.57305">
        <ele>812.083</ele>
        <time>2019-04-27T09:45:25Z</time>
      </trkpt>
      <trkpt lat="44.22133" lon="5.57305">
        <ele>812.253</ele>
        <time>2019-04-27T09:45:36Z</time>
      </trkpt>
      <trkpt lat="44.22133" lon="5.57305">
        <ele>812.379</ele>
        <time>2019-04-27T09:45:46Z</time>
      </trkpt>
      <trkpt lat="44.22133" lon="5.57306">
        <ele>812.357</ele>
        <time>2019-04-27T09:45:56Z</time>
      </trkpt>
      <trkpt lat="44.22133" lon="5.57307">
        <ele>812.276</ele>
        <time>2019-04-27T09:46:07Z</time>
      </trkpt>
      <trkpt lat="44.22132" lon="5.57305">
        <ele>812.162</ele>
        <time>2019-04-27T09:46:18Z</time>
      </trkpt>
      <trkpt lat="44.22129" lon="5.57266">
        <ele>811.911</ele>
        <time>2019-04-27T09:46:28Z</time>
      </trkpt>
      <trkpt lat="44.22127" lon="5.57203">
        <ele>809.991</ele>
        <time>2019-04-27T09:46:39Z</time>
      </trkpt>
      <trkpt lat="44.22126" lon="5.57139">
        <ele>809.48</ele>
        <time>2019-04-27T09:46:50Z</time>
      </trkpt>
      <trkpt lat="44.22124" lon="5.57085">
        <ele>809.43</ele>
        <time>2019-04-27T09:47:01Z</time>
      </trkpt>
      <trkpt lat="44.22123" lon="5.57033">
        <ele>809.485</ele>
        <time>2019-04-27T09:47:12Z</time>
      </trkpt>
      <trkpt lat="44.22122" lon="5.56981">
        <ele>809.903</ele>
        <time>2019-04-27T09:47:23Z</time>
      </trkpt>
      <trkpt lat="44.22121" lon="5.56935">
        <ele>810.248</ele>
        <time>2019-04-27T09:47:33Z</time>
      </trkpt>
      <trkpt lat="44.22119" lon="5.56884">
        <ele>810.548</ele>
        <time>2019-04-27T09:47:44Z</time>
      </trkpt>
      <trkpt lat="44.22117" lon="5.56838">
        <ele>810.84</ele>
        <time>2019-04-27T09:47:54Z</time>
      </trkpt>
      <trkpt lat="44.22116" lon="5.56785">
        <ele>811.179</ele>
        <time>2019-04-27T09:48:05Z</time>
      </trkpt>
      <trkpt lat="44.22114" lon="5.56733">
        <ele>811.632</ele>
        <time>2019-04-27T09:48:16Z</time>
      </trkpt>
      <trkpt lat="44.22113" lon="5.56684">
        <ele>812.07</ele>
        <time>2019-04-27T09:48:26Z</time>
      </trkpt>
      <trkpt lat="44.22112" lon="5.56637">
        <ele>812.546</ele>
        <time>2019-04-27T09:48:36Z</time>
      </trkpt>
      <trkpt lat="44.22111" lon="5.56586">
        <ele>813.087</ele>
        <time>2019-04-27T09:48:47Z</time>
      </trkpt>
      <trkpt lat="44.2211" lon="5.56542">
        <ele>813.591</ele>
        <time>2019-04-27T09:48:58Z</time>
      </trkpt>
      <trkpt lat="44.22109" lon="5.56505">
        <ele>814.075</ele>
        <time>2019-04-27T09:49:08Z</time>
      </trkpt>
      <trkpt lat="44.22108" lon="5.56461">
        <ele>814.762</ele>
        <time>2019-04-27T09:49:19Z</time>
      </trkpt>
      <trkpt lat="44.22104" lon="5.56417">
        <ele>815.393</ele>
        <time>2019-04-27T09:49:29Z</time>
      </trkpt>
      <trkpt lat="44.22101" lon="5.56364">
        <ele>816.201</ele>
        <time>2019-04-27T09:49:40Z</time>
      </trkpt>
      <trkpt lat="44.22094" lon="5.56307">
        <ele>819.984</ele>
        <time>2019-04-27T09:49:50Z</time>
      </trkpt>
      <trkpt lat="44.22087" lon="5.56245">
        <ele>819.867</ele>
        <time>2019-04-27T09:50:00Z</time>
      </trkpt>
      <trkpt lat="44.22079" lon="5.56171">
        <ele>819.823</ele>
        <time>2019-04-27T09:50:11Z</time>
      </trkpt>
      <trkpt lat="44.22071" lon="5.56093">
        <ele>819.327</ele>
        <time>2019-04-27T09:50:22Z</time>
      </trkpt>
      <trkpt lat="44.22063" lon="5.5602">
        <ele>820.05</ele>
        <time>2019-04-27T09:50:32Z</time>
      </trkpt>
      <trkpt lat="44.22056" lon="5.55948">
        <ele>820.125</ele>
        <time>2019-04-27T09:50:43Z</time>
      </trkpt>
      <trkpt lat="44.22048" lon="5.55886">
        <ele>819.297</ele>
        <time>2019-04-27T09:50:53Z</time>
      </trkpt>
      <trkpt lat="44.22042" lon="5.55823">
        <ele>819.336</ele>
        <time>2019-04-27T09:51:04Z</time>
      </trkpt>
      <trkpt lat="44.22036" lon="5.55769">
        <ele>820.357</ele>
        <time>2019-04-27T09:51:14Z</time>
      </trkpt>
      <trkpt lat="44.22029" lon="5.55714">
        <ele>820.549</ele>
        <time>2019-04-27T09:51:25Z</time>
      </trkpt>
      <trkpt lat="44.22024" lon="5.55661">
        <ele>821.356</ele>
        <time>2019-04-27T09:51:35Z</time>
      </trkpt>
      <trkpt lat="44.2202" lon="5.55605">
        <ele>821.473</ele>
        <time>2019-04-27T09:51:45Z</time>
      </trkpt>
      <trkpt lat="44.22012" lon="5.55549">
        <ele>821.766</ele>
        <time>2019-04-27T09:51:56Z</time>
      </trkpt>
      <trkpt lat="44.22005" lon="5.55485">
        <ele>821.758</ele>
        <time>2019-04-27T09:52:07Z</time>
      </trkpt>
      <trkpt lat="44.22" lon="5.55423">
        <ele>821.097</ele>
        <time>2019-04-27T09:52:17Z</time>
      </trkpt>
      <trkpt lat="44.21993" lon="5.55363">
        <ele>820.71</ele>
        <time>2019-04-27T09:52:28Z</time>
      </trkpt>
      <trkpt lat="44.21988" lon="5.55312">
        <ele>820.971</ele>
        <time>2019-04-27T09:52:39Z</time>
      </trkpt>
      <trkpt lat="44.21984" lon="5.55271">
        <ele>821.362</ele>
        <time>2019-04-27T09:52:49Z</time>
      </trkpt>
      <trkpt lat="44.21978" lon="5.5523">
        <ele>822.118</ele>
        <time>2019-04-27T09:53:00Z</time>
      </trkpt>
      <trkpt lat="44.21971" lon="5.55189">
        <ele>823.225</ele>
        <time>2019-04-27T09:53:11Z</time>
      </trkpt>
      <trkpt lat="44.21961" lon="5.55148">
        <ele>824.403</ele>
        <time>2019-04-27T09:53:22Z</time>
      </trkpt>
      <trkpt lat="44.2195" lon="5.55113">
        <ele>825.594</ele>
        <time>2019-04-27T09:53:32Z</time>
      </trkpt>
      <trkpt lat="44.21937" lon="5.55079">
        <ele>826.857</ele>
        <time>2019-04-27T09:53:43Z</time>
      </trkpt>
      <trkpt lat="44.21925" lon="5.55048">
        <ele>828.056</ele>
        <time>2019-04-27T09:53:53Z</time>
      </trkpt>
      <trkpt lat="44.21913" lon="5.55012">
        <ele>829.212</ele>
        <time>2019-04-27T09:54:04Z</time>
      </trkpt>
      <trkpt lat="44.21901" lon="5.54974">
        <ele>830.141</ele>
        <time>2019-04-27T09:54:15Z</time>
      </trkpt>
      <trkpt lat="44.21889" lon="5.54939">
        <ele>830.606</ele>
        <time>2019-04-27T09:54:25Z</time>
      </trkpt>
      <trkpt lat="44.21876" lon="5.54905">
        <ele>831.124</ele>
        <time>2019-04-27T09:54:35Z</time>
      </trkpt>
      <trkpt lat="44.21862" lon="5.54865">
        <ele>831.773</ele>
        <time>2019-04-27T09:54:46Z</time>
      </trkpt>
      <trkpt lat="44.21848" lon="5.5483">
        <ele>832.521</ele>
        <time>2019-04-27T09:54:57Z</time>
      </trkpt>
      <trkpt lat="44.21836" lon="5.54797">
        <ele>833.273</ele>
        <time>2019-04-27T09:55:07Z</time>
      </trkpt>
      <trkpt lat="44.2182" lon="5.54754">
        <ele>835.106</ele>
        <time>2019-04-27T09:55:17Z</time>
      </trkpt>
      <trkpt lat="44.21798" lon="5.54701">
        <ele>837.409</ele>
        <time>2019-04-27T09:55:27Z</time>
      </trkpt>
      <trkpt lat="44.21771" lon="5.54626">
        <ele>835.595</ele>
        <time>2019-04-27T09:55:38Z</time>
      </trkpt>
      <trkpt lat="44.21743" lon="5.54556">
        <ele>835.618</ele>
        <time>2019-04-27T09:55:48Z</time>
      </trkpt>
      <trkpt lat="44.21718" lon="5.54482">
        <ele>839.728</ele>
        <time>2019-04-27T09:55:59Z</time>
      </trkpt>
      <trkpt lat="44.21688" lon="5.54414">
        <ele>840.242</ele>
        <time>2019-04-27T09:56:09Z</time>
      </trkpt>
      <trkpt lat="44.21645" lon="5.5437">
        <ele>834.371</ele>
        <time>2019-04-27T09:56:20Z</time>
      </trkpt>
      <trkpt lat="44.21596" lon="5.54346">
        <ele>833.145</ele>
        <time>2019-04-27T09:56:31Z</time>
      </trkpt>
      <trkpt lat="44.21597" lon="5.54283">
        <ele>832.593</ele>
        <time>2019-04-27T09:56:42Z</time>
      </trkpt>
      <trkpt lat="44.21656" lon="5.54245">
        <ele>831.903</ele>
        <time>2019-04-27T09:56:53Z</time>
      </trkpt>
      <trkpt lat="44.21709" lon="5.54231">
        <ele>832.026</ele>
        <time>2019-04-27T09:57:04Z</time>
      </trkpt>
      <trkpt lat="44.21764" lon="5.54218">
        <ele>833.259</ele>
        <time>2019-04-27T09:57:15Z</time>
      </trkpt>
      <trkpt lat="44.21816" lon="5.54208">
        <ele>834.497</ele>
        <time>2019-04-27T09:57:26Z</time>
      </trkpt>
      <trkpt lat="44.2187" lon="5.54193">
        <ele>836.073</ele>
        <time>2019-04-27T09:57:37Z</time>
      </trkpt>
      <trkpt lat="44.21908" lon="5.5414">
        <ele>833.354</ele>
        <time>2019-04-27T09:57:47Z</time>
      </trkpt>
      <trkpt lat="44.2195" lon="5.54059">
        <ele>829.858</ele>
        <time>2019-04-27T09:57:58Z</time>
      </trkpt>
      <trkpt lat="44.21995" lon="5.5402">
        <ele>829.27</ele>
        <time>2019-04-27T09:58:08Z</time>
      </trkpt>
      <trkpt lat="44.22034" lon="5.53968">
        <ele>828.997</ele>
        <time>2019-04-27T09:58:19Z</time>
      </trkpt>
      <trkpt lat="44.22045" lon="5.53906">
        <ele>829.021</ele>
        <time>2019-04-27T09:58:29Z</time>
      </trkpt>
      <trkpt lat="44.22049" lon="5.53839">
        <ele>829.44</ele>
        <time>2019-04-27T09:58:40Z</time>
      </trkpt>
      <trkpt lat="44.22051" lon="5.53782">
        <ele>829.569</ele>
        <time>2019-04-27T09:58:51Z</time>
      </trkpt>
      <trkpt lat="44.22051" lon="5.53741">
        <ele>829.668</ele>
        <time>2019-04-27T09:59:01Z</time>
      </trkpt>
      <trkpt lat="44.22052" lon="5.53698">
        <ele>829.786</ele>
        <time>2019-04-27T09:59:12Z</time>
      </trkpt>
      <trkpt lat="44.22053" lon="5.53657">
        <ele>829.894</ele>
        <time>2019-04-27T09:59:23Z</time>
      </trkpt>
      <trkpt lat="44.22055" lon="5.53617">
        <ele>830.079</ele>
        <time>2019-04-27T09:59:33Z</time>
      </trkpt>
      <trkpt lat="44.22056" lon="5.53578">
        <ele>830.353</ele>
        <time>2019-04-27T09:59:43Z</time>
      </trkpt>
      <trkpt lat="44.22058" lon="5.53534">
        <ele>830.721</ele>
        <time>2019-04-27T09:59:54Z</time>
      </trkpt>
      <trkpt lat="44.22059" lon="5.53497">
        <ele>831.137</ele>
        <time>2019-04-27T10:00:04Z</time>
      </trkpt>
      <trkpt lat="44.22062" lon="5.53457">
        <ele>831.707</ele>
        <time>2019-04-27T10:00:15Z</time>
      </trkpt>
      <trkpt lat="44.22063" lon="5.53421">
        <ele>832.384</ele>
        <time>2019-04-27T10:00:26Z</time>
      </trkpt>
      <trkpt lat="44.22065" lon="5.53386">
        <ele>833.057</ele>
        <time>2019-04-27T10:00:36Z</time>
      </trkpt>
      <trkpt lat="44.22066" lon="5.53347">
        <ele>833.883</ele>
        <time>2019-04-27T10:00:47Z</time>
      </trkpt>
      <trkpt lat="44.22067" lon="5.53309">
        <ele>834.646</ele>
        <time>2019-04-27T10:00:57Z</time>
      </trkpt>
      <trkpt lat="44.22068" lon="5.53259">
        <ele>835.523</ele>
        <time>2019-04-27T10:01:08Z</time>
      </trkpt>
      <trkpt lat="44.22069" lon="5.53208">
        <ele>836.338</ele>
        <time>2019-04-27T10:01:19Z</time>
      </trkpt>
      <trkpt lat="44.22072" lon="5.53164">
        <ele>836.978</ele>
        <time>2019-04-27T10:01:29Z</time>
      </trkpt>
      <trkpt lat="44.22073" lon="5.53121">
        <ele>837.651</ele>
        <time>2019-04-27T10:01:40Z</time>
      </trkpt>
      <trkpt lat="44.22074" lon="5.53082">
        <ele>838.3</ele>
        <time>2019-04-27T10:01:50Z</time>
      </trkpt>
      <trkpt lat="44.22076" lon="5.53041">
        <ele>838.965</ele>
        <time>2019-04-27T10:02:00Z</time>
      </trkpt>
      <trkpt lat="44.22078" lon="5.52997">
        <ele>839.729</ele>
        <time>2019-04-27T10:02:11Z</time>
      </trkpt>
      <trkpt lat="44.22079" lon="5.52954">
        <ele>840.426</ele>
        <time>2019-04-27T10:02:21Z</time>
      </trkpt>
      <trkpt lat="44.22081" lon="5.52896">
        <ele>844.01</ele>
        <time>2019-04-27T10:02:32Z</time>
      </trkpt>
      <trkpt lat="44.22083" lon="5.52842">
        <ele>844.793</ele>
        <time>2019-04-27T10:02:42Z</time>
      </trkpt>
      <trkpt lat="44.22084" lon="5.5278">
        <ele>844.814</ele>
        <time>2019-04-27T10:02:53Z</time>
      </trkpt>
      <trkpt lat="44.22086" lon="5.52723">
        <ele>845.036</ele>
        <time>2019-04-27T10:03:03Z</time>
      </trkpt>
      <trkpt lat="44.22089" lon="5.52668">
        <ele>845.573</ele>
        <time>2019-04-27T10:03:14Z</time>
      </trkpt>
      <trkpt lat="44.22095" lon="5.52612">
        <ele>845.568</ele>
        <time>2019-04-27T10:03:25Z</time>
      </trkpt>
      <trkpt lat="44.22098" lon="5.52554">
        <ele>846.555</ele>
        <time>2019-04-27T10:03:36Z</time>
      </trkpt>
      <trkpt lat="44.22102" lon="5.52508">
        <ele>846.794</ele>
        <time>2019-04-27T10:03:46Z</time>
      </trkpt>
      <trkpt lat="44.22106" lon="5.52463">
        <ele>846.966</ele>
        <time>2019-04-27T10:03:57Z</time>
      </trkpt>
      <trkpt lat="44.2211" lon="5.52415">
        <ele>847.218</ele>
        <time>2019-04-27T10:04:08Z</time>
      </trkpt>
      <trkpt lat="44.22113" lon="5.52369">
        <ele>847.49</ele>
        <time>2019-04-27T10:04:18Z</time>
      </trkpt>
      <trkpt lat="44.22118" lon="5.52321">
        <ele>847.821</ele>
        <time>2019-04-27T10:04:29Z</time>
      </trkpt>
      <trkpt lat="44.22119" lon="5.5228">
        <ele>847.804</ele>
        <time>2019-04-27T10:04:39Z</time>
      </trkpt>
      <trkpt lat="44.22121" lon="5.52232">
        <ele>848.365</ele>
        <time>2019-04-27T10:04:49Z</time>
      </trkpt>
      <trkpt lat="44.22127" lon="5.52178">
        <ele>849.809</ele>
        <time>2019-04-27T10:05:00Z</time>
      </trkpt>
      <trkpt lat="44.2213" lon="5.52177">
        <ele>850.275</ele>
        <time>2019-04-27T10:05:11Z</time>
      </trkpt>
      <trkpt lat="44.22124" lon="5.52242">
        <ele>851.151</ele>
        <time>2019-04-27T10:05:22Z</time>
      </trkpt>
      <trkpt lat="44.22104" lon="5.52287">
        <ele>850.551</ele>
        <time>2019-04-27T10:05:32Z</time>
      </trkpt>
      <trkpt lat="44.22072" lon="5.5231">
        <ele>847.949</ele>
        <time>2019-04-27T10:05:43Z</time>
      </trkpt>
      <trkpt lat="44.22062" lon="5.52333">
        <ele>847.625</ele>
        <time>2019-04-27T10:05:54Z</time>
      </trkpt>
      <trkpt lat="44.22058" lon="5.5234">
        <ele>847.502</ele>
        <time>2019-04-27T10:06:05Z</time>
      </trkpt>
      <trkpt lat="44.22058" lon="5.52341">
        <ele>847.554</ele>
        <time>2019-04-27T10:06:15Z</time>
      </trkpt>
      <trkpt lat="44.22057" lon="5.52341">
        <ele>847.602</ele>
        <time>2019-04-27T10:06:26Z</time>
      </trkpt>
      <trkpt lat="44.22058" lon="5.52341">
        <ele>847.663</ele>
        <time>2019-04-27T10:06:37Z</time>
      </trkpt>
      <trkpt lat="44.22058" lon="5.52341">
        <ele>847.723</ele>
        <time>2019-04-27T10:06:48Z</time>
      </trkpt>
      <trkpt lat="44.22058" lon="5.52341">
        <ele>847.767</ele>
        <time>2019-04-27T10:06:59Z</time>
      </trkpt>
      <trkpt lat="44.22058" lon="5.52341">
        <ele>847.832</ele>
        <time>2019-04-27T10:07:10Z</time>
      </trkpt>
      <trkpt lat="44.22058" lon="5.52341">
        <ele>847.886</ele>
        <time>2019-04-27T10:07:20Z</time>
      </trkpt>
      <trkpt lat="44.22058" lon="5.52341">
        <ele>847.948</ele>
        <time>2019-04-27T10:07:31Z</time>
      </trkpt>
      <trkpt lat="44.22058" lon="5.52341">
        <ele>848</ele>
        <time>2019-04-27T10:07:42Z</time>
      </trkpt>
      <trkpt lat="44.22058" lon="5.52341">
        <ele>848.043</ele>
        <time>2019-04-27T10:07:53Z</time>
      </trkpt>
      <trkpt lat="44.22058" lon="5.52341">
        <ele>848.079</ele>
        <time>2019-04-27T10:08:04Z</time>
      </trkpt>
      <trkpt lat="44.22063" lon="5.52331">
        <ele>848.408</ele>
        <time>2019-04-27T10:08:14Z</time>
      </trkpt>
      <trkpt lat="44.22071" lon="5.52315">
        <ele>848.339</ele>
        <time>2019-04-27T10:08:25Z</time>
      </trkpt>
      <trkpt lat="44.22061" lon="5.52307">
        <ele>847.724</ele>
        <time>2019-04-27T10:08:36Z</time>
      </trkpt>
      <trkpt lat="44.22051" lon="5.52307">
        <ele>847.519</ele>
        <time>2019-04-27T10:08:46Z</time>
      </trkpt>
      <trkpt lat="44.22051" lon="5.52306">
        <ele>847.443</ele>
        <time>2019-04-27T10:08:57Z</time>
      </trkpt>
      <trkpt lat="44.22051" lon="5.52305">
        <ele>847.431</ele>
        <time>2019-04-27T10:09:08Z</time>
      </trkpt>
      <trkpt lat="44.2205" lon="5.52305">
        <ele>847.429</ele>
        <time>2019-04-27T10:09:18Z</time>
      </trkpt>
      <trkpt lat="44.2205" lon="5.52305">
        <ele>847.451</ele>
        <time>2019-04-27T10:09:29Z</time>
      </trkpt>
      <trkpt lat="44.2205" lon="5.52305">
        <ele>847.438</ele>
        <time>2019-04-27T10:09:40Z</time>
      </trkpt>
      <trkpt lat="44.2205" lon="5.52305">
        <ele>847.455</ele>
        <time>2019-04-27T10:09:50Z</time>
      </trkpt>
      <trkpt lat="44.2205" lon="5.52305">
        <ele>847.477</ele>
        <time>2019-04-27T10:10:01Z</time>
      </trkpt>
      <trkpt lat="44.22049" lon="5.52305">
        <ele>847.489</ele>
        <time>2019-04-27T10:10:11Z</time>
      </trkpt>
      <trkpt lat="44.22049" lon="5.52305">
        <ele>847.496</ele>
        <time>2019-04-27T10:10:22Z</time>
      </trkpt>
      <trkpt lat="44.22049" lon="5.52305">
        <ele>847.497</ele>
        <time>2019-04-27T10:10:33Z</time>
      </trkpt>
      <trkpt lat="44.22049" lon="5.52305">
        <ele>847.499</ele>
        <time>2019-04-27T10:10:43Z</time>
      </trkpt>
      <trkpt lat="44.22049" lon="5.52305">
        <ele>847.501</ele>
        <time>2019-04-27T10:10:54Z</time>
      </trkpt>
      <trkpt lat="44.22049" lon="5.52305">
        <ele>847.498</ele>
        <time>2019-04-27T10:11:04Z</time>
      </trkpt>
      <trkpt lat="44.22049" lon="5.52304">
        <ele>847.496</ele>
        <time>2019-04-27T10:11:15Z</time>
      </trkpt>
      <trkpt lat="44.22049" lon="5.52304">
        <ele>847.489</ele>
        <time>2019-04-27T10:11:26Z</time>
      </trkpt>
      <trkpt lat="44.22049" lon="5.52304">
        <ele>847.461</ele>
        <time>2019-04-27T10:11:37Z</time>
      </trkpt>
      <trkpt lat="44.22049" lon="5.52304">
        <ele>847.421</ele>
        <time>2019-04-27T10:11:47Z</time>
      </trkpt>
      <trkpt lat="44.22049" lon="5.52303">
        <ele>847.371</ele>
        <time>2019-04-27T10:11:57Z</time>
      </trkpt>
      <trkpt lat="44.22049" lon="5.52303">
        <ele>847.317</ele>
        <time>2019-04-27T10:12:08Z</time>
      </trkpt>
      <trkpt lat="44.22049" lon="5.52303">
        <ele>847.268</ele>
        <time>2019-04-27T10:12:18Z</time>
      </trkpt>
      <trkpt lat="44.22049" lon="5.52303">
        <ele>847.216</ele>
        <time>2019-04-27T10:12:28Z</time>
      </trkpt>
      <trkpt lat="44.22049" lon="5.52303">
        <ele>847.155</ele>
        <time>2019-04-27T10:12:39Z</time>
      </trkpt>
      <trkpt lat="44.2205" lon="5.52303">
        <ele>847.095</ele>
        <time>2019-04-27T10:12:49Z</time>
      </trkpt>
      <trkpt lat="44.2205" lon="5.52303">
        <ele>847.025</ele>
        <time>2019-04-27T10:13:00Z</time>
      </trkpt>
      <trkpt lat="44.2205" lon="5.52303">
        <ele>846.948</ele>
        <time>2019-04-27T10:13:11Z</time>
      </trkpt>
      <trkpt lat="44.2205" lon="5.52304">
        <ele>846.867</ele>
        <time>2019-04-27T10:13:22Z</time>
      </trkpt>
      <trkpt lat="44.2205" lon="5.52304">
        <ele>846.803</ele>
        <time>2019-04-27T10:13:33Z</time>
      </trkpt>
      <trkpt lat="44.2205" lon="5.52304">
        <ele>846.757</ele>
        <time>2019-04-27T10:13:43Z</time>
      </trkpt>
      <trkpt lat="44.2205" lon="5.52304">
        <ele>846.715</ele>
        <time>2019-04-27T10:13:54Z</time>
      </trkpt>
      <trkpt lat="44.2205" lon="5.52304">
        <ele>846.692</ele>
        <time>2019-04-27T10:14:05Z</time>
      </trkpt>
      <trkpt lat="44.2205" lon="5.52304">
        <ele>846.67</ele>
        <time>2019-04-27T10:14:15Z</time>
      </trkpt>
      <trkpt lat="44.2205" lon="5.52304">
        <ele>846.655</ele>
        <time>2019-04-27T10:14:26Z</time>
      </trkpt>
      <trkpt lat="44.2205" lon="5.52304">
        <ele>846.642</ele>
        <time>2019-04-27T10:14:36Z</time>
      </trkpt>
      <trkpt lat="44.2205" lon="5.52304">
        <ele>846.628</ele>
        <time>2019-04-27T10:14:46Z</time>
      </trkpt>
      <trkpt lat="44.22049" lon="5.52304">
        <ele>846.621</ele>
        <time>2019-04-27T10:14:57Z</time>
      </trkpt>
      <trkpt lat="44.22049" lon="5.52304">
        <ele>846.622</ele>
        <time>2019-04-27T10:15:07Z</time>
      </trkpt>
      <trkpt lat="44.2205" lon="5.52304">
        <ele>846.625</ele>
        <time>2019-04-27T10:15:18Z</time>
      </trkpt>
      <trkpt lat="44.2205" lon="5.52304">
        <ele>846.625</ele>
        <time>2019-04-27T10:15:28Z</time>
      </trkpt>
      <trkpt lat="44.2205" lon="5.52304">
        <ele>846.621</ele>
        <time>2019-04-27T10:15:39Z</time>
      </trkpt>
      <trkpt lat="44.2205" lon="5.52304">
        <ele>846.612</ele>
        <time>2019-04-27T10:15:50Z</time>
      </trkpt>
      <trkpt lat="44.2205" lon="5.52304">
        <ele>846.599</ele>
        <time>2019-04-27T10:16:01Z</time>
      </trkpt>
      <trkpt lat="44.2205" lon="5.52304">
        <ele>846.585</ele>
        <time>2019-04-27T10:16:12Z</time>
      </trkpt>
      <trkpt lat="44.2205" lon="5.52305">
        <ele>846.571</ele>
        <time>2019-04-27T10:16:22Z</time>
      </trkpt>
      <trkpt lat="44.2205" lon="5.52305">
        <ele>846.555</ele>
        <time>2019-04-27T10:16:33Z</time>
      </trkpt>
      <trkpt lat="44.2205" lon="5.52305">
        <ele>846.533</ele>
        <time>2019-04-27T10:16:43Z</time>
      </trkpt>
      <trkpt lat="44.2205" lon="5.52305">
        <ele>846.509</ele>
        <time>2019-04-27T10:16:53Z</time>
      </trkpt>
      <trkpt lat="44.2205" lon="5.52305">
        <ele>846.488</ele>
        <time>2019-04-27T10:17:04Z</time>
      </trkpt>
      <trkpt lat="44.2205" lon="5.52304">
        <ele>846.475</ele>
        <time>2019-04-27T10:17:14Z</time>
      </trkpt>
      <trkpt lat="44.2205" lon="5.52304">
        <ele>846.47</ele>
        <time>2019-04-27T10:17:24Z</time>
      </trkpt>
      <trkpt lat="44.2205" lon="5.52304">
        <ele>846.473</ele>
        <time>2019-04-27T10:17:34Z</time>
      </trkpt>
      <trkpt lat="44.2205" lon="5.52304">
        <ele>846.492</ele>
        <time>2019-04-27T10:17:45Z</time>
      </trkpt>
      <trkpt lat="44.2205" lon="5.52304">
        <ele>846.514</ele>
        <time>2019-04-27T10:17:55Z</time>
      </trkpt>
      <trkpt lat="44.2205" lon="5.52303">
        <ele>846.536</ele>
        <time>2019-04-27T10:18:06Z</time>
      </trkpt>
      <trkpt lat="44.2205" lon="5.52303">
        <ele>846.559</ele>
        <time>2019-04-27T10:18:16Z</time>
      </trkpt>
      <trkpt lat="44.2205" lon="5.52303">
        <ele>846.584</ele>
        <time>2019-04-27T10:18:26Z</time>
      </trkpt>
      <trkpt lat="44.2205" lon="5.52303">
        <ele>846.609</ele>
        <time>2019-04-27T10:18:37Z</time>
      </trkpt>
      <trkpt lat="44.2205" lon="5.52303">
        <ele>846.62</ele>
        <time>2019-04-27T10:18:48Z</time>
      </trkpt>
      <trkpt lat="44.2205" lon="5.52303">
        <ele>846.618</ele>
        <time>2019-04-27T10:18:58Z</time>
      </trkpt>
      <trkpt lat="44.2205" lon="5.52303">
        <ele>846.611</ele>
        <time>2019-04-27T10:19:09Z</time>
      </trkpt>
      <trkpt lat="44.2205" lon="5.52303">
        <ele>846.605</ele>
        <time>2019-04-27T10:19:20Z</time>
      </trkpt>
      <trkpt lat="44.2205" lon="5.52303">
        <ele>846.597</ele>
        <time>2019-04-27T10:19:30Z</time>
      </trkpt>
      <trkpt lat="44.2205" lon="5.52303">
        <ele>846.568</ele>
        <time>2019-04-27T10:19:41Z</time>
      </trkpt>
      <trkpt lat="44.22051" lon="5.52299">
        <ele>846.281</ele>
        <time>2019-04-27T10:19:51Z</time>
      </trkpt>
      <trkpt lat="44.22051" lon="5.52299">
        <ele>846.138</ele>
        <time>2019-04-27T10:20:02Z</time>
      </trkpt>
      <trkpt lat="44.22051" lon="5.52299">
        <ele>846.049</ele>
        <time>2019-04-27T10:20:12Z</time>
      </trkpt>
      <trkpt lat="44.2205" lon="5.523">
        <ele>846.011</ele>
        <time>2019-04-27T10:20:22Z</time>
      </trkpt>
      <trkpt lat="44.22051" lon="5.52301">
        <ele>845.947</ele>
        <time>2019-04-27T10:20:33Z</time>
      </trkpt>
      <trkpt lat="44.22051" lon="5.52301">
        <ele>845.856</ele>
        <time>2019-04-27T10:20:43Z</time>
      </trkpt>
      <trkpt lat="44.22051" lon="5.52301">
        <ele>845.792</ele>
        <time>2019-04-27T10:20:54Z</time>
      </trkpt>
      <trkpt lat="44.22051" lon="5.52301">
        <ele>845.762</ele>
        <time>2019-04-27T10:21:05Z</time>
      </trkpt>
      <trkpt lat="44.22051" lon="5.52301">
        <ele>845.737</ele>
        <time>2019-04-27T10:21:16Z</time>
      </trkpt>
      <trkpt lat="44.2205" lon="5.52301">
        <ele>845.729</ele>
        <time>2019-04-27T10:21:26Z</time>
      </trkpt>
      <trkpt lat="44.2205" lon="5.52301">
        <ele>845.724</ele>
        <time>2019-04-27T10:21:37Z</time>
      </trkpt>
      <trkpt lat="44.2205" lon="5.52301">
        <ele>845.717</ele>
        <time>2019-04-27T10:21:48Z</time>
      </trkpt>
      <trkpt lat="44.2205" lon="5.52302">
        <ele>845.704</ele>
        <time>2019-04-27T10:21:59Z</time>
      </trkpt>
      <trkpt lat="44.2205" lon="5.52302">
        <ele>845.688</ele>
        <time>2019-04-27T10:22:10Z</time>
      </trkpt>
      <trkpt lat="44.2205" lon="5.52302">
        <ele>845.68</ele>
        <time>2019-04-27T10:22:21Z</time>
      </trkpt>
      <trkpt lat="44.2205" lon="5.52302">
        <ele>845.672</ele>
        <time>2019-04-27T10:22:31Z</time>
      </trkpt>
      <trkpt lat="44.2205" lon="5.52302">
        <ele>845.657</ele>
        <time>2019-04-27T10:22:42Z</time>
      </trkpt>
      <trkpt lat="44.22049" lon="5.52302">
        <ele>845.65</ele>
        <time>2019-04-27T10:22:53Z</time>
      </trkpt>
      <trkpt lat="44.22049" lon="5.52302">
        <ele>845.648</ele>
        <time>2019-04-27T10:23:03Z</time>
      </trkpt>
      <trkpt lat="44.22049" lon="5.52302">
        <ele>845.645</ele>
        <time>2019-04-27T10:23:13Z</time>
      </trkpt>
      <trkpt lat="44.22049" lon="5.52302">
        <ele>845.619</ele>
        <time>2019-04-27T10:23:24Z</time>
      </trkpt>
      <trkpt lat="44.22049" lon="5.52302">
        <ele>845.577</ele>
        <time>2019-04-27T10:23:35Z</time>
      </trkpt>
      <trkpt lat="44.22049" lon="5.52302">
        <ele>845.537</ele>
        <time>2019-04-27T10:23:45Z</time>
      </trkpt>
      <trkpt lat="44.22049" lon="5.52302">
        <ele>845.495</ele>
        <time>2019-04-27T10:23:56Z</time>
      </trkpt>
      <trkpt lat="44.22049" lon="5.52302">
        <ele>845.459</ele>
        <time>2019-04-27T10:24:07Z</time>
      </trkpt>
      <trkpt lat="44.22049" lon="5.52302">
        <ele>845.437</ele>
        <time>2019-04-27T10:24:18Z</time>
      </trkpt>
      <trkpt lat="44.2205" lon="5.52302">
        <ele>845.41</ele>
        <time>2019-04-27T10:24:29Z</time>
      </trkpt>
      <trkpt lat="44.2205" lon="5.52301">
        <ele>845.376</ele>
        <time>2019-04-27T10:24:40Z</time>
      </trkpt>
      <trkpt lat="44.2205" lon="5.52301">
        <ele>845.333</ele>
        <time>2019-04-27T10:24:50Z</time>
      </trkpt>
      <trkpt lat="44.22051" lon="5.52301">
        <ele>845.273</ele>
        <time>2019-04-27T10:25:01Z</time>
      </trkpt>
      <trkpt lat="44.22051" lon="5.52301">
        <ele>845.207</ele>
        <time>2019-04-27T10:25:12Z</time>
      </trkpt>
      <trkpt lat="44.22051" lon="5.52301">
        <ele>845.135</ele>
        <time>2019-04-27T10:25:23Z</time>
      </trkpt>
      <trkpt lat="44.22051" lon="5.523">
        <ele>845.061</ele>
        <time>2019-04-27T10:25:34Z</time>
      </trkpt>
      <trkpt lat="44.22052" lon="5.523">
        <ele>844.99</ele>
        <time>2019-04-27T10:25:45Z</time>
      </trkpt>
      <trkpt lat="44.22052" lon="5.523">
        <ele>844.92</ele>
        <time>2019-04-27T10:25:56Z</time>
      </trkpt>
      <trkpt lat="44.22052" lon="5.523">
        <ele>844.86</ele>
        <time>2019-04-27T10:26:06Z</time>
      </trkpt>
      <trkpt lat="44.22052" lon="5.52301">
        <ele>844.8</ele>
        <time>2019-04-27T10:26:16Z</time>
      </trkpt>
      <trkpt lat="44.22052" lon="5.52301">
        <ele>844.741</ele>
        <time>2019-04-27T10:26:26Z</time>
      </trkpt>
      <trkpt lat="44.22052" lon="5.52301">
        <ele>844.644</ele>
        <time>2019-04-27T10:26:37Z</time>
      </trkpt>
      <trkpt lat="44.22052" lon="5.52301">
        <ele>844.548</ele>
        <time>2019-04-27T10:26:48Z</time>
      </trkpt>
      <trkpt lat="44.22052" lon="5.52301">
        <ele>844.436</ele>
        <time>2019-04-27T10:26:59Z</time>
      </trkpt>
      <trkpt lat="44.22052" lon="5.52302">
        <ele>844.35</ele>
        <time>2019-04-27T10:27:09Z</time>
      </trkpt>
      <trkpt lat="44.22052" lon="5.52301">
        <ele>844.316</ele>
        <time>2019-04-27T10:27:19Z</time>
      </trkpt>
      <trkpt lat="44.22051" lon="5.52305">
        <ele>844.04</ele>
        <time>2019-04-27T10:27:30Z</time>
      </trkpt>
      <trkpt lat="44.22051" lon="5.52305">
        <ele>843.982</ele>
        <time>2019-04-27T10:27:41Z</time>
      </trkpt>
      <trkpt lat="44.22051" lon="5.52305">
        <ele>843.894</ele>
        <time>2019-04-27T10:27:51Z</time>
      </trkpt>
      <trkpt lat="44.22052" lon="5.52306">
        <ele>843.831</ele>
        <time>2019-04-27T10:28:02Z</time>
      </trkpt>
      <trkpt lat="44.22052" lon="5.52306">
        <ele>843.784</ele>
        <time>2019-04-27T10:28:12Z</time>
      </trkpt>
      <trkpt lat="44.22052" lon="5.52306">
        <ele>843.711</ele>
        <time>2019-04-27T10:28:23Z</time>
      </trkpt>
      <trkpt lat="44.22053" lon="5.52306">
        <ele>843.661</ele>
        <time>2019-04-27T10:28:34Z</time>
      </trkpt>
      <trkpt lat="44.22053" lon="5.52306">
        <ele>843.617</ele>
        <time>2019-04-27T10:28:44Z</time>
      </trkpt>
      <trkpt lat="44.22053" lon="5.52305">
        <ele>843.585</ele>
        <time>2019-04-27T10:28:55Z</time>
      </trkpt>
      <trkpt lat="44.22053" lon="5.52305">
        <ele>843.549</ele>
        <time>2019-04-27T10:29:06Z</time>
      </trkpt>
      <trkpt lat="44.22052" lon="5.52305">
        <ele>843.513</ele>
        <time>2019-04-27T10:29:17Z</time>
      </trkpt>
      <trkpt lat="44.22051" lon="5.52305">
        <ele>843.573</ele>
        <time>2019-04-27T10:29:27Z</time>
      </trkpt>
      <trkpt lat="44.22052" lon="5.52305">
        <ele>843.712</ele>
        <time>2019-04-27T10:29:38Z</time>
      </trkpt>
      <trkpt lat="44.22052" lon="5.52305">
        <ele>843.876</ele>
        <time>2019-04-27T10:29:49Z</time>
      </trkpt>
      <trkpt lat="44.22051" lon="5.52305">
        <ele>844.116</ele>
        <time>2019-04-27T10:30:00Z</time>
      </trkpt>
      <trkpt lat="44.2205" lon="5.52304">
        <ele>844.396</ele>
        <time>2019-04-27T10:30:10Z</time>
      </trkpt>
      <trkpt lat="44.2205" lon="5.52304">
        <ele>844.434</ele>
        <time>2019-04-27T10:30:21Z</time>
      </trkpt>
      <trkpt lat="44.2205" lon="5.52304">
        <ele>844.458</ele>
        <time>2019-04-27T10:30:32Z</time>
      </trkpt>
      <trkpt lat="44.22049" lon="5.52303">
        <ele>844.473</ele>
        <time>2019-04-27T10:30:43Z</time>
      </trkpt>
      <trkpt lat="44.22051" lon="5.52304">
        <ele>844.787</ele>
        <time>2019-04-27T10:30:53Z</time>
      </trkpt>
      <trkpt lat="44.22051" lon="5.52303">
        <ele>845.089</ele>
        <time>2019-04-27T10:31:04Z</time>
      </trkpt>
      <trkpt lat="44.22053" lon="5.52309">
        <ele>845.213</ele>
        <time>2019-04-27T10:31:15Z</time>
      </trkpt>
      <trkpt lat="44.22071" lon="5.52299">
        <ele>844.874</ele>
        <time>2019-04-27T10:31:26Z</time>
      </trkpt>
      <trkpt lat="44.22098" lon="5.52291">
        <ele>844.582</ele>
        <time>2019-04-27T10:31:37Z</time>
      </trkpt>
      <trkpt lat="44.22115" lon="5.52274">
        <ele>844.545</ele>
        <time>2019-04-27T10:31:48Z</time>
      </trkpt>
      <trkpt lat="44.22124" lon="5.52233">
        <ele>845.318</ele>
        <time>2019-04-27T10:31:58Z</time>
      </trkpt>
      <trkpt lat="44.22129" lon="5.52188">
        <ele>846.521</ele>
        <time>2019-04-27T10:32:09Z</time>
      </trkpt>
      <trkpt lat="44.22133" lon="5.52152">
        <ele>848.098</ele>
        <time>2019-04-27T10:32:19Z</time>
      </trkpt>
      <trkpt lat="44.2214" lon="5.52115">
        <ele>849.138</ele>
        <time>2019-04-27T10:32:29Z</time>
      </trkpt>
      <trkpt lat="44.22148" lon="5.5207">
        <ele>849.817</ele>
        <time>2019-04-27T10:32:40Z</time>
      </trkpt>
      <trkpt lat="44.22155" lon="5.52029">
        <ele>850.271</ele>
        <time>2019-04-27T10:32:51Z</time>
      </trkpt>
      <trkpt lat="44.22162" lon="5.51992">
        <ele>850.772</ele>
        <time>2019-04-27T10:33:02Z</time>
      </trkpt>
      <trkpt lat="44.22167" lon="5.51958">
        <ele>851.308</ele>
        <time>2019-04-27T10:33:12Z</time>
      </trkpt>
      <trkpt lat="44.22173" lon="5.51921">
        <ele>851.741</ele>
        <time>2019-04-27T10:33:22Z</time>
      </trkpt>
      <trkpt lat="44.22182" lon="5.51884">
        <ele>852.143</ele>
        <time>2019-04-27T10:33:33Z</time>
      </trkpt>
      <trkpt lat="44.2219" lon="5.51849">
        <ele>852.796</ele>
        <time>2019-04-27T10:33:43Z</time>
      </trkpt>
      <trkpt lat="44.22199" lon="5.51811">
        <ele>853.375</ele>
        <time>2019-04-27T10:33:54Z</time>
      </trkpt>
      <trkpt lat="44.22212" lon="5.51773">
        <ele>853.955</ele>
        <time>2019-04-27T10:34:05Z</time>
      </trkpt>
      <trkpt lat="44.22225" lon="5.51741">
        <ele>854.518</ele>
        <time>2019-04-27T10:34:15Z</time>
      </trkpt>
      <trkpt lat="44.22239" lon="5.51703">
        <ele>855.179</ele>
        <time>2019-04-27T10:34:26Z</time>
      </trkpt>
      <trkpt lat="44.22252" lon="5.51667">
        <ele>855.836</ele>
        <time>2019-04-27T10:34:36Z</time>
      </trkpt>
      <trkpt lat="44.22265" lon="5.51629">
        <ele>856.319</ele>
        <time>2019-04-27T10:34:46Z</time>
      </trkpt>
      <trkpt lat="44.2228" lon="5.51587">
        <ele>856.557</ele>
        <time>2019-04-27T10:34:57Z</time>
      </trkpt>
      <trkpt lat="44.22293" lon="5.51548">
        <ele>856.965</ele>
        <time>2019-04-27T10:35:07Z</time>
      </trkpt>
      <trkpt lat="44.22311" lon="5.51503">
        <ele>857.268</ele>
        <time>2019-04-27T10:35:18Z</time>
      </trkpt>
      <trkpt lat="44.2233" lon="5.51451">
        <ele>857.716</ele>
        <time>2019-04-27T10:35:29Z</time>
      </trkpt>
      <trkpt lat="44.22351" lon="5.51402">
        <ele>858.01</ele>
        <time>2019-04-27T10:35:40Z</time>
      </trkpt>
      <trkpt lat="44.22368" lon="5.51354">
        <ele>859.594</ele>
        <time>2019-04-27T10:35:50Z</time>
      </trkpt>
      <trkpt lat="44.22385" lon="5.51312">
        <ele>860.169</ele>
        <time>2019-04-27T10:36:00Z</time>
      </trkpt>
      <trkpt lat="44.22402" lon="5.51263">
        <ele>860.393</ele>
        <time>2019-04-27T10:36:11Z</time>
      </trkpt>
      <trkpt lat="44.22421" lon="5.51203">
        <ele>858.777</ele>
        <time>2019-04-27T10:36:21Z</time>
      </trkpt>
      <trkpt lat="44.22444" lon="5.51144">
        <ele>858.999</ele>
        <time>2019-04-27T10:36:32Z</time>
      </trkpt>
      <trkpt lat="44.22458" lon="5.511">
        <ele>858.205</ele>
        <time>2019-04-27T10:36:42Z</time>
      </trkpt>
      <trkpt lat="44.22476" lon="5.51057">
        <ele>857.989</ele>
        <time>2019-04-27T10:36:53Z</time>
      </trkpt>
      <trkpt lat="44.2249" lon="5.51022">
        <ele>858.096</ele>
        <time>2019-04-27T10:37:03Z</time>
      </trkpt>
      <trkpt lat="44.22501" lon="5.50991">
        <ele>858.292</ele>
        <time>2019-04-27T10:37:13Z</time>
      </trkpt>
      <trkpt lat="44.22512" lon="5.50959">
        <ele>858.831</ele>
        <time>2019-04-27T10:37:24Z</time>
      </trkpt>
      <trkpt lat="44.22523" lon="5.50932">
        <ele>859.518</ele>
        <time>2019-04-27T10:37:34Z</time>
      </trkpt>
      <trkpt lat="44.22534" lon="5.50901">
        <ele>860.311</ele>
        <time>2019-04-27T10:37:45Z</time>
      </trkpt>
      <trkpt lat="44.22546" lon="5.50871">
        <ele>861.087</ele>
        <time>2019-04-27T10:37:55Z</time>
      </trkpt>
      <trkpt lat="44.22563" lon="5.50823">
        <ele>863.256</ele>
        <time>2019-04-27T10:38:06Z</time>
      </trkpt>
      <trkpt lat="44.22584" lon="5.50769">
        <ele>864.23</ele>
        <time>2019-04-27T10:38:16Z</time>
      </trkpt>
      <trkpt lat="44.22606" lon="5.5071">
        <ele>863.693</ele>
        <time>2019-04-27T10:38:27Z</time>
      </trkpt>
      <trkpt lat="44.22624" lon="5.50656">
        <ele>862.82</ele>
        <time>2019-04-27T10:38:38Z</time>
      </trkpt>
      <trkpt lat="44.22632" lon="5.50604">
        <ele>863.035</ele>
        <time>2019-04-27T10:38:48Z</time>
      </trkpt>
      <trkpt lat="44.22639" lon="5.50554">
        <ele>863.249</ele>
        <time>2019-04-27T10:38:59Z</time>
      </trkpt>
      <trkpt lat="44.22645" lon="5.50511">
        <ele>863.672</ele>
        <time>2019-04-27T10:39:09Z</time>
      </trkpt>
      <trkpt lat="44.2265" lon="5.5047">
        <ele>863.994</ele>
        <time>2019-04-27T10:39:19Z</time>
      </trkpt>
      <trkpt lat="44.22657" lon="5.50429">
        <ele>864.428</ele>
        <time>2019-04-27T10:39:30Z</time>
      </trkpt>
      <trkpt lat="44.22662" lon="5.50391">
        <ele>864.972</ele>
        <time>2019-04-27T10:39:41Z</time>
      </trkpt>
      <trkpt lat="44.22665" lon="5.50361">
        <ele>865.754</ele>
        <time>2019-04-27T10:39:51Z</time>
      </trkpt>
      <trkpt lat="44.22671" lon="5.50326">
        <ele>866.724</ele>
        <time>2019-04-27T10:40:02Z</time>
      </trkpt>
      <trkpt lat="44.22676" lon="5.50295">
        <ele>867.457</ele>
        <time>2019-04-27T10:40:12Z</time>
      </trkpt>
      <trkpt lat="44.2268" lon="5.50259">
        <ele>868.339</ele>
        <time>2019-04-27T10:40:23Z</time>
      </trkpt>
      <trkpt lat="44.22684" lon="5.50227">
        <ele>869.153</ele>
        <time>2019-04-27T10:40:33Z</time>
      </trkpt>
      <trkpt lat="44.22688" lon="5.50195">
        <ele>870.042</ele>
        <time>2019-04-27T10:40:43Z</time>
      </trkpt>
      <trkpt lat="44.22692" lon="5.5016">
        <ele>871.05</ele>
        <time>2019-04-27T10:40:54Z</time>
      </trkpt>
      <trkpt lat="44.22697" lon="5.50127">
        <ele>871.917</ele>
        <time>2019-04-27T10:41:04Z</time>
      </trkpt>
      <trkpt lat="44.22702" lon="5.50089">
        <ele>872.747</ele>
        <time>2019-04-27T10:41:15Z</time>
      </trkpt>
      <trkpt lat="44.22709" lon="5.50053">
        <ele>873.456</ele>
        <time>2019-04-27T10:41:26Z</time>
      </trkpt>
      <trkpt lat="44.22716" lon="5.50018">
        <ele>874.2</ele>
        <time>2019-04-27T10:41:37Z</time>
      </trkpt>
      <trkpt lat="44.22723" lon="5.49985">
        <ele>874.861</ele>
        <time>2019-04-27T10:41:47Z</time>
      </trkpt>
      <trkpt lat="44.22732" lon="5.49945">
        <ele>875.614</ele>
        <time>2019-04-27T10:41:58Z</time>
      </trkpt>
      <trkpt lat="44.22742" lon="5.49909">
        <ele>876.31</ele>
        <time>2019-04-27T10:42:09Z</time>
      </trkpt>
      <trkpt lat="44.22755" lon="5.49877">
        <ele>877.046</ele>
        <time>2019-04-27T10:42:20Z</time>
      </trkpt>
      <trkpt lat="44.22767" lon="5.49847">
        <ele>877.934</ele>
        <time>2019-04-27T10:42:31Z</time>
      </trkpt>
      <trkpt lat="44.22777" lon="5.49819">
        <ele>878.742</ele>
        <time>2019-04-27T10:42:41Z</time>
      </trkpt>
      <trkpt lat="44.22789" lon="5.4979">
        <ele>879.59</ele>
        <time>2019-04-27T10:42:51Z</time>
      </trkpt>
      <trkpt lat="44.22801" lon="5.49756">
        <ele>880.515</ele>
        <time>2019-04-27T10:43:02Z</time>
      </trkpt>
      <trkpt lat="44.2281" lon="5.49719">
        <ele>881.279</ele>
        <time>2019-04-27T10:43:12Z</time>
      </trkpt>
      <trkpt lat="44.22818" lon="5.49673">
        <ele>882.059</ele>
        <time>2019-04-27T10:43:23Z</time>
      </trkpt>
      <trkpt lat="44.22825" lon="5.49637">
        <ele>882.838</ele>
        <time>2019-04-27T10:43:33Z</time>
      </trkpt>
      <trkpt lat="44.22832" lon="5.49599">
        <ele>883.431</ele>
        <time>2019-04-27T10:43:43Z</time>
      </trkpt>
      <trkpt lat="44.22839" lon="5.49558">
        <ele>884.209</ele>
        <time>2019-04-27T10:43:54Z</time>
      </trkpt>
      <trkpt lat="44.22846" lon="5.49523">
        <ele>884.966</ele>
        <time>2019-04-27T10:44:04Z</time>
      </trkpt>
      <trkpt lat="44.22853" lon="5.49484">
        <ele>885.774</ele>
        <time>2019-04-27T10:44:15Z</time>
      </trkpt>
      <trkpt lat="44.2286" lon="5.4945">
        <ele>886.542</ele>
        <time>2019-04-27T10:44:25Z</time>
      </trkpt>
      <trkpt lat="44.22866" lon="5.49414">
        <ele>887.226</ele>
        <time>2019-04-27T10:44:36Z</time>
      </trkpt>
      <trkpt lat="44.22873" lon="5.49377">
        <ele>887.881</ele>
        <time>2019-04-27T10:44:47Z</time>
      </trkpt>
      <trkpt lat="44.22879" lon="5.49343">
        <ele>888.498</ele>
        <time>2019-04-27T10:44:57Z</time>
      </trkpt>
      <trkpt lat="44.22886" lon="5.49305">
        <ele>889.16</ele>
        <time>2019-04-27T10:45:08Z</time>
      </trkpt>
      <trkpt lat="44.22893" lon="5.49269">
        <ele>889.751</ele>
        <time>2019-04-27T10:45:18Z</time>
      </trkpt>
      <trkpt lat="44.229" lon="5.49232">
        <ele>890.359</ele>
        <time>2019-04-27T10:45:28Z</time>
      </trkpt>
      <trkpt lat="44.22906" lon="5.49195">
        <ele>891.019</ele>
        <time>2019-04-27T10:45:38Z</time>
      </trkpt>
      <trkpt lat="44.22914" lon="5.49153">
        <ele>891.771</ele>
        <time>2019-04-27T10:45:49Z</time>
      </trkpt>
      <trkpt lat="44.2292" lon="5.49117">
        <ele>892.363</ele>
        <time>2019-04-27T10:45:59Z</time>
      </trkpt>
      <trkpt lat="44.22924" lon="5.49083">
        <ele>893.091</ele>
        <time>2019-04-27T10:46:10Z</time>
      </trkpt>
      <trkpt lat="44.22928" lon="5.49047">
        <ele>893.744</ele>
        <time>2019-04-27T10:46:21Z</time>
      </trkpt>
      <trkpt lat="44.22932" lon="5.49012">
        <ele>894.416</ele>
        <time>2019-04-27T10:46:31Z</time>
      </trkpt>
      <trkpt lat="44.22937" lon="5.48972">
        <ele>895.151</ele>
        <time>2019-04-27T10:46:42Z</time>
      </trkpt>
      <trkpt lat="44.22943" lon="5.48933">
        <ele>895.794</ele>
        <time>2019-04-27T10:46:53Z</time>
      </trkpt>
      <trkpt lat="44.22947" lon="5.48898">
        <ele>896.385</ele>
        <time>2019-04-27T10:47:03Z</time>
      </trkpt>
      <trkpt lat="44.22953" lon="5.48857">
        <ele>896.995</ele>
        <time>2019-04-27T10:47:14Z</time>
      </trkpt>
      <trkpt lat="44.22958" lon="5.48819">
        <ele>897.472</ele>
        <time>2019-04-27T10:47:24Z</time>
      </trkpt>
      <trkpt lat="44.22963" lon="5.48781">
        <ele>897.956</ele>
        <time>2019-04-27T10:47:34Z</time>
      </trkpt>
      <trkpt lat="44.22969" lon="5.48743">
        <ele>898.485</ele>
        <time>2019-04-27T10:47:44Z</time>
      </trkpt>
      <trkpt lat="44.22973" lon="5.48702">
        <ele>899.101</ele>
        <time>2019-04-27T10:47:55Z</time>
      </trkpt>
      <trkpt lat="44.22978" lon="5.48669">
        <ele>899.725</ele>
        <time>2019-04-27T10:48:05Z</time>
      </trkpt>
      <trkpt lat="44.22984" lon="5.48636">
        <ele>900.29</ele>
        <time>2019-04-27T10:48:16Z</time>
      </trkpt>
      <trkpt lat="44.22988" lon="5.48603">
        <ele>901.162</ele>
        <time>2019-04-27T10:48:27Z</time>
      </trkpt>
      <trkpt lat="44.22992" lon="5.48575">
        <ele>901.805</ele>
        <time>2019-04-27T10:48:37Z</time>
      </trkpt>
      <trkpt lat="44.22997" lon="5.48546">
        <ele>902.589</ele>
        <time>2019-04-27T10:48:47Z</time>
      </trkpt>
      <trkpt lat="44.23003" lon="5.48518">
        <ele>903.354</ele>
        <time>2019-04-27T10:48:57Z</time>
      </trkpt>
      <trkpt lat="44.23008" lon="5.48493">
        <ele>904.15</ele>
        <time>2019-04-27T10:49:08Z</time>
      </trkpt>
      <trkpt lat="44.23016" lon="5.48464">
        <ele>904.965</ele>
        <time>2019-04-27T10:49:19Z</time>
      </trkpt>
      <trkpt lat="44.23022" lon="5.48439">
        <ele>905.743</ele>
        <time>2019-04-27T10:49:29Z</time>
      </trkpt>
      <trkpt lat="44.23031" lon="5.48407">
        <ele>906.578</ele>
        <time>2019-04-27T10:49:40Z</time>
      </trkpt>
      <trkpt lat="44.23039" lon="5.48376">
        <ele>907.452</ele>
        <time>2019-04-27T10:49:51Z</time>
      </trkpt>
      <trkpt lat="44.23047" lon="5.48348">
        <ele>908.274</ele>
        <time>2019-04-27T10:50:01Z</time>
      </trkpt>
      <trkpt lat="44.23053" lon="5.48318">
        <ele>909.149</ele>
        <time>2019-04-27T10:50:12Z</time>
      </trkpt>
      <trkpt lat="44.2306" lon="5.48292">
        <ele>910.232</ele>
        <time>2019-04-27T10:50:22Z</time>
      </trkpt>
      <trkpt lat="44.23068" lon="5.48265">
        <ele>911.384</ele>
        <time>2019-04-27T10:50:32Z</time>
      </trkpt>
      <trkpt lat="44.23074" lon="5.48241">
        <ele>912.658</ele>
        <time>2019-04-27T10:50:43Z</time>
      </trkpt>
      <trkpt lat="44.2308" lon="5.48218">
        <ele>913.873</ele>
        <time>2019-04-27T10:50:54Z</time>
      </trkpt>
      <trkpt lat="44.23085" lon="5.48196">
        <ele>915.026</ele>
        <time>2019-04-27T10:51:04Z</time>
      </trkpt>
      <trkpt lat="44.2309" lon="5.48173">
        <ele>916.313</ele>
        <time>2019-04-27T10:51:15Z</time>
      </trkpt>
      <trkpt lat="44.23094" lon="5.48153">
        <ele>917.424</ele>
        <time>2019-04-27T10:51:25Z</time>
      </trkpt>
      <trkpt lat="44.23096" lon="5.48131">
        <ele>918.59</ele>
        <time>2019-04-27T10:51:36Z</time>
      </trkpt>
      <trkpt lat="44.23099" lon="5.48107">
        <ele>919.835</ele>
        <time>2019-04-27T10:51:47Z</time>
      </trkpt>
      <trkpt lat="44.231" lon="5.48084">
        <ele>920.982</ele>
        <time>2019-04-27T10:51:57Z</time>
      </trkpt>
      <trkpt lat="44.23103" lon="5.48059">
        <ele>922.267</ele>
        <time>2019-04-27T10:52:08Z</time>
      </trkpt>
      <trkpt lat="44.23106" lon="5.48034">
        <ele>923.503</ele>
        <time>2019-04-27T10:52:18Z</time>
      </trkpt>
      <trkpt lat="44.23108" lon="5.48007">
        <ele>924.723</ele>
        <time>2019-04-27T10:52:29Z</time>
      </trkpt>
      <trkpt lat="44.23111" lon="5.47979">
        <ele>925.818</ele>
        <time>2019-04-27T10:52:39Z</time>
      </trkpt>
      <trkpt lat="44.23113" lon="5.47953">
        <ele>927.083</ele>
        <time>2019-04-27T10:52:50Z</time>
      </trkpt>
      <trkpt lat="44.23115" lon="5.47931">
        <ele>928.157</ele>
        <time>2019-04-27T10:53:00Z</time>
      </trkpt>
      <trkpt lat="44.23118" lon="5.47903">
        <ele>929.234</ele>
        <time>2019-04-27T10:53:11Z</time>
      </trkpt>
      <trkpt lat="44.2312" lon="5.47875">
        <ele>930.219</ele>
        <time>2019-04-27T10:53:22Z</time>
      </trkpt>
      <trkpt lat="44.23123" lon="5.47849">
        <ele>930.973</ele>
        <time>2019-04-27T10:53:32Z</time>
      </trkpt>
      <trkpt lat="44.23126" lon="5.47818">
        <ele>931.875</ele>
        <time>2019-04-27T10:53:43Z</time>
      </trkpt>
      <trkpt lat="44.23129" lon="5.47789">
        <ele>932.778</ele>
        <time>2019-04-27T10:53:54Z</time>
      </trkpt>
      <trkpt lat="44.23131" lon="5.4776">
        <ele>933.614</ele>
        <time>2019-04-27T10:54:04Z</time>
      </trkpt>
      <trkpt lat="44.23134" lon="5.4773">
        <ele>934.561</ele>
        <time>2019-04-27T10:54:15Z</time>
      </trkpt>
      <trkpt lat="44.23136" lon="5.47702">
        <ele>935.461</ele>
        <time>2019-04-27T10:54:25Z</time>
      </trkpt>
      <trkpt lat="44.23141" lon="5.47667">
        <ele>936.442</ele>
        <time>2019-04-27T10:54:36Z</time>
      </trkpt>
      <trkpt lat="44.23144" lon="5.47614">
        <ele>938.251</ele>
        <time>2019-04-27T10:54:46Z</time>
      </trkpt>
      <trkpt lat="44.23143" lon="5.47522">
        <ele>935.48</ele>
        <time>2019-04-27T10:54:57Z</time>
      </trkpt>
      <trkpt lat="44.23179" lon="5.47428">
        <ele>931.514</ele>
        <time>2019-04-27T10:55:07Z</time>
      </trkpt>
      <trkpt lat="44.23229" lon="5.4735">
        <ele>928.71</ele>
        <time>2019-04-27T10:55:17Z</time>
      </trkpt>
      <trkpt lat="44.23283" lon="5.47268">
        <ele>924.627</ele>
        <time>2019-04-27T10:55:28Z</time>
      </trkpt>
      <trkpt lat="44.23334" lon="5.47202">
        <ele>921.023</ele>
        <time>2019-04-27T10:55:38Z</time>
      </trkpt>
      <trkpt lat="44.23399" lon="5.47138">
        <ele>917.072</ele>
        <time>2019-04-27T10:55:49Z</time>
      </trkpt>
      <trkpt lat="44.23462" lon="5.47094">
        <ele>913.318</ele>
        <time>2019-04-27T10:55:59Z</time>
      </trkpt>
      <trkpt lat="44.23533" lon="5.47042">
        <ele>909.286</ele>
        <time>2019-04-27T10:56:10Z</time>
      </trkpt>
      <trkpt lat="44.23604" lon="5.46991">
        <ele>905.542</ele>
        <time>2019-04-27T10:56:21Z</time>
      </trkpt>
      <trkpt lat="44.23664" lon="5.46947">
        <ele>902.436</ele>
        <time>2019-04-27T10:56:31Z</time>
      </trkpt>
      <trkpt lat="44.23732" lon="5.46897">
        <ele>899.113</ele>
        <time>2019-04-27T10:56:42Z</time>
      </trkpt>
      <trkpt lat="44.23804" lon="5.46845">
        <ele>895.765</ele>
        <time>2019-04-27T10:56:53Z</time>
      </trkpt>
      <trkpt lat="44.23864" lon="5.46802">
        <ele>893.671</ele>
        <time>2019-04-27T10:57:03Z</time>
      </trkpt>
      <trkpt lat="44.23915" lon="5.46746">
        <ele>890.665</ele>
        <time>2019-04-27T10:57:14Z</time>
      </trkpt>
      <trkpt lat="44.23956" lon="5.46686">
        <ele>888.595</ele>
        <time>2019-04-27T10:57:24Z</time>
      </trkpt>
      <trkpt lat="44.23993" lon="5.46628">
        <ele>886.513</ele>
        <time>2019-04-27T10:57:34Z</time>
      </trkpt>
      <trkpt lat="44.24033" lon="5.46566">
        <ele>883.163</ele>
        <time>2019-04-27T10:57:45Z</time>
      </trkpt>
      <trkpt lat="44.24066" lon="5.46517">
        <ele>880.944</ele>
        <time>2019-04-27T10:57:55Z</time>
      </trkpt>
      <trkpt lat="44.24087" lon="5.46459">
        <ele>879.758</ele>
        <time>2019-04-27T10:58:06Z</time>
      </trkpt>
      <trkpt lat="44.24085" lon="5.46405">
        <ele>879.092</ele>
        <time>2019-04-27T10:58:16Z</time>
      </trkpt>
      <trkpt lat="44.24088" lon="5.46361">
        <ele>879.022</ele>
        <time>2019-04-27T10:58:27Z</time>
      </trkpt>
      <trkpt lat="44.24099" lon="5.46327">
        <ele>878.995</ele>
        <time>2019-04-27T10:58:37Z</time>
      </trkpt>
      <trkpt lat="44.24113" lon="5.46289">
        <ele>878.896</ele>
        <time>2019-04-27T10:58:48Z</time>
      </trkpt>
      <trkpt lat="44.24124" lon="5.46244">
        <ele>878.677</ele>
        <time>2019-04-27T10:58:58Z</time>
      </trkpt>
      <trkpt lat="44.24135" lon="5.46185">
        <ele>878.387</ele>
        <time>2019-04-27T10:59:09Z</time>
      </trkpt>
      <trkpt lat="44.24162" lon="5.46128">
        <ele>877.993</ele>
        <time>2019-04-27T10:59:20Z</time>
      </trkpt>
      <trkpt lat="44.24196" lon="5.46079">
        <ele>877.396</ele>
        <time>2019-04-27T10:59:30Z</time>
      </trkpt>
      <trkpt lat="44.24241" lon="5.46045">
        <ele>876.981</ele>
        <time>2019-04-27T10:59:41Z</time>
      </trkpt>
      <trkpt lat="44.24285" lon="5.46022">
        <ele>876.614</ele>
        <time>2019-04-27T10:59:51Z</time>
      </trkpt>
      <trkpt lat="44.24303" lon="5.45967">
        <ele>875.954</ele>
        <time>2019-04-27T11:00:01Z</time>
      </trkpt>
      <trkpt lat="44.24309" lon="5.45894">
        <ele>875.185</ele>
        <time>2019-04-27T11:00:12Z</time>
      </trkpt>
      <trkpt lat="44.24329" lon="5.45836">
        <ele>874.434</ele>
        <time>2019-04-27T11:00:22Z</time>
      </trkpt>
      <trkpt lat="44.24352" lon="5.45775">
        <ele>872.865</ele>
        <time>2019-04-27T11:00:32Z</time>
      </trkpt>
      <trkpt lat="44.24374" lon="5.45698">
        <ele>871.252</ele>
        <time>2019-04-27T11:00:43Z</time>
      </trkpt>
      <trkpt lat="44.24383" lon="5.45622">
        <ele>869.98</ele>
        <time>2019-04-27T11:00:53Z</time>
      </trkpt>
      <trkpt lat="44.24381" lon="5.45533">
        <ele>868.628</ele>
        <time>2019-04-27T11:01:04Z</time>
      </trkpt>
      <trkpt lat="44.24382" lon="5.45447">
        <ele>867.189</ele>
        <time>2019-04-27T11:01:14Z</time>
      </trkpt>
      <trkpt lat="44.24393" lon="5.45356">
        <ele>865.653</ele>
        <time>2019-04-27T11:01:25Z</time>
      </trkpt>
      <trkpt lat="44.24421" lon="5.45283">
        <ele>864.207</ele>
        <time>2019-04-27T11:01:36Z</time>
      </trkpt>
      <trkpt lat="44.24451" lon="5.45223">
        <ele>862.652</ele>
        <time>2019-04-27T11:01:46Z</time>
      </trkpt>
      <trkpt lat="44.24493" lon="5.45167">
        <ele>861.226</ele>
        <time>2019-04-27T11:01:56Z</time>
      </trkpt>
      <trkpt lat="44.24539" lon="5.45118">
        <ele>859.715</ele>
        <time>2019-04-27T11:02:07Z</time>
      </trkpt>
      <trkpt lat="44.24578" lon="5.45064">
        <ele>857.894</ele>
        <time>2019-04-27T11:02:17Z</time>
      </trkpt>
      <trkpt lat="44.24616" lon="5.45006">
        <ele>856.818</ele>
        <time>2019-04-27T11:02:27Z</time>
      </trkpt>
      <trkpt lat="44.24653" lon="5.44945">
        <ele>855.79</ele>
        <time>2019-04-27T11:02:38Z</time>
      </trkpt>
      <trkpt lat="44.24684" lon="5.4489">
        <ele>853.861</ele>
        <time>2019-04-27T11:02:48Z</time>
      </trkpt>
      <trkpt lat="44.24712" lon="5.44815">
        <ele>851.718</ele>
        <time>2019-04-27T11:02:59Z</time>
      </trkpt>
      <trkpt lat="44.24744" lon="5.44739">
        <ele>850.251</ele>
        <time>2019-04-27T11:03:10Z</time>
      </trkpt>
      <trkpt lat="44.24791" lon="5.44695">
        <ele>848.678</ele>
        <time>2019-04-27T11:03:20Z</time>
      </trkpt>
      <trkpt lat="44.24848" lon="5.44643">
        <ele>846.555</ele>
        <time>2019-04-27T11:03:31Z</time>
      </trkpt>
      <trkpt lat="44.24898" lon="5.44592">
        <ele>845.088</ele>
        <time>2019-04-27T11:03:42Z</time>
      </trkpt>
      <trkpt lat="44.24948" lon="5.44538">
        <ele>844.004</ele>
        <time>2019-04-27T11:03:52Z</time>
      </trkpt>
      <trkpt lat="44.25011" lon="5.44484">
        <ele>842.282</ele>
        <time>2019-04-27T11:04:03Z</time>
      </trkpt>
      <trkpt lat="44.25062" lon="5.44428">
        <ele>840.615</ele>
        <time>2019-04-27T11:04:13Z</time>
      </trkpt>
      <trkpt lat="44.25117" lon="5.44367">
        <ele>838.082</ele>
        <time>2019-04-27T11:04:24Z</time>
      </trkpt>
      <trkpt lat="44.2518" lon="5.44337">
        <ele>835.925</ele>
        <time>2019-04-27T11:04:35Z</time>
      </trkpt>
      <trkpt lat="44.25161" lon="5.44328">
        <ele>834.022</ele>
        <time>2019-04-27T11:04:45Z</time>
      </trkpt>
      <trkpt lat="44.25104" lon="5.44292">
        <ele>832.404</ele>
        <time>2019-04-27T11:04:56Z</time>
      </trkpt>
      <trkpt lat="44.2505" lon="5.44234">
        <ele>831.061</ele>
        <time>2019-04-27T11:05:07Z</time>
      </trkpt>
      <trkpt lat="44.25011" lon="5.44194">
        <ele>830.126</ele>
        <time>2019-04-27T11:05:17Z</time>
      </trkpt>
      <trkpt lat="44.24977" lon="5.44165">
        <ele>829.931</ele>
        <time>2019-04-27T11:05:27Z</time>
      </trkpt>
      <trkpt lat="44.24937" lon="5.44148">
        <ele>830.254</ele>
        <time>2019-04-27T11:05:38Z</time>
      </trkpt>
      <trkpt lat="44.24899" lon="5.44149">
        <ele>830.797</ele>
        <time>2019-04-27T11:05:48Z</time>
      </trkpt>
      <trkpt lat="44.24893" lon="5.44148">
        <ele>830.982</ele>
        <time>2019-04-27T11:05:59Z</time>
      </trkpt>
      <trkpt lat="44.24893" lon="5.44148">
        <ele>831.057</ele>
        <time>2019-04-27T11:06:10Z</time>
      </trkpt>
      <trkpt lat="44.24893" lon="5.44148">
        <ele>831.146</ele>
        <time>2019-04-27T11:06:20Z</time>
      </trkpt>
      <trkpt lat="44.24893" lon="5.44148">
        <ele>831.264</ele>
        <time>2019-04-27T11:06:31Z</time>
      </trkpt>
      <trkpt lat="44.24893" lon="5.44148">
        <ele>831.385</ele>
        <time>2019-04-27T11:06:41Z</time>
      </trkpt>
      <trkpt lat="44.24893" lon="5.44148">
        <ele>831.51</ele>
        <time>2019-04-27T11:06:51Z</time>
      </trkpt>
      <trkpt lat="44.24893" lon="5.44148">
        <ele>831.638</ele>
        <time>2019-04-27T11:07:01Z</time>
      </trkpt>
      <trkpt lat="44.24893" lon="5.44148">
        <ele>831.779</ele>
        <time>2019-04-27T11:07:12Z</time>
      </trkpt>
      <trkpt lat="44.24893" lon="5.44148">
        <ele>831.903</ele>
        <time>2019-04-27T11:07:22Z</time>
      </trkpt>
      <trkpt lat="44.24893" lon="5.44148">
        <ele>832.043</ele>
        <time>2019-04-27T11:07:33Z</time>
      </trkpt>
      <trkpt lat="44.24893" lon="5.44148">
        <ele>832.179</ele>
        <time>2019-04-27T11:07:44Z</time>
      </trkpt>
      <trkpt lat="44.24893" lon="5.44148">
        <ele>832.308</ele>
        <time>2019-04-27T11:07:55Z</time>
      </trkpt>
      <trkpt lat="44.24893" lon="5.44148">
        <ele>832.419</ele>
        <time>2019-04-27T11:08:05Z</time>
      </trkpt>
      <trkpt lat="44.24893" lon="5.44148">
        <ele>832.676</ele>
        <time>2019-04-27T11:08:16Z</time>
      </trkpt>
      <trkpt lat="44.24893" lon="5.44148">
        <ele>832.986</ele>
        <time>2019-04-27T11:08:26Z</time>
      </trkpt>
      <trkpt lat="44.24893" lon="5.44148">
        <ele>833.093</ele>
        <time>2019-04-27T11:08:37Z</time>
      </trkpt>
      <trkpt lat="44.24887" lon="5.44139">
        <ele>833.869</ele>
        <time>2019-04-27T11:08:47Z</time>
      </trkpt>
      <trkpt lat="44.24858" lon="5.4411">
        <ele>834.641</ele>
        <time>2019-04-27T11:08:58Z</time>
      </trkpt>
      <trkpt lat="44.24829" lon="5.44081">
        <ele>834.982</ele>
        <time>2019-04-27T11:09:08Z</time>
      </trkpt>
      <trkpt lat="44.24795" lon="5.44051">
        <ele>835.35</ele>
        <time>2019-04-27T11:09:19Z</time>
      </trkpt>
      <trkpt lat="44.24761" lon="5.4402">
        <ele>835.584</ele>
        <time>2019-04-27T11:09:30Z</time>
      </trkpt>
      <trkpt lat="44.2473" lon="5.43999">
        <ele>835.725</ele>
        <time>2019-04-27T11:09:41Z</time>
      </trkpt>
      <trkpt lat="44.24702" lon="5.43989">
        <ele>835.977</ele>
        <time>2019-04-27T11:09:51Z</time>
      </trkpt>
      <trkpt lat="44.2467" lon="5.4398">
        <ele>836.593</ele>
        <time>2019-04-27T11:10:02Z</time>
      </trkpt>
      <trkpt lat="44.24638" lon="5.43973">
        <ele>837.781</ele>
        <time>2019-04-27T11:10:12Z</time>
      </trkpt>
      <trkpt lat="44.24607" lon="5.43967">
        <ele>838.83</ele>
        <time>2019-04-27T11:10:22Z</time>
      </trkpt>
      <trkpt lat="44.24578" lon="5.43962">
        <ele>839.739</ele>
        <time>2019-04-27T11:10:33Z</time>
      </trkpt>
      <trkpt lat="44.24555" lon="5.43958">
        <ele>840.656</ele>
        <time>2019-04-27T11:10:43Z</time>
      </trkpt>
      <trkpt lat="44.24531" lon="5.43955">
        <ele>841.834</ele>
        <time>2019-04-27T11:10:54Z</time>
      </trkpt>
      <trkpt lat="44.24508" lon="5.43952">
        <ele>843.397</ele>
        <time>2019-04-27T11:11:05Z</time>
      </trkpt>
      <trkpt lat="44.24481" lon="5.43945">
        <ele>845.041</ele>
        <time>2019-04-27T11:11:16Z</time>
      </trkpt>
      <trkpt lat="44.24456" lon="5.43935">
        <ele>846.512</ele>
        <time>2019-04-27T11:11:26Z</time>
      </trkpt>
      <trkpt lat="44.24435" lon="5.43923">
        <ele>848.001</ele>
        <time>2019-04-27T11:11:36Z</time>
      </trkpt>
      <trkpt lat="44.24414" lon="5.43911">
        <ele>850.009</ele>
        <time>2019-04-27T11:11:46Z</time>
      </trkpt>
      <trkpt lat="44.24389" lon="5.43901">
        <ele>851.512</ele>
        <time>2019-04-27T11:11:57Z</time>
      </trkpt>
      <trkpt lat="44.24354" lon="5.43896">
        <ele>852.422</ele>
        <time>2019-04-27T11:12:08Z</time>
      </trkpt>
      <trkpt lat="44.24321" lon="5.43891">
        <ele>853.13</ele>
        <time>2019-04-27T11:12:18Z</time>
      </trkpt>
      <trkpt lat="44.24287" lon="5.43884">
        <ele>853.801</ele>
        <time>2019-04-27T11:12:29Z</time>
      </trkpt>
      <trkpt lat="44.24255" lon="5.439">
        <ele>854.317</ele>
        <time>2019-04-27T11:12:40Z</time>
      </trkpt>
      <trkpt lat="44.2423" lon="5.43927">
        <ele>855.194</ele>
        <time>2019-04-27T11:12:50Z</time>
      </trkpt>
      <trkpt lat="44.24201" lon="5.43952">
        <ele>856.745</ele>
        <time>2019-04-27T11:13:01Z</time>
      </trkpt>
      <trkpt lat="44.24169" lon="5.43968">
        <ele>858.15</ele>
        <time>2019-04-27T11:13:12Z</time>
      </trkpt>
      <trkpt lat="44.24134" lon="5.43952">
        <ele>859.006</ele>
        <time>2019-04-27T11:13:23Z</time>
      </trkpt>
      <trkpt lat="44.24098" lon="5.43944">
        <ele>861.337</ele>
        <time>2019-04-27T11:13:33Z</time>
      </trkpt>
      <trkpt lat="44.24065" lon="5.43942">
        <ele>861.47</ele>
        <time>2019-04-27T11:13:44Z</time>
      </trkpt>
      <trkpt lat="44.24038" lon="5.43932">
        <ele>861.923</ele>
        <time>2019-04-27T11:13:55Z</time>
      </trkpt>
      <trkpt lat="44.24014" lon="5.43928">
        <ele>862.607</ele>
        <time>2019-04-27T11:14:05Z</time>
      </trkpt>
      <trkpt lat="44.23988" lon="5.43932">
        <ele>863.529</ele>
        <time>2019-04-27T11:14:16Z</time>
      </trkpt>
      <trkpt lat="44.23966" lon="5.43936">
        <ele>864.419</ele>
        <time>2019-04-27T11:14:26Z</time>
      </trkpt>
      <trkpt lat="44.23946" lon="5.43919">
        <ele>865.387</ele>
        <time>2019-04-27T11:14:37Z</time>
      </trkpt>
      <trkpt lat="44.23937" lon="5.43892">
        <ele>866.394</ele>
        <time>2019-04-27T11:14:47Z</time>
      </trkpt>
      <trkpt lat="44.23929" lon="5.4386">
        <ele>867.67</ele>
        <time>2019-04-27T11:14:58Z</time>
      </trkpt>
      <trkpt lat="44.23928" lon="5.43835">
        <ele>868.699</ele>
        <time>2019-04-27T11:15:08Z</time>
      </trkpt>
      <trkpt lat="44.23932" lon="5.43808">
        <ele>869.824</ele>
        <time>2019-04-27T11:15:19Z</time>
      </trkpt>
      <trkpt lat="44.23935" lon="5.43783">
        <ele>870.92</ele>
        <time>2019-04-27T11:15:29Z</time>
      </trkpt>
      <trkpt lat="44.23923" lon="5.43762">
        <ele>872.511</ele>
        <time>2019-04-27T11:15:40Z</time>
      </trkpt>
      <trkpt lat="44.23901" lon="5.43773">
        <ele>874.201</ele>
        <time>2019-04-27T11:15:51Z</time>
      </trkpt>
      <trkpt lat="44.23891" lon="5.43801">
        <ele>875.276</ele>
        <time>2019-04-27T11:16:01Z</time>
      </trkpt>
      <trkpt lat="44.23885" lon="5.43825">
        <ele>876.511</ele>
        <time>2019-04-27T11:16:11Z</time>
      </trkpt>
      <trkpt lat="44.23867" lon="5.43837">
        <ele>878.17</ele>
        <time>2019-04-27T11:16:22Z</time>
      </trkpt>
      <trkpt lat="44.23848" lon="5.4384">
        <ele>879.247</ele>
        <time>2019-04-27T11:16:32Z</time>
      </trkpt>
      <trkpt lat="44.23825" lon="5.43843">
        <ele>880.434</ele>
        <time>2019-04-27T11:16:43Z</time>
      </trkpt>
      <trkpt lat="44.23802" lon="5.43839">
        <ele>881.614</ele>
        <time>2019-04-27T11:16:53Z</time>
      </trkpt>
      <trkpt lat="44.23776" lon="5.43828">
        <ele>883.067</ele>
        <time>2019-04-27T11:17:04Z</time>
      </trkpt>
      <trkpt lat="44.23753" lon="5.43809">
        <ele>884.563</ele>
        <time>2019-04-27T11:17:15Z</time>
      </trkpt>
      <trkpt lat="44.23731" lon="5.43798">
        <ele>886.045</ele>
        <time>2019-04-27T11:17:26Z</time>
      </trkpt>
      <trkpt lat="44.2371" lon="5.43798">
        <ele>887.308</ele>
        <time>2019-04-27T11:17:36Z</time>
      </trkpt>
      <trkpt lat="44.23689" lon="5.43777">
        <ele>888.468</ele>
        <time>2019-04-27T11:17:46Z</time>
      </trkpt>
      <trkpt lat="44.23664" lon="5.43742">
        <ele>889.62</ele>
        <time>2019-04-27T11:17:57Z</time>
      </trkpt>
      <trkpt lat="44.23626" lon="5.43745">
        <ele>890.789</ele>
        <time>2019-04-27T11:18:08Z</time>
      </trkpt>
      <trkpt lat="44.23607" lon="5.43813">
        <ele>887.479</ele>
        <time>2019-04-27T11:18:19Z</time>
      </trkpt>
      <trkpt lat="44.23598" lon="5.43821">
        <ele>887.353</ele>
        <time>2019-04-27T11:18:29Z</time>
      </trkpt>
      <trkpt lat="44.23598" lon="5.43821">
        <ele>887.339</ele>
        <time>2019-04-27T11:18:39Z</time>
      </trkpt>
      <trkpt lat="44.23598" lon="5.4382">
        <ele>887.324</ele>
        <time>2019-04-27T11:18:49Z</time>
      </trkpt>
      <trkpt lat="44.23598" lon="5.43819">
        <ele>887.358</ele>
        <time>2019-04-27T11:19:00Z</time>
      </trkpt>
      <trkpt lat="44.23598" lon="5.43819">
        <ele>887.71</ele>
        <time>2019-04-27T11:19:11Z</time>
      </trkpt>
      <trkpt lat="44.23598" lon="5.43822">
        <ele>887.792</ele>
        <time>2019-04-27T11:19:21Z</time>
      </trkpt>
      <trkpt lat="44.23593" lon="5.43824">
        <ele>887.418</ele>
        <time>2019-04-27T11:19:32Z</time>
      </trkpt>
      <trkpt lat="44.23594" lon="5.43822">
        <ele>887.328</ele>
        <time>2019-04-27T11:19:42Z</time>
      </trkpt>
      <trkpt lat="44.23594" lon="5.43822">
        <ele>887.372</ele>
        <time>2019-04-27T11:19:52Z</time>
      </trkpt>
      <trkpt lat="44.23594" lon="5.43822">
        <ele>887.412</ele>
        <time>2019-04-27T11:20:03Z</time>
      </trkpt>
      <trkpt lat="44.23595" lon="5.43822">
        <ele>887.467</ele>
        <time>2019-04-27T11:20:13Z</time>
      </trkpt>
      <trkpt lat="44.23595" lon="5.43822">
        <ele>887.545</ele>
        <time>2019-04-27T11:20:24Z</time>
      </trkpt>
      <trkpt lat="44.23595" lon="5.43822">
        <ele>887.611</ele>
        <time>2019-04-27T11:20:35Z</time>
      </trkpt>
      <trkpt lat="44.23595" lon="5.43821">
        <ele>887.659</ele>
        <time>2019-04-27T11:20:45Z</time>
      </trkpt>
      <trkpt lat="44.23595" lon="5.43821">
        <ele>887.693</ele>
        <time>2019-04-27T11:20:55Z</time>
      </trkpt>
      <trkpt lat="44.23596" lon="5.43821">
        <ele>887.721</ele>
        <time>2019-04-27T11:21:06Z</time>
      </trkpt>
      <trkpt lat="44.23596" lon="5.43821">
        <ele>887.74</ele>
        <time>2019-04-27T11:21:16Z</time>
      </trkpt>
      <trkpt lat="44.23596" lon="5.43821">
        <ele>887.759</ele>
        <time>2019-04-27T11:21:27Z</time>
      </trkpt>
      <trkpt lat="44.23596" lon="5.43821">
        <ele>887.791</ele>
        <time>2019-04-27T11:21:38Z</time>
      </trkpt>
      <trkpt lat="44.23596" lon="5.43821">
        <ele>887.815</ele>
        <time>2019-04-27T11:21:49Z</time>
      </trkpt>
      <trkpt lat="44.23596" lon="5.43821">
        <ele>887.81</ele>
        <time>2019-04-27T11:22:00Z</time>
      </trkpt>
      <trkpt lat="44.23596" lon="5.43821">
        <ele>887.789</ele>
        <time>2019-04-27T11:22:10Z</time>
      </trkpt>
      <trkpt lat="44.23596" lon="5.43821">
        <ele>887.773</ele>
        <time>2019-04-27T11:22:21Z</time>
      </trkpt>
      <trkpt lat="44.23596" lon="5.43821">
        <ele>887.749</ele>
        <time>2019-04-27T11:22:31Z</time>
      </trkpt>
      <trkpt lat="44.23596" lon="5.43821">
        <ele>887.725</ele>
        <time>2019-04-27T11:22:42Z</time>
      </trkpt>
      <trkpt lat="44.23596" lon="5.43821">
        <ele>887.71</ele>
        <time>2019-04-27T11:22:53Z</time>
      </trkpt>
      <trkpt lat="44.23596" lon="5.43821">
        <ele>887.711</ele>
        <time>2019-04-27T11:23:03Z</time>
      </trkpt>
      <trkpt lat="44.23597" lon="5.43821">
        <ele>887.705</ele>
        <time>2019-04-27T11:23:14Z</time>
      </trkpt>
      <trkpt lat="44.23597" lon="5.43821">
        <ele>887.693</ele>
        <time>2019-04-27T11:23:25Z</time>
      </trkpt>
      <trkpt lat="44.23597" lon="5.43821">
        <ele>887.676</ele>
        <time>2019-04-27T11:23:35Z</time>
      </trkpt>
      <trkpt lat="44.23597" lon="5.43821">
        <ele>887.648</ele>
        <time>2019-04-27T11:23:46Z</time>
      </trkpt>
      <trkpt lat="44.23597" lon="5.43821">
        <ele>887.61</ele>
        <time>2019-04-27T11:23:56Z</time>
      </trkpt>
      <trkpt lat="44.23597" lon="5.43821">
        <ele>887.565</ele>
        <time>2019-04-27T11:24:07Z</time>
      </trkpt>
      <trkpt lat="44.23597" lon="5.43821">
        <ele>887.534</ele>
        <time>2019-04-27T11:24:17Z</time>
      </trkpt>
      <trkpt lat="44.23597" lon="5.43821">
        <ele>887.494</ele>
        <time>2019-04-27T11:24:28Z</time>
      </trkpt>
      <trkpt lat="44.23598" lon="5.43821">
        <ele>887.458</ele>
        <time>2019-04-27T11:24:38Z</time>
      </trkpt>
      <trkpt lat="44.23598" lon="5.43821">
        <ele>887.421</ele>
        <time>2019-04-27T11:24:49Z</time>
      </trkpt>
      <trkpt lat="44.23598" lon="5.4382">
        <ele>887.404</ele>
        <time>2019-04-27T11:24:59Z</time>
      </trkpt>
      <trkpt lat="44.23598" lon="5.4382">
        <ele>887.4</ele>
        <time>2019-04-27T11:25:10Z</time>
      </trkpt>
      <trkpt lat="44.23598" lon="5.43821">
        <ele>887.409</ele>
        <time>2019-04-27T11:25:21Z</time>
      </trkpt>
      <trkpt lat="44.23598" lon="5.43821">
        <ele>887.419</ele>
        <time>2019-04-27T11:25:31Z</time>
      </trkpt>
      <trkpt lat="44.23598" lon="5.43821">
        <ele>887.432</ele>
        <time>2019-04-27T11:25:42Z</time>
      </trkpt>
      <trkpt lat="44.23598" lon="5.4382">
        <ele>887.438</ele>
        <time>2019-04-27T11:25:52Z</time>
      </trkpt>
      <trkpt lat="44.23598" lon="5.4382">
        <ele>887.434</ele>
        <time>2019-04-27T11:26:02Z</time>
      </trkpt>
      <trkpt lat="44.23598" lon="5.4382">
        <ele>887.433</ele>
        <time>2019-04-27T11:26:13Z</time>
      </trkpt>
      <trkpt lat="44.23598" lon="5.4382">
        <ele>887.414</ele>
        <time>2019-04-27T11:26:23Z</time>
      </trkpt>
      <trkpt lat="44.23598" lon="5.4382">
        <ele>887.396</ele>
        <time>2019-04-27T11:26:33Z</time>
      </trkpt>
      <trkpt lat="44.23598" lon="5.43819">
        <ele>887.397</ele>
        <time>2019-04-27T11:26:44Z</time>
      </trkpt>
      <trkpt lat="44.23598" lon="5.4382">
        <ele>887.408</ele>
        <time>2019-04-27T11:26:54Z</time>
      </trkpt>
      <trkpt lat="44.23597" lon="5.4382">
        <ele>887.425</ele>
        <time>2019-04-27T11:27:05Z</time>
      </trkpt>
      <trkpt lat="44.23597" lon="5.4382">
        <ele>887.452</ele>
        <time>2019-04-27T11:27:15Z</time>
      </trkpt>
      <trkpt lat="44.23597" lon="5.4382">
        <ele>887.477</ele>
        <time>2019-04-27T11:27:25Z</time>
      </trkpt>
      <trkpt lat="44.23597" lon="5.4382">
        <ele>887.501</ele>
        <time>2019-04-27T11:27:36Z</time>
      </trkpt>
      <trkpt lat="44.23597" lon="5.4382">
        <ele>887.526</ele>
        <time>2019-04-27T11:27:47Z</time>
      </trkpt>
      <trkpt lat="44.23597" lon="5.4382">
        <ele>887.546</ele>
        <time>2019-04-27T11:27:58Z</time>
      </trkpt>
      <trkpt lat="44.23597" lon="5.4382">
        <ele>887.561</ele>
        <time>2019-04-27T11:28:08Z</time>
      </trkpt>
      <trkpt lat="44.23597" lon="5.4382">
        <ele>887.584</ele>
        <time>2019-04-27T11:28:19Z</time>
      </trkpt>
      <trkpt lat="44.23597" lon="5.4382">
        <ele>887.606</ele>
        <time>2019-04-27T11:28:30Z</time>
      </trkpt>
      <trkpt lat="44.23597" lon="5.4382">
        <ele>887.637</ele>
        <time>2019-04-27T11:28:40Z</time>
      </trkpt>
      <trkpt lat="44.23597" lon="5.4382">
        <ele>887.66</ele>
        <time>2019-04-27T11:28:50Z</time>
      </trkpt>
      <trkpt lat="44.23597" lon="5.4382">
        <ele>887.715</ele>
        <time>2019-04-27T11:29:01Z</time>
      </trkpt>
      <trkpt lat="44.23597" lon="5.4382">
        <ele>887.753</ele>
        <time>2019-04-27T11:29:12Z</time>
      </trkpt>
      <trkpt lat="44.23597" lon="5.4382">
        <ele>887.776</ele>
        <time>2019-04-27T11:29:23Z</time>
      </trkpt>
      <trkpt lat="44.23597" lon="5.4382">
        <ele>887.793</ele>
        <time>2019-04-27T11:29:33Z</time>
      </trkpt>
      <trkpt lat="44.23597" lon="5.4382">
        <ele>887.811</ele>
        <time>2019-04-27T11:29:44Z</time>
      </trkpt>
      <trkpt lat="44.23597" lon="5.4382">
        <ele>887.823</ele>
        <time>2019-04-27T11:29:55Z</time>
      </trkpt>
      <trkpt lat="44.23597" lon="5.4382">
        <ele>887.83</ele>
        <time>2019-04-27T11:30:06Z</time>
      </trkpt>
      <trkpt lat="44.23597" lon="5.4382">
        <ele>887.834</ele>
        <time>2019-04-27T11:30:16Z</time>
      </trkpt>
      <trkpt lat="44.23597" lon="5.4382">
        <ele>887.842</ele>
        <time>2019-04-27T11:30:26Z</time>
      </trkpt>
      <trkpt lat="44.23597" lon="5.4382">
        <ele>887.847</ele>
        <time>2019-04-27T11:30:36Z</time>
      </trkpt>
      <trkpt lat="44.23597" lon="5.4382">
        <ele>887.848</ele>
        <time>2019-04-27T11:30:47Z</time>
      </trkpt>
      <trkpt lat="44.23597" lon="5.4382">
        <ele>887.842</ele>
        <time>2019-04-27T11:30:57Z</time>
      </trkpt>
      <trkpt lat="44.23597" lon="5.43819">
        <ele>887.845</ele>
        <time>2019-04-27T11:31:08Z</time>
      </trkpt>
      <trkpt lat="44.23597" lon="5.43819">
        <ele>887.842</ele>
        <time>2019-04-27T11:31:19Z</time>
      </trkpt>
      <trkpt lat="44.23597" lon="5.4382">
        <ele>887.829</ele>
        <time>2019-04-27T11:31:30Z</time>
      </trkpt>
      <trkpt lat="44.23597" lon="5.4382">
        <ele>887.837</ele>
        <time>2019-04-27T11:31:41Z</time>
      </trkpt>
      <trkpt lat="44.23597" lon="5.4382">
        <ele>887.862</ele>
        <time>2019-04-27T11:31:52Z</time>
      </trkpt>
      <trkpt lat="44.23597" lon="5.4382">
        <ele>887.889</ele>
        <time>2019-04-27T11:32:02Z</time>
      </trkpt>
      <trkpt lat="44.23596" lon="5.4382">
        <ele>887.915</ele>
        <time>2019-04-27T11:32:13Z</time>
      </trkpt>
      <trkpt lat="44.23596" lon="5.4382">
        <ele>887.929</ele>
        <time>2019-04-27T11:32:24Z</time>
      </trkpt>
      <trkpt lat="44.23596" lon="5.4382">
        <ele>887.941</ele>
        <time>2019-04-27T11:32:34Z</time>
      </trkpt>
      <trkpt lat="44.23596" lon="5.4382">
        <ele>887.961</ele>
        <time>2019-04-27T11:32:45Z</time>
      </trkpt>
      <trkpt lat="44.23596" lon="5.4382">
        <ele>887.97</ele>
        <time>2019-04-27T11:32:55Z</time>
      </trkpt>
      <trkpt lat="44.23596" lon="5.43821">
        <ele>888.035</ele>
        <time>2019-04-27T11:33:06Z</time>
      </trkpt>
      <trkpt lat="44.23596" lon="5.43821">
        <ele>888.081</ele>
        <time>2019-04-27T11:33:16Z</time>
      </trkpt>
      <trkpt lat="44.23596" lon="5.43821">
        <ele>888.108</ele>
        <time>2019-04-27T11:33:27Z</time>
      </trkpt>
      <trkpt lat="44.23596" lon="5.43821">
        <ele>888.159</ele>
        <time>2019-04-27T11:33:38Z</time>
      </trkpt>
      <trkpt lat="44.23596" lon="5.43821">
        <ele>888.212</ele>
        <time>2019-04-27T11:33:48Z</time>
      </trkpt>
      <trkpt lat="44.23596" lon="5.43821">
        <ele>888.262</ele>
        <time>2019-04-27T11:33:59Z</time>
      </trkpt>
      <trkpt lat="44.23596" lon="5.43821">
        <ele>888.315</ele>
        <time>2019-04-27T11:34:10Z</time>
      </trkpt>
      <trkpt lat="44.23596" lon="5.43821">
        <ele>888.359</ele>
        <time>2019-04-27T11:34:21Z</time>
      </trkpt>
      <trkpt lat="44.23596" lon="5.43821">
        <ele>888.406</ele>
        <time>2019-04-27T11:34:32Z</time>
      </trkpt>
      <trkpt lat="44.23597" lon="5.43821">
        <ele>888.421</ele>
        <time>2019-04-27T11:34:42Z</time>
      </trkpt>
      <trkpt lat="44.23597" lon="5.43822">
        <ele>888.431</ele>
        <time>2019-04-27T11:34:52Z</time>
      </trkpt>
      <trkpt lat="44.23597" lon="5.43822">
        <ele>888.456</ele>
        <time>2019-04-27T11:35:03Z</time>
      </trkpt>
      <trkpt lat="44.23597" lon="5.43821">
        <ele>888.499</ele>
        <time>2019-04-27T11:35:13Z</time>
      </trkpt>
      <trkpt lat="44.23597" lon="5.43821">
        <ele>888.577</ele>
        <time>2019-04-27T11:35:24Z</time>
      </trkpt>
      <trkpt lat="44.23597" lon="5.43821">
        <ele>888.675</ele>
        <time>2019-04-27T11:35:35Z</time>
      </trkpt>
      <trkpt lat="44.23597" lon="5.43821">
        <ele>888.748</ele>
        <time>2019-04-27T11:35:45Z</time>
      </trkpt>
      <trkpt lat="44.23597" lon="5.43821">
        <ele>888.825</ele>
        <time>2019-04-27T11:35:55Z</time>
      </trkpt>
      <trkpt lat="44.23597" lon="5.43821">
        <ele>888.886</ele>
        <time>2019-04-27T11:36:06Z</time>
      </trkpt>
      <trkpt lat="44.23597" lon="5.43821">
        <ele>888.917</ele>
        <time>2019-04-27T11:36:17Z</time>
      </trkpt>
      <trkpt lat="44.23597" lon="5.43821">
        <ele>888.931</ele>
        <time>2019-04-27T11:36:28Z</time>
      </trkpt>
      <trkpt lat="44.23597" lon="5.4382">
        <ele>888.94</ele>
        <time>2019-04-27T11:36:39Z</time>
      </trkpt>
      <trkpt lat="44.23597" lon="5.43819">
        <ele>889.19</ele>
        <time>2019-04-27T11:36:49Z</time>
      </trkpt>
      <trkpt lat="44.23597" lon="5.43821">
        <ele>889.223</ele>
        <time>2019-04-27T11:36:59Z</time>
      </trkpt>
      <trkpt lat="44.23597" lon="5.43821">
        <ele>889.238</ele>
        <time>2019-04-27T11:37:09Z</time>
      </trkpt>
      <trkpt lat="44.23597" lon="5.4382">
        <ele>889.202</ele>
        <time>2019-04-27T11:37:20Z</time>
      </trkpt>
      <trkpt lat="44.23597" lon="5.4382">
        <ele>889.171</ele>
        <time>2019-04-27T11:37:31Z</time>
      </trkpt>
      <trkpt lat="44.23597" lon="5.4382">
        <ele>889.152</ele>
        <time>2019-04-27T11:37:42Z</time>
      </trkpt>
      <trkpt lat="44.23597" lon="5.4382">
        <ele>889.165</ele>
        <time>2019-04-27T11:37:52Z</time>
      </trkpt>
      <trkpt lat="44.23597" lon="5.4382">
        <ele>889.197</ele>
        <time>2019-04-27T11:38:03Z</time>
      </trkpt>
      <trkpt lat="44.23597" lon="5.4382">
        <ele>889.231</ele>
        <time>2019-04-27T11:38:14Z</time>
      </trkpt>
      <trkpt lat="44.23597" lon="5.4382">
        <ele>889.291</ele>
        <time>2019-04-27T11:38:25Z</time>
      </trkpt>
      <trkpt lat="44.23597" lon="5.43819">
        <ele>889.359</ele>
        <time>2019-04-27T11:38:36Z</time>
      </trkpt>
      <trkpt lat="44.23597" lon="5.43819">
        <ele>889.375</ele>
        <time>2019-04-27T11:38:46Z</time>
      </trkpt>
      <trkpt lat="44.23586" lon="5.43785">
        <ele>888.271</ele>
        <time>2019-04-27T11:38:57Z</time>
      </trkpt>
      <trkpt lat="44.23539" lon="5.43711">
        <ele>884.696</ele>
        <time>2019-04-27T11:39:08Z</time>
      </trkpt>
      <trkpt lat="44.23445" lon="5.437">
        <ele>880.549</ele>
        <time>2019-04-27T11:39:19Z</time>
      </trkpt>
      <trkpt lat="44.23381" lon="5.43651">
        <ele>878.53</ele>
        <time>2019-04-27T11:39:29Z</time>
      </trkpt>
      <trkpt lat="44.23363" lon="5.43755">
        <ele>876.243</ele>
        <time>2019-04-27T11:39:39Z</time>
      </trkpt>
      <trkpt lat="44.2333" lon="5.43779">
        <ele>874.372</ele>
        <time>2019-04-27T11:39:50Z</time>
      </trkpt>
      <trkpt lat="44.23292" lon="5.43729">
        <ele>871.218</ele>
        <time>2019-04-27T11:40:00Z</time>
      </trkpt>
      <trkpt lat="44.23211" lon="5.43719">
        <ele>868.975</ele>
        <time>2019-04-27T11:40:11Z</time>
      </trkpt>
      <trkpt lat="44.23166" lon="5.43624">
        <ele>867.897</ele>
        <time>2019-04-27T11:40:21Z</time>
      </trkpt>
      <trkpt lat="44.23144" lon="5.43491">
        <ele>864.306</ele>
        <time>2019-04-27T11:40:32Z</time>
      </trkpt>
      <trkpt lat="44.23045" lon="5.43459">
        <ele>859.972</ele>
        <time>2019-04-27T11:40:43Z</time>
      </trkpt>
      <trkpt lat="44.22941" lon="5.43417">
        <ele>855.824</ele>
        <time>2019-04-27T11:40:53Z</time>
      </trkpt>
      <trkpt lat="44.22822" lon="5.43395">
        <ele>851.555</ele>
        <time>2019-04-27T11:41:03Z</time>
      </trkpt>
      <trkpt lat="44.22732" lon="5.4333">
        <ele>849.061</ele>
        <time>2019-04-27T11:41:14Z</time>
      </trkpt>
      <trkpt lat="44.22645" lon="5.43276">
        <ele>843.238</ele>
        <time>2019-04-27T11:41:25Z</time>
      </trkpt>
      <trkpt lat="44.22558" lon="5.4327">
        <ele>837.994</ele>
        <time>2019-04-27T11:41:35Z</time>
      </trkpt>
      <trkpt lat="44.225" lon="5.43214">
        <ele>833.256</ele>
        <time>2019-04-27T11:41:46Z</time>
      </trkpt>
      <trkpt lat="44.225" lon="5.43214">
        <ele>832.718</ele>
        <time>2019-04-27T11:41:57Z</time>
      </trkpt>
      <trkpt lat="44.225" lon="5.43214">
        <ele>832.195</ele>
        <time>2019-04-27T11:42:08Z</time>
      </trkpt>
      <trkpt lat="44.225" lon="5.43214">
        <ele>831.947</ele>
        <time>2019-04-27T11:42:18Z</time>
      </trkpt>
      <trkpt lat="44.225" lon="5.43214">
        <ele>831.664</ele>
        <time>2019-04-27T11:42:28Z</time>
      </trkpt>
      <trkpt lat="44.225" lon="5.43214">
        <ele>831.333</ele>
        <time>2019-04-27T11:42:39Z</time>
      </trkpt>
      <trkpt lat="44.225" lon="5.43214">
        <ele>831.01</ele>
        <time>2019-04-27T11:42:50Z</time>
      </trkpt>
      <trkpt lat="44.225" lon="5.43214">
        <ele>830.706</ele>
        <time>2019-04-27T11:43:01Z</time>
      </trkpt>
      <trkpt lat="44.225" lon="5.43214">
        <ele>830.414</ele>
        <time>2019-04-27T11:43:12Z</time>
      </trkpt>
      <trkpt lat="44.225" lon="5.43214">
        <ele>830.12</ele>
        <time>2019-04-27T11:43:23Z</time>
      </trkpt>
      <trkpt lat="44.225" lon="5.43214">
        <ele>829.835</ele>
        <time>2019-04-27T11:43:34Z</time>
      </trkpt>
      <trkpt lat="44.225" lon="5.43214">
        <ele>829.546</ele>
        <time>2019-04-27T11:43:45Z</time>
      </trkpt>
      <trkpt lat="44.225" lon="5.43214">
        <ele>829.267</ele>
        <time>2019-04-27T11:43:55Z</time>
      </trkpt>
      <trkpt lat="44.22485" lon="5.4319">
        <ele>824.233</ele>
        <time>2019-04-27T11:44:06Z</time>
      </trkpt>
      <trkpt lat="44.2245" lon="5.43133">
        <ele>814.558</ele>
        <time>2019-04-27T11:44:16Z</time>
      </trkpt>
      <trkpt lat="44.22397" lon="5.43076">
        <ele>812.741</ele>
        <time>2019-04-27T11:44:27Z</time>
      </trkpt>
      <trkpt lat="44.22337" lon="5.43025">
        <ele>811.905</ele>
        <time>2019-04-27T11:44:37Z</time>
      </trkpt>
      <trkpt lat="44.22281" lon="5.42991">
        <ele>809.769</ele>
        <time>2019-04-27T11:44:47Z</time>
      </trkpt>
      <trkpt lat="44.22228" lon="5.42949">
        <ele>805.631</ele>
        <time>2019-04-27T11:44:57Z</time>
      </trkpt>
      <trkpt lat="44.22146" lon="5.42886">
        <ele>804.456</ele>
        <time>2019-04-27T11:45:08Z</time>
      </trkpt>
      <trkpt lat="44.22067" lon="5.42857">
        <ele>803.2</ele>
        <time>2019-04-27T11:45:19Z</time>
      </trkpt>
      <trkpt lat="44.22046" lon="5.4285">
        <ele>803.675</ele>
        <time>2019-04-27T11:45:29Z</time>
      </trkpt>
      <trkpt lat="44.22046" lon="5.4285">
        <ele>803.914</ele>
        <time>2019-04-27T11:45:40Z</time>
      </trkpt>
      <trkpt lat="44.22046" lon="5.4285">
        <ele>804.325</ele>
        <time>2019-04-27T11:45:50Z</time>
      </trkpt>
      <trkpt lat="44.22046" lon="5.4285">
        <ele>804.513</ele>
        <time>2019-04-27T11:46:00Z</time>
      </trkpt>
      <trkpt lat="44.22046" lon="5.4285">
        <ele>804.465</ele>
        <time>2019-04-27T11:46:10Z</time>
      </trkpt>
      <trkpt lat="44.22046" lon="5.4285">
        <ele>804.24</ele>
        <time>2019-04-27T11:46:21Z</time>
      </trkpt>
      <trkpt lat="44.22056" lon="5.42854">
        <ele>803.903</ele>
        <time>2019-04-27T11:46:32Z</time>
      </trkpt>
      <trkpt lat="44.22056" lon="5.42854">
        <ele>803.422</ele>
        <time>2019-04-27T11:46:43Z</time>
      </trkpt>
      <trkpt lat="44.22056" lon="5.42854">
        <ele>802.96</ele>
        <time>2019-04-27T11:46:53Z</time>
      </trkpt>
      <trkpt lat="44.22056" lon="5.42854">
        <ele>797.981</ele>
        <time>2019-04-27T11:47:03Z</time>
      </trkpt>
      <trkpt lat="44.22059" lon="5.42856">
        <ele>796.743</ele>
        <time>2019-04-27T11:47:14Z</time>
      </trkpt>
      <trkpt lat="44.22078" lon="5.42863">
        <ele>795.963</ele>
        <time>2019-04-27T11:47:25Z</time>
      </trkpt>
      <trkpt lat="44.22078" lon="5.42863">
        <ele>795.411</ele>
        <time>2019-04-27T11:47:36Z</time>
      </trkpt>
      <trkpt lat="44.22066" lon="5.42859">
        <ele>794.227</ele>
        <time>2019-04-27T11:47:47Z</time>
      </trkpt>
      <trkpt lat="44.2206" lon="5.42858">
        <ele>793.979</ele>
        <time>2019-04-27T11:47:57Z</time>
      </trkpt>
      <trkpt lat="44.22058" lon="5.42857">
        <ele>795.476</ele>
        <time>2019-04-27T11:48:08Z</time>
      </trkpt>
      <trkpt lat="44.22032" lon="5.42849">
        <ele>796.368</ele>
        <time>2019-04-27T11:48:18Z</time>
      </trkpt>
      <trkpt lat="44.2197" lon="5.42829">
        <ele>804.583</ele>
        <time>2019-04-27T11:48:29Z</time>
      </trkpt>
      <trkpt lat="44.21906" lon="5.42764">
        <ele>806.221</ele>
        <time>2019-04-27T11:48:40Z</time>
      </trkpt>
      <trkpt lat="44.21886" lon="5.42688">
        <ele>797.03</ele>
        <time>2019-04-27T11:48:50Z</time>
      </trkpt>
      <trkpt lat="44.21865" lon="5.42649">
        <ele>794.632</ele>
        <time>2019-04-27T11:49:00Z</time>
      </trkpt>
      <trkpt lat="44.21841" lon="5.42597">
        <ele>789.01</ele>
        <time>2019-04-27T11:49:11Z</time>
      </trkpt>
      <trkpt lat="44.21813" lon="5.42537">
        <ele>779.317</ele>
        <time>2019-04-27T11:49:22Z</time>
      </trkpt>
      <trkpt lat="44.21781" lon="5.42465">
        <ele>777.228</ele>
        <time>2019-04-27T11:49:33Z</time>
      </trkpt>
      <trkpt lat="44.2177" lon="5.42459">
        <ele>777.952</ele>
        <time>2019-04-27T11:49:43Z</time>
      </trkpt>
      <trkpt lat="44.2177" lon="5.42459">
        <ele>779.118</ele>
        <time>2019-04-27T11:49:54Z</time>
      </trkpt>
      <trkpt lat="44.2177" lon="5.42459">
        <ele>780.37</ele>
        <time>2019-04-27T11:50:05Z</time>
      </trkpt>
      <trkpt lat="44.21741" lon="5.42462">
        <ele>780.622</ele>
        <time>2019-04-27T11:50:18Z</time>
      </trkpt>
      <trkpt lat="44.21715" lon="5.42473">
        <ele>780.84</ele>
        <time>2019-04-27T11:50:28Z</time>
      </trkpt>
      <trkpt lat="44.21685" lon="5.42473">
        <ele>779.944</ele>
        <time>2019-04-27T11:50:38Z</time>
      </trkpt>
      <trkpt lat="44.21659" lon="5.42463">
        <ele>778.479</ele>
        <time>2019-04-27T11:50:48Z</time>
      </trkpt>
      <trkpt lat="44.21612" lon="5.42439">
        <ele>769.978</ele>
        <time>2019-04-27T11:50:59Z</time>
      </trkpt>
      <trkpt lat="44.2157" lon="5.42385">
        <ele>777.821</ele>
        <time>2019-04-27T11:51:10Z</time>
      </trkpt>
      <trkpt lat="44.2156" lon="5.42361">
        <ele>778.22</ele>
        <time>2019-04-27T11:51:20Z</time>
      </trkpt>
      <trkpt lat="44.21525" lon="5.42336">
        <ele>780.34</ele>
        <time>2019-04-27T11:51:31Z</time>
      </trkpt>
      <trkpt lat="44.21477" lon="5.4234">
        <ele>780.379</ele>
        <time>2019-04-27T11:51:41Z</time>
      </trkpt>
      <trkpt lat="44.21443" lon="5.42329">
        <ele>780.38</ele>
        <time>2019-04-27T11:51:52Z</time>
      </trkpt>
      <trkpt lat="44.21423" lon="5.42314">
        <ele>779.524</ele>
        <time>2019-04-27T11:52:02Z</time>
      </trkpt>
      <trkpt lat="44.2138" lon="5.42288">
        <ele>775.434</ele>
        <time>2019-04-27T11:52:13Z</time>
      </trkpt>
      <trkpt lat="44.21309" lon="5.4227">
        <ele>770.186</ele>
        <time>2019-04-27T11:52:23Z</time>
      </trkpt>
      <trkpt lat="44.21272" lon="5.42262">
        <ele>767.053</ele>
        <time>2019-04-27T11:52:34Z</time>
      </trkpt>
      <trkpt lat="44.21266" lon="5.42261">
        <ele>767.527</ele>
        <time>2019-04-27T11:52:45Z</time>
      </trkpt>
      <trkpt lat="44.21264" lon="5.42262">
        <ele>769.077</ele>
        <time>2019-04-27T11:52:55Z</time>
      </trkpt>
      <trkpt lat="44.21215" lon="5.42252">
        <ele>771.311</ele>
        <time>2019-04-27T11:53:05Z</time>
      </trkpt>
      <trkpt lat="44.21122" lon="5.42233">
        <ele>765.24</ele>
        <time>2019-04-27T11:53:16Z</time>
      </trkpt>
      <trkpt lat="44.21044" lon="5.42176">
        <ele>758.564</ele>
        <time>2019-04-27T11:53:27Z</time>
      </trkpt>
      <trkpt lat="44.20957" lon="5.42138">
        <ele>753.803</ele>
        <time>2019-04-27T11:53:38Z</time>
      </trkpt>
      <trkpt lat="44.20881" lon="5.42106">
        <ele>748.488</ele>
        <time>2019-04-27T11:53:48Z</time>
      </trkpt>
      <trkpt lat="44.20826" lon="5.4203">
        <ele>748.781</ele>
        <time>2019-04-27T11:53:59Z</time>
      </trkpt>
      <trkpt lat="44.20823" lon="5.42007">
        <ele>745.724</ele>
        <time>2019-04-27T11:54:09Z</time>
      </trkpt>
      <trkpt lat="44.20822" lon="5.42003">
        <ele>744.907</ele>
        <time>2019-04-27T11:54:20Z</time>
      </trkpt>
      <trkpt lat="44.20822" lon="5.42003">
        <ele>744.487</ele>
        <time>2019-04-27T11:54:31Z</time>
      </trkpt>
      <trkpt lat="44.20822" lon="5.42003">
        <ele>744.057</ele>
        <time>2019-04-27T11:54:41Z</time>
      </trkpt>
      <trkpt lat="44.20815" lon="5.41986">
        <ele>737.783</ele>
        <time>2019-04-27T11:54:52Z</time>
      </trkpt>
      <trkpt lat="44.20783" lon="5.41972">
        <ele>724.137</ele>
        <time>2019-04-27T11:55:02Z</time>
      </trkpt>
      <trkpt lat="44.20712" lon="5.41981">
        <ele>724.154</ele>
        <time>2019-04-27T11:55:13Z</time>
      </trkpt>
      <trkpt lat="44.20629" lon="5.41975">
        <ele>728.126</ele>
        <time>2019-04-27T11:55:24Z</time>
      </trkpt>
      <trkpt lat="44.20541" lon="5.41916">
        <ele>720.871</ele>
        <time>2019-04-27T11:55:35Z</time>
      </trkpt>
      <trkpt lat="44.20467" lon="5.4194">
        <ele>711.497</ele>
        <time>2019-04-27T11:55:45Z</time>
      </trkpt>
      <trkpt lat="44.20399" lon="5.41963">
        <ele>706.759</ele>
        <time>2019-04-27T11:55:56Z</time>
      </trkpt>
      <trkpt lat="44.20347" lon="5.41902">
        <ele>701.55</ele>
        <time>2019-04-27T11:56:06Z</time>
      </trkpt>
      <trkpt lat="44.20277" lon="5.41841">
        <ele>700.088</ele>
        <time>2019-04-27T11:56:17Z</time>
      </trkpt>
      <trkpt lat="44.20195" lon="5.41839">
        <ele>697.651</ele>
        <time>2019-04-27T11:56:28Z</time>
      </trkpt>
      <trkpt lat="44.20123" lon="5.41841">
        <ele>696.579</ele>
        <time>2019-04-27T11:56:38Z</time>
      </trkpt>
      <trkpt lat="44.20047" lon="5.4181">
        <ele>696.272</ele>
        <time>2019-04-27T11:56:49Z</time>
      </trkpt>
      <trkpt lat="44.19984" lon="5.41778">
        <ele>693.936</ele>
        <time>2019-04-27T11:57:00Z</time>
      </trkpt>
      <trkpt lat="44.19925" lon="5.41724">
        <ele>689.138</ele>
        <time>2019-04-27T11:57:11Z</time>
      </trkpt>
      <trkpt lat="44.19859" lon="5.41678">
        <ele>685.25</ele>
        <time>2019-04-27T11:57:22Z</time>
      </trkpt>
      <trkpt lat="44.19799" lon="5.41623">
        <ele>682.219</ele>
        <time>2019-04-27T11:57:32Z</time>
      </trkpt>
      <trkpt lat="44.19741" lon="5.41544">
        <ele>684.092</ele>
        <time>2019-04-27T11:57:43Z</time>
      </trkpt>
      <trkpt lat="44.19662" lon="5.41529">
        <ele>680.11</ele>
        <time>2019-04-27T11:57:54Z</time>
      </trkpt>
      <trkpt lat="44.19611" lon="5.41561">
        <ele>681.589</ele>
        <time>2019-04-27T11:58:05Z</time>
      </trkpt>
      <trkpt lat="44.19588" lon="5.41601">
        <ele>683.193</ele>
        <time>2019-04-27T11:58:15Z</time>
      </trkpt>
      <trkpt lat="44.19568" lon="5.41639">
        <ele>683.978</ele>
        <time>2019-04-27T11:58:25Z</time>
      </trkpt>
      <trkpt lat="44.19535" lon="5.41701">
        <ele>687.683</ele>
        <time>2019-04-27T11:58:36Z</time>
      </trkpt>
      <trkpt lat="44.19499" lon="5.41769">
        <ele>686.451</ele>
        <time>2019-04-27T11:58:46Z</time>
      </trkpt>
      <trkpt lat="44.19456" lon="5.41844">
        <ele>685.639</ele>
        <time>2019-04-27T11:58:57Z</time>
      </trkpt>
      <trkpt lat="44.19409" lon="5.41929">
        <ele>683.892</ele>
        <time>2019-04-27T11:59:07Z</time>
      </trkpt>
      <trkpt lat="44.19359" lon="5.42059">
        <ele>681.003</ele>
        <time>2019-04-27T11:59:18Z</time>
      </trkpt>
      <trkpt lat="44.1932" lon="5.42189">
        <ele>678.213</ele>
        <time>2019-04-27T11:59:28Z</time>
      </trkpt>
      <trkpt lat="44.19265" lon="5.42281">
        <ele>675.266</ele>
        <time>2019-04-27T11:59:38Z</time>
      </trkpt>
      <trkpt lat="44.19199" lon="5.42329">
        <ele>671.452</ele>
        <time>2019-04-27T11:59:49Z</time>
      </trkpt>
      <trkpt lat="44.1914" lon="5.42375">
        <ele>669.067</ele>
        <time>2019-04-27T12:00:00Z</time>
      </trkpt>
      <trkpt lat="44.1909" lon="5.42411">
        <ele>668.66</ele>
        <time>2019-04-27T12:00:11Z</time>
      </trkpt>
      <trkpt lat="44.19039" lon="5.42437">
        <ele>668.158</ele>
        <time>2019-04-27T12:00:22Z</time>
      </trkpt>
      <trkpt lat="44.18973" lon="5.42467">
        <ele>667.576</ele>
        <time>2019-04-27T12:00:33Z</time>
      </trkpt>
      <trkpt lat="44.18896" lon="5.42476">
        <ele>666.366</ele>
        <time>2019-04-27T12:00:43Z</time>
      </trkpt>
      <trkpt lat="44.18804" lon="5.42488">
        <ele>664.485</ele>
        <time>2019-04-27T12:00:54Z</time>
      </trkpt>
      <trkpt lat="44.18726" lon="5.42542">
        <ele>662.533</ele>
        <time>2019-04-27T12:01:04Z</time>
      </trkpt>
      <trkpt lat="44.18656" lon="5.42598">
        <ele>660.174</ele>
        <time>2019-04-27T12:01:14Z</time>
      </trkpt>
      <trkpt lat="44.18577" lon="5.42671">
        <ele>657.422</ele>
        <time>2019-04-27T12:01:25Z</time>
      </trkpt>
      <trkpt lat="44.18504" lon="5.42725">
        <ele>654.803</ele>
        <time>2019-04-27T12:01:35Z</time>
      </trkpt>
      <trkpt lat="44.18425" lon="5.42776">
        <ele>651.701</ele>
        <time>2019-04-27T12:01:46Z</time>
      </trkpt>
      <trkpt lat="44.18344" lon="5.42817">
        <ele>649.638</ele>
        <time>2019-04-27T12:01:57Z</time>
      </trkpt>
      <trkpt lat="44.18277" lon="5.42851">
        <ele>647.978</ele>
        <time>2019-04-27T12:02:07Z</time>
      </trkpt>
      <trkpt lat="44.18203" lon="5.42906">
        <ele>646.948</ele>
        <time>2019-04-27T12:02:18Z</time>
      </trkpt>
      <trkpt lat="44.1814" lon="5.42981">
        <ele>645.196</ele>
        <time>2019-04-27T12:02:29Z</time>
      </trkpt>
      <trkpt lat="44.18076" lon="5.4303">
        <ele>643.523</ele>
        <time>2019-04-27T12:02:39Z</time>
      </trkpt>
      <trkpt lat="44.18011" lon="5.43093">
        <ele>641.93</ele>
        <time>2019-04-27T12:02:50Z</time>
      </trkpt>
      <trkpt lat="44.17951" lon="5.43136">
        <ele>639.587</ele>
        <time>2019-04-27T12:03:00Z</time>
      </trkpt>
      <trkpt lat="44.17884" lon="5.43147">
        <ele>637.377</ele>
        <time>2019-04-27T12:03:10Z</time>
      </trkpt>
      <trkpt lat="44.17848" lon="5.43147">
        <ele>636.674</ele>
        <time>2019-04-27T12:03:21Z</time>
      </trkpt>
      <trkpt lat="44.17848" lon="5.43147">
        <ele>636.673</ele>
        <time>2019-04-27T12:03:31Z</time>
      </trkpt>
      <trkpt lat="44.17848" lon="5.43147">
        <ele>636.708</ele>
        <time>2019-04-27T12:03:42Z</time>
      </trkpt>
      <trkpt lat="44.17848" lon="5.43147">
        <ele>636.779</ele>
        <time>2019-04-27T12:03:53Z</time>
      </trkpt>
      <trkpt lat="44.17848" lon="5.43147">
        <ele>636.826</ele>
        <time>2019-04-27T12:04:04Z</time>
      </trkpt>
      <trkpt lat="44.17848" lon="5.43147">
        <ele>636.866</ele>
        <time>2019-04-27T12:04:15Z</time>
      </trkpt>
      <trkpt lat="44.17848" lon="5.43147">
        <ele>636.927</ele>
        <time>2019-04-27T12:04:25Z</time>
      </trkpt>
      <trkpt lat="44.17848" lon="5.43147">
        <ele>636.935</ele>
        <time>2019-04-27T12:04:36Z</time>
      </trkpt>
      <trkpt lat="44.17846" lon="5.43151">
        <ele>636.915</ele>
        <time>2019-04-27T12:04:47Z</time>
      </trkpt>
      <trkpt lat="44.17846" lon="5.43151">
        <ele>636.758</ele>
        <time>2019-04-27T12:04:58Z</time>
      </trkpt>
      <trkpt lat="44.17846" lon="5.43155">
        <ele>636.21</ele>
        <time>2019-04-27T12:05:08Z</time>
      </trkpt>
      <trkpt lat="44.17846" lon="5.43155">
        <ele>636.138</ele>
        <time>2019-04-27T12:05:19Z</time>
      </trkpt>
      <trkpt lat="44.17849" lon="5.43146">
        <ele>636.086</ele>
        <time>2019-04-27T12:05:29Z</time>
      </trkpt>
      <trkpt lat="44.17849" lon="5.43146">
        <ele>635.996</ele>
        <time>2019-04-27T12:05:40Z</time>
      </trkpt>
      <trkpt lat="44.17847" lon="5.4315">
        <ele>635.936</ele>
        <time>2019-04-27T12:05:50Z</time>
      </trkpt>
      <trkpt lat="44.17844" lon="5.43149">
        <ele>635.781</ele>
        <time>2019-04-27T12:06:01Z</time>
      </trkpt>
      <trkpt lat="44.17846" lon="5.4315">
        <ele>635.604</ele>
        <time>2019-04-27T12:06:12Z</time>
      </trkpt>
      <trkpt lat="44.17824" lon="5.43164">
        <ele>635.022</ele>
        <time>2019-04-27T12:06:22Z</time>
      </trkpt>
      <trkpt lat="44.17783" lon="5.43194">
        <ele>634.478</ele>
        <time>2019-04-27T12:06:33Z</time>
      </trkpt>
      <trkpt lat="44.17727" lon="5.4324">
        <ele>634.463</ele>
        <time>2019-04-27T12:06:44Z</time>
      </trkpt>
      <trkpt lat="44.17671" lon="5.43292">
        <ele>632.6</ele>
        <time>2019-04-27T12:06:54Z</time>
      </trkpt>
      <trkpt lat="44.17615" lon="5.43352">
        <ele>630.637</ele>
        <time>2019-04-27T12:07:05Z</time>
      </trkpt>
      <trkpt lat="44.17574" lon="5.4341">
        <ele>629.898</ele>
        <time>2019-04-27T12:07:15Z</time>
      </trkpt>
      <trkpt lat="44.17535" lon="5.43468">
        <ele>629.332</ele>
        <time>2019-04-27T12:07:25Z</time>
      </trkpt>
      <trkpt lat="44.17495" lon="5.43525">
        <ele>628.932</ele>
        <time>2019-04-27T12:07:36Z</time>
      </trkpt>
      <trkpt lat="44.17488" lon="5.43541">
        <ele>628.934</ele>
        <time>2019-04-27T12:07:47Z</time>
      </trkpt>
      <trkpt lat="44.17491" lon="5.43542">
        <ele>629.192</ele>
        <time>2019-04-27T12:07:58Z</time>
      </trkpt>
      <trkpt lat="44.17483" lon="5.43545">
        <ele>629.367</ele>
        <time>2019-04-27T12:08:08Z</time>
      </trkpt>
      <trkpt lat="44.17463" lon="5.43572">
        <ele>629.427</ele>
        <time>2019-04-27T12:08:19Z</time>
      </trkpt>
      <trkpt lat="44.17442" lon="5.43603">
        <ele>629.369</ele>
        <time>2019-04-27T12:08:29Z</time>
      </trkpt>
      <trkpt lat="44.17425" lon="5.43631">
        <ele>629.407</ele>
        <time>2019-04-27T12:08:40Z</time>
      </trkpt>
      <trkpt lat="44.17421" lon="5.4367">
        <ele>629.528</ele>
        <time>2019-04-27T12:08:50Z</time>
      </trkpt>
      <trkpt lat="44.17427" lon="5.43722">
        <ele>629.725</ele>
        <time>2019-04-27T12:09:01Z</time>
      </trkpt>
      <trkpt lat="44.17431" lon="5.43769">
        <ele>630.07</ele>
        <time>2019-04-27T12:09:11Z</time>
      </trkpt>
      <trkpt lat="44.17437" lon="5.43824">
        <ele>631.656</ele>
        <time>2019-04-27T12:09:22Z</time>
      </trkpt>
      <trkpt lat="44.17443" lon="5.43873">
        <ele>632.606</ele>
        <time>2019-04-27T12:09:32Z</time>
      </trkpt>
      <trkpt lat="44.17448" lon="5.43925">
        <ele>633.67</ele>
        <time>2019-04-27T12:09:43Z</time>
      </trkpt>
      <trkpt lat="44.17453" lon="5.43971">
        <ele>634.656</ele>
        <time>2019-04-27T12:09:53Z</time>
      </trkpt>
      <trkpt lat="44.17457" lon="5.44016">
        <ele>635.629</ele>
        <time>2019-04-27T12:10:03Z</time>
      </trkpt>
      <trkpt lat="44.17461" lon="5.44058">
        <ele>636.649</ele>
        <time>2019-04-27T12:10:13Z</time>
      </trkpt>
      <trkpt lat="44.17465" lon="5.44104">
        <ele>637.786</ele>
        <time>2019-04-27T12:10:24Z</time>
      </trkpt>
      <trkpt lat="44.17469" lon="5.44139">
        <ele>638.769</ele>
        <time>2019-04-27T12:10:34Z</time>
      </trkpt>
      <trkpt lat="44.17484" lon="5.44169">
        <ele>639.95</ele>
        <time>2019-04-27T12:10:45Z</time>
      </trkpt>
      <trkpt lat="44.17503" lon="5.44161">
        <ele>640.968</ele>
        <time>2019-04-27T12:10:56Z</time>
      </trkpt>
      <trkpt lat="44.1751" lon="5.44166">
        <ele>643.354</ele>
        <time>2019-04-27T12:11:07Z</time>
      </trkpt>
      <trkpt lat="44.1753" lon="5.44191">
        <ele>643.954</ele>
        <time>2019-04-27T12:11:18Z</time>
      </trkpt>
      <trkpt lat="44.17528" lon="5.44208">
        <ele>645.535</ele>
        <time>2019-04-27T12:11:29Z</time>
      </trkpt>
      <trkpt lat="44.17528" lon="5.44208">
        <ele>645.74</ele>
        <time>2019-04-27T12:11:39Z</time>
      </trkpt>
      <trkpt lat="44.17528" lon="5.44208">
        <ele>645.995</ele>
        <time>2019-04-27T12:11:50Z</time>
      </trkpt>
      <trkpt lat="44.17528" lon="5.44208">
        <ele>646.26</ele>
        <time>2019-04-27T12:12:01Z</time>
      </trkpt>
      <trkpt lat="44.17528" lon="5.44213">
        <ele>646.502</ele>
        <time>2019-04-27T12:12:11Z</time>
      </trkpt>
      <trkpt lat="44.17528" lon="5.44213">
        <ele>646.788</ele>
        <time>2019-04-27T12:12:22Z</time>
      </trkpt>
      <trkpt lat="44.17528" lon="5.44213">
        <ele>647.081</ele>
        <time>2019-04-27T12:12:33Z</time>
      </trkpt>
      <trkpt lat="44.17528" lon="5.44213">
        <ele>647.489</ele>
        <time>2019-04-27T12:12:43Z</time>
      </trkpt>
      <trkpt lat="44.17529" lon="5.44212">
        <ele>647.913</ele>
        <time>2019-04-27T12:12:54Z</time>
      </trkpt>
      <trkpt lat="44.17529" lon="5.44212">
        <ele>648.3</ele>
        <time>2019-04-27T12:13:05Z</time>
      </trkpt>
      <trkpt lat="44.17529" lon="5.44211">
        <ele>648.758</ele>
        <time>2019-04-27T12:13:16Z</time>
      </trkpt>
      <trkpt lat="44.1753" lon="5.44212">
        <ele>649.143</ele>
        <time>2019-04-27T12:13:27Z</time>
      </trkpt>
      <trkpt lat="44.17535" lon="5.44224">
        <ele>650.477</ele>
        <time>2019-04-27T12:13:38Z</time>
      </trkpt>
      <trkpt lat="44.17541" lon="5.44264">
        <ele>651.67</ele>
        <time>2019-04-27T12:13:49Z</time>
      </trkpt>
      <trkpt lat="44.17544" lon="5.44299">
        <ele>652.418</ele>
        <time>2019-04-27T12:13:59Z</time>
      </trkpt>
      <trkpt lat="44.17549" lon="5.44341">
        <ele>653.699</ele>
        <time>2019-04-27T12:14:10Z</time>
      </trkpt>
      <trkpt lat="44.17552" lon="5.44376">
        <ele>653.945</ele>
        <time>2019-04-27T12:14:21Z</time>
      </trkpt>
      <trkpt lat="44.17557" lon="5.44413">
        <ele>654.296</ele>
        <time>2019-04-27T12:14:32Z</time>
      </trkpt>
      <trkpt lat="44.17557" lon="5.4442">
        <ele>654.961</ele>
        <time>2019-04-27T12:14:42Z</time>
      </trkpt>
      <trkpt lat="44.1756" lon="5.44418">
        <ele>655.053</ele>
        <time>2019-04-27T12:14:53Z</time>
      </trkpt>
      <trkpt lat="44.1756" lon="5.44418">
        <ele>655.023</ele>
        <time>2019-04-27T12:15:03Z</time>
      </trkpt>
      <trkpt lat="44.17561" lon="5.44418">
        <ele>654.972</ele>
        <time>2019-04-27T12:15:14Z</time>
      </trkpt>
      <trkpt lat="44.17561" lon="5.44418">
        <ele>654.959</ele>
        <time>2019-04-27T12:15:24Z</time>
      </trkpt>
      <trkpt lat="44.17562" lon="5.44417">
        <ele>654.955</ele>
        <time>2019-04-27T12:15:35Z</time>
      </trkpt>
      <trkpt lat="44.17562" lon="5.44417">
        <ele>654.941</ele>
        <time>2019-04-27T12:15:46Z</time>
      </trkpt>
      <trkpt lat="44.17563" lon="5.44416">
        <ele>654.907</ele>
        <time>2019-04-27T12:15:56Z</time>
      </trkpt>
      <trkpt lat="44.17563" lon="5.44416">
        <ele>654.884</ele>
        <time>2019-04-27T12:16:07Z</time>
      </trkpt>
      <trkpt lat="44.17563" lon="5.44416">
        <ele>654.88</ele>
        <time>2019-04-27T12:16:18Z</time>
      </trkpt>
      <trkpt lat="44.17564" lon="5.44416">
        <ele>654.852</ele>
        <time>2019-04-27T12:16:28Z</time>
      </trkpt>
      <trkpt lat="44.17564" lon="5.44416">
        <ele>654.837</ele>
        <time>2019-04-27T12:16:38Z</time>
      </trkpt>
      <trkpt lat="44.17564" lon="5.44416">
        <ele>654.813</ele>
        <time>2019-04-27T12:16:49Z</time>
      </trkpt>
      <trkpt lat="44.17564" lon="5.44416">
        <ele>654.79</ele>
        <time>2019-04-27T12:17:00Z</time>
      </trkpt>
      <trkpt lat="44.17565" lon="5.44413">
        <ele>654.714</ele>
        <time>2019-04-27T12:17:10Z</time>
      </trkpt>
      <trkpt lat="44.17561" lon="5.44383">
        <ele>654.31</ele>
        <time>2019-04-27T12:17:21Z</time>
      </trkpt>
      <trkpt lat="44.1755" lon="5.44334">
        <ele>653.931</ele>
        <time>2019-04-27T12:17:32Z</time>
      </trkpt>
      <trkpt lat="44.17541" lon="5.44297">
        <ele>653.516</ele>
        <time>2019-04-27T12:17:42Z</time>
      </trkpt>
      <trkpt lat="44.17539" lon="5.44298">
        <ele>654.198</ele>
        <time>2019-04-27T12:17:53Z</time>
      </trkpt>
      <trkpt lat="44.17536" lon="5.44301">
        <ele>654.768</ele>
        <time>2019-04-27T12:18:03Z</time>
      </trkpt>
      <trkpt lat="44.17538" lon="5.44302">
        <ele>654.847</ele>
        <time>2019-04-27T12:18:13Z</time>
      </trkpt>
      <trkpt lat="44.17537" lon="5.44306">
        <ele>654.679</ele>
        <time>2019-04-27T12:18:24Z</time>
      </trkpt>
      <trkpt lat="44.17536" lon="5.44307">
        <ele>654.441</ele>
        <time>2019-04-27T12:18:34Z</time>
      </trkpt>
      <trkpt lat="44.17537" lon="5.4431">
        <ele>654.33</ele>
        <time>2019-04-27T12:18:44Z</time>
      </trkpt>
      <trkpt lat="44.17537" lon="5.44311">
        <ele>654.197</ele>
        <time>2019-04-27T12:18:55Z</time>
      </trkpt>
      <trkpt lat="44.17537" lon="5.44311">
        <ele>654.104</ele>
        <time>2019-04-27T12:19:05Z</time>
      </trkpt>
      <trkpt lat="44.17537" lon="5.4431">
        <ele>654.018</ele>
        <time>2019-04-27T12:19:16Z</time>
      </trkpt>
      <trkpt lat="44.17537" lon="5.44309">
        <ele>653.895</ele>
        <time>2019-04-27T12:19:27Z</time>
      </trkpt>
      <trkpt lat="44.17537" lon="5.44308">
        <ele>653.734</ele>
        <time>2019-04-27T12:19:37Z</time>
      </trkpt>
      <trkpt lat="44.17537" lon="5.44308">
        <ele>653.608</ele>
        <time>2019-04-27T12:19:48Z</time>
      </trkpt>
      <trkpt lat="44.17534" lon="5.44298">
        <ele>652.951</ele>
        <time>2019-04-27T12:19:59Z</time>
      </trkpt>
      <trkpt lat="44.17534" lon="5.44297">
        <ele>652.034</ele>
        <time>2019-04-27T12:20:09Z</time>
      </trkpt>
      <trkpt lat="44.17536" lon="5.44302">
        <ele>651.288</ele>
        <time>2019-04-27T12:20:19Z</time>
      </trkpt>
      <trkpt lat="44.17536" lon="5.44302">
        <ele>651.095</ele>
        <time>2019-04-27T12:20:30Z</time>
      </trkpt>
      <trkpt lat="44.17536" lon="5.44303">
        <ele>650.741</ele>
        <time>2019-04-27T12:20:41Z</time>
      </trkpt>
      <trkpt lat="44.17536" lon="5.44303">
        <ele>649.999</ele>
        <time>2019-04-27T12:20:52Z</time>
      </trkpt>
      <trkpt lat="44.17536" lon="5.44305">
        <ele>649.426</ele>
        <time>2019-04-27T12:21:02Z</time>
      </trkpt>
      <trkpt lat="44.17536" lon="5.44309">
        <ele>648.984</ele>
        <time>2019-04-27T12:21:13Z</time>
      </trkpt>
      <trkpt lat="44.17538" lon="5.44311">
        <ele>648.856</ele>
        <time>2019-04-27T12:21:24Z</time>
      </trkpt>
      <trkpt lat="44.17538" lon="5.44311">
        <ele>648.739</ele>
        <time>2019-04-27T12:21:34Z</time>
      </trkpt>
      <trkpt lat="44.17538" lon="5.44313">
        <ele>648.493</ele>
        <time>2019-04-27T12:21:45Z</time>
      </trkpt>
      <trkpt lat="44.17538" lon="5.44312">
        <ele>648.265</ele>
        <time>2019-04-27T12:21:56Z</time>
      </trkpt>
      <trkpt lat="44.17539" lon="5.44313">
        <ele>647.637</ele>
        <time>2019-04-27T12:22:06Z</time>
      </trkpt>
      <trkpt lat="44.17537" lon="5.44316">
        <ele>647.188</ele>
        <time>2019-04-27T12:22:17Z</time>
      </trkpt>
      <trkpt lat="44.17538" lon="5.44313">
        <ele>647.025</ele>
        <time>2019-04-27T12:22:28Z</time>
      </trkpt>
      <trkpt lat="44.17538" lon="5.44316">
        <ele>646.506</ele>
        <time>2019-04-27T12:22:38Z</time>
      </trkpt>
      <trkpt lat="44.17537" lon="5.44317">
        <ele>646.08</ele>
        <time>2019-04-27T12:22:49Z</time>
      </trkpt>
      <trkpt lat="44.17535" lon="5.44316">
        <ele>645.586</ele>
        <time>2019-04-27T12:23:00Z</time>
      </trkpt>
      <trkpt lat="44.17534" lon="5.44313">
        <ele>644.953</ele>
        <time>2019-04-27T12:23:11Z</time>
      </trkpt>
      <trkpt lat="44.17535" lon="5.44308">
        <ele>644.502</ele>
        <time>2019-04-27T12:23:23Z</time>
      </trkpt>
      <trkpt lat="44.17538" lon="5.44309">
        <ele>643.992</ele>
        <time>2019-04-27T12:23:34Z</time>
      </trkpt>
      <trkpt lat="44.17543" lon="5.44313">
        <ele>643.436</ele>
        <time>2019-04-27T12:23:47Z</time>
      </trkpt>
      <trkpt lat="44.17544" lon="5.44318">
        <ele>642.778</ele>
        <time>2019-04-27T12:23:58Z</time>
      </trkpt>
      <trkpt lat="44.17544" lon="5.44318">
        <ele>642.857</ele>
        <time>2019-04-27T12:24:09Z</time>
      </trkpt>
      <trkpt lat="44.17543" lon="5.44318">
        <ele>642.954</ele>
        <time>2019-04-27T12:24:19Z</time>
      </trkpt>
      <trkpt lat="44.17543" lon="5.44318">
        <ele>643.028</ele>
        <time>2019-04-27T12:24:30Z</time>
      </trkpt>
      <trkpt lat="44.17543" lon="5.44318">
        <ele>643.037</ele>
        <time>2019-04-27T12:24:41Z</time>
      </trkpt>
      <trkpt lat="44.17543" lon="5.44318">
        <ele>643.034</ele>
        <time>2019-04-27T12:24:52Z</time>
      </trkpt>
      <trkpt lat="44.17543" lon="5.44316">
        <ele>643.068</ele>
        <time>2019-04-27T12:25:03Z</time>
      </trkpt>
      <trkpt lat="44.17543" lon="5.44316">
        <ele>642.736</ele>
        <time>2019-04-27T12:25:13Z</time>
      </trkpt>
      <trkpt lat="44.17543" lon="5.44315">
        <ele>642.617</ele>
        <time>2019-04-27T12:25:24Z</time>
      </trkpt>
      <trkpt lat="44.17542" lon="5.44315">
        <ele>642.272</ele>
        <time>2019-04-27T12:25:35Z</time>
      </trkpt>
      <trkpt lat="44.17541" lon="5.44313">
        <ele>641.838</ele>
        <time>2019-04-27T12:25:46Z</time>
      </trkpt>
      <trkpt lat="44.17542" lon="5.44315">
        <ele>641.674</ele>
        <time>2019-04-27T12:25:57Z</time>
      </trkpt>
      <trkpt lat="44.17543" lon="5.44316">
        <ele>641.512</ele>
        <time>2019-04-27T12:26:07Z</time>
      </trkpt>
      <trkpt lat="44.17542" lon="5.44314">
        <ele>641.34</ele>
        <time>2019-04-27T12:26:18Z</time>
      </trkpt>
      <trkpt lat="44.17542" lon="5.44313">
        <ele>641.012</ele>
        <time>2019-04-27T12:26:29Z</time>
      </trkpt>
      <trkpt lat="44.17543" lon="5.44318">
        <ele>640.465</ele>
        <time>2019-04-27T12:26:40Z</time>
      </trkpt>
      <trkpt lat="44.17538" lon="5.44315">
        <ele>640.048</ele>
        <time>2019-04-27T12:26:51Z</time>
      </trkpt>
      <trkpt lat="44.17536" lon="5.44312">
        <ele>639.652</ele>
        <time>2019-04-27T12:27:01Z</time>
      </trkpt>
      <trkpt lat="44.17536" lon="5.44311">
        <ele>639.32</ele>
        <time>2019-04-27T12:27:11Z</time>
      </trkpt>
      <trkpt lat="44.17533" lon="5.44313">
        <ele>639.868</ele>
        <time>2019-04-27T12:27:22Z</time>
      </trkpt>
      <trkpt lat="44.17529" lon="5.44317">
        <ele>640.851</ele>
        <time>2019-04-27T12:27:33Z</time>
      </trkpt>
      <trkpt lat="44.17533" lon="5.44315">
        <ele>641.417</ele>
        <time>2019-04-27T12:27:43Z</time>
      </trkpt>
      <trkpt lat="44.17535" lon="5.44314">
        <ele>642.086</ele>
        <time>2019-04-27T12:27:54Z</time>
      </trkpt>
      <trkpt lat="44.17539" lon="5.44313">
        <ele>642.159</ele>
        <time>2019-04-27T12:28:04Z</time>
      </trkpt>
      <trkpt lat="44.17544" lon="5.44316">
        <ele>641.899</ele>
        <time>2019-04-27T12:28:15Z</time>
      </trkpt>
      <trkpt lat="44.17549" lon="5.4432">
        <ele>641.156</ele>
        <time>2019-04-27T12:28:26Z</time>
      </trkpt>
      <trkpt lat="44.17551" lon="5.44321">
        <ele>640.306</ele>
        <time>2019-04-27T12:28:37Z</time>
      </trkpt>
      <trkpt lat="44.17544" lon="5.44314">
        <ele>638.487</ele>
        <time>2019-04-27T12:28:48Z</time>
      </trkpt>
      <trkpt lat="44.17537" lon="5.44307">
        <ele>637.06</ele>
        <time>2019-04-27T12:28:59Z</time>
      </trkpt>
      <trkpt lat="44.17536" lon="5.44307">
        <ele>636.107</ele>
        <time>2019-04-27T12:29:10Z</time>
      </trkpt>
      <trkpt lat="44.17537" lon="5.44309">
        <ele>636.008</ele>
        <time>2019-04-27T12:29:20Z</time>
      </trkpt>
      <trkpt lat="44.17537" lon="5.44315">
        <ele>636.751</ele>
        <time>2019-04-27T12:29:30Z</time>
      </trkpt>
      <trkpt lat="44.17537" lon="5.44316">
        <ele>637.947</ele>
        <time>2019-04-27T12:29:41Z</time>
      </trkpt>
      <trkpt lat="44.17538" lon="5.44315">
        <ele>638.784</ele>
        <time>2019-04-27T12:29:52Z</time>
      </trkpt>
      <trkpt lat="44.17528" lon="5.44303">
        <ele>639.326</ele>
        <time>2019-04-27T12:30:05Z</time>
      </trkpt>
      <trkpt lat="44.17521" lon="5.44297">
        <ele>640.728</ele>
        <time>2019-04-27T12:30:16Z</time>
      </trkpt>
      <trkpt lat="44.17538" lon="5.44305">
        <ele>641.659</ele>
        <time>2019-04-27T12:30:26Z</time>
      </trkpt>
      <trkpt lat="44.17539" lon="5.44307">
        <ele>642.498</ele>
        <time>2019-04-27T12:30:36Z</time>
      </trkpt>
      <trkpt lat="44.1754" lon="5.44307">
        <ele>642.871</ele>
        <time>2019-04-27T12:30:47Z</time>
      </trkpt>
      <trkpt lat="44.17544" lon="5.4431">
        <ele>643.445</ele>
        <time>2019-04-27T12:30:58Z</time>
      </trkpt>
      <trkpt lat="44.17544" lon="5.44309">
        <ele>643.445</ele>
        <time>2019-04-27T12:31:08Z</time>
      </trkpt>
      <trkpt lat="44.17544" lon="5.44309">
        <ele>643.455</ele>
        <time>2019-04-27T12:31:19Z</time>
      </trkpt>
      <trkpt lat="44.17544" lon="5.44309">
        <ele>643.514</ele>
        <time>2019-04-27T12:31:30Z</time>
      </trkpt>
      <trkpt lat="44.17544" lon="5.44309">
        <ele>643.597</ele>
        <time>2019-04-27T12:31:40Z</time>
      </trkpt>
      <trkpt lat="44.17543" lon="5.44309">
        <ele>643.705</ele>
        <time>2019-04-27T12:31:50Z</time>
      </trkpt>
      <trkpt lat="44.17543" lon="5.44308">
        <ele>643.844</ele>
        <time>2019-04-27T12:32:01Z</time>
      </trkpt>
      <trkpt lat="44.17543" lon="5.44304">
        <ele>644.79</ele>
        <time>2019-04-27T12:32:11Z</time>
      </trkpt>
      <trkpt lat="44.17539" lon="5.44301">
        <ele>645.616</ele>
        <time>2019-04-27T12:32:22Z</time>
      </trkpt>
      <trkpt lat="44.17539" lon="5.44301">
        <ele>646.04</ele>
        <time>2019-04-27T12:32:33Z</time>
      </trkpt>
      <trkpt lat="44.1754" lon="5.443">
        <ele>646.235</ele>
        <time>2019-04-27T12:32:43Z</time>
      </trkpt>
      <trkpt lat="44.1754" lon="5.443">
        <ele>646.451</ele>
        <time>2019-04-27T12:32:53Z</time>
      </trkpt>
      <trkpt lat="44.17539" lon="5.44301">
        <ele>646.645</ele>
        <time>2019-04-27T12:33:03Z</time>
      </trkpt>
      <trkpt lat="44.17539" lon="5.44301">
        <ele>646.822</ele>
        <time>2019-04-27T12:33:13Z</time>
      </trkpt>
      <trkpt lat="44.1754" lon="5.44302">
        <ele>647.014</ele>
        <time>2019-04-27T12:33:24Z</time>
      </trkpt>
      <trkpt lat="44.17539" lon="5.44301">
        <ele>647.341</ele>
        <time>2019-04-27T12:33:35Z</time>
      </trkpt>
      <trkpt lat="44.17539" lon="5.44301">
        <ele>647.488</ele>
        <time>2019-04-27T12:33:45Z</time>
      </trkpt>
      <trkpt lat="44.1754" lon="5.44301">
        <ele>647.608</ele>
        <time>2019-04-27T12:33:56Z</time>
      </trkpt>
      <trkpt lat="44.17541" lon="5.44284">
        <ele>648.092</ele>
        <time>2019-04-27T12:34:07Z</time>
      </trkpt>
      <trkpt lat="44.17535" lon="5.44233">
        <ele>648.536</ele>
        <time>2019-04-27T12:34:17Z</time>
      </trkpt>
      <trkpt lat="44.17521" lon="5.44171">
        <ele>642.356</ele>
        <time>2019-04-27T12:34:27Z</time>
      </trkpt>
      <trkpt lat="44.17471" lon="5.44145">
        <ele>638.296</ele>
        <time>2019-04-27T12:34:38Z</time>
      </trkpt>
      <trkpt lat="44.17464" lon="5.44056">
        <ele>637.052</ele>
        <time>2019-04-27T12:34:49Z</time>
      </trkpt>
      <trkpt lat="44.17457" lon="5.43972">
        <ele>637.646</ele>
        <time>2019-04-27T12:34:59Z</time>
      </trkpt>
      <trkpt lat="44.1745" lon="5.43891">
        <ele>636.907</ele>
        <time>2019-04-27T12:35:09Z</time>
      </trkpt>
      <trkpt lat="44.17441" lon="5.43797">
        <ele>636.19</ele>
        <time>2019-04-27T12:35:20Z</time>
      </trkpt>
      <trkpt lat="44.17432" lon="5.43706">
        <ele>635.906</ele>
        <time>2019-04-27T12:35:31Z</time>
      </trkpt>
      <trkpt lat="44.17408" lon="5.43639">
        <ele>635.362</ele>
        <time>2019-04-27T12:35:41Z</time>
      </trkpt>
      <trkpt lat="44.17341" lon="5.43625">
        <ele>634.144</ele>
        <time>2019-04-27T12:35:52Z</time>
      </trkpt>
      <trkpt lat="44.17272" lon="5.43613">
        <ele>633.087</ele>
        <time>2019-04-27T12:36:03Z</time>
      </trkpt>
      <trkpt lat="44.17212" lon="5.43584">
        <ele>632.157</ele>
        <time>2019-04-27T12:36:13Z</time>
      </trkpt>
      <trkpt lat="44.17161" lon="5.43526">
        <ele>631.236</ele>
        <time>2019-04-27T12:36:24Z</time>
      </trkpt>
      <trkpt lat="44.1711" lon="5.4348">
        <ele>630.225</ele>
        <time>2019-04-27T12:36:34Z</time>
      </trkpt>
      <trkpt lat="44.17056" lon="5.43433">
        <ele>629.378</ele>
        <time>2019-04-27T12:36:45Z</time>
      </trkpt>
      <trkpt lat="44.1701" lon="5.43392">
        <ele>628.538</ele>
        <time>2019-04-27T12:36:56Z</time>
      </trkpt>
      <trkpt lat="44.16976" lon="5.43352">
        <ele>628.067</ele>
        <time>2019-04-27T12:37:07Z</time>
      </trkpt>
      <trkpt lat="44.16955" lon="5.43324">
        <ele>628.021</ele>
        <time>2019-04-27T12:37:17Z</time>
      </trkpt>
      <trkpt lat="44.16936" lon="5.43296">
        <ele>627.986</ele>
        <time>2019-04-27T12:37:28Z</time>
      </trkpt>
      <trkpt lat="44.16917" lon="5.43271">
        <ele>628.024</ele>
        <time>2019-04-27T12:37:38Z</time>
      </trkpt>
      <trkpt lat="44.16886" lon="5.43255">
        <ele>628.193</ele>
        <time>2019-04-27T12:37:49Z</time>
      </trkpt>
      <trkpt lat="44.16848" lon="5.43259">
        <ele>628.988</ele>
        <time>2019-04-27T12:37:59Z</time>
      </trkpt>
      <trkpt lat="44.16795" lon="5.43285">
        <ele>629.23</ele>
        <time>2019-04-27T12:38:10Z</time>
      </trkpt>
      <trkpt lat="44.16735" lon="5.43273">
        <ele>629.064</ele>
        <time>2019-04-27T12:38:21Z</time>
      </trkpt>
      <trkpt lat="44.16681" lon="5.43245">
        <ele>628.75</ele>
        <time>2019-04-27T12:38:31Z</time>
      </trkpt>
      <trkpt lat="44.16611" lon="5.4322">
        <ele>627.852</ele>
        <time>2019-04-27T12:38:41Z</time>
      </trkpt>
      <trkpt lat="44.16526" lon="5.43192">
        <ele>625.79</ele>
        <time>2019-04-27T12:38:52Z</time>
      </trkpt>
      <trkpt lat="44.16447" lon="5.4317">
        <ele>623.774</ele>
        <time>2019-04-27T12:39:03Z</time>
      </trkpt>
      <trkpt lat="44.1639" lon="5.43151">
        <ele>621.805</ele>
        <time>2019-04-27T12:39:13Z</time>
      </trkpt>
      <trkpt lat="44.16341" lon="5.43135">
        <ele>620.516</ele>
        <time>2019-04-27T12:39:24Z</time>
      </trkpt>
      <trkpt lat="44.163" lon="5.43143">
        <ele>619.682</ele>
        <time>2019-04-27T12:39:34Z</time>
      </trkpt>
      <trkpt lat="44.16255" lon="5.43166">
        <ele>619.282</ele>
        <time>2019-04-27T12:39:45Z</time>
      </trkpt>
      <trkpt lat="44.16218" lon="5.43187">
        <ele>619.471</ele>
        <time>2019-04-27T12:39:55Z</time>
      </trkpt>
      <trkpt lat="44.16173" lon="5.43218">
        <ele>618.267</ele>
        <time>2019-04-27T12:40:06Z</time>
      </trkpt>
      <trkpt lat="44.16132" lon="5.4325">
        <ele>617.951</ele>
        <time>2019-04-27T12:40:17Z</time>
      </trkpt>
      <trkpt lat="44.16094" lon="5.43279">
        <ele>619.959</ele>
        <time>2019-04-27T12:40:28Z</time>
      </trkpt>
      <trkpt lat="44.1605" lon="5.43291">
        <ele>622.86</ele>
        <time>2019-04-27T12:40:39Z</time>
      </trkpt>
      <trkpt lat="44.16018" lon="5.43298">
        <ele>623.284</ele>
        <time>2019-04-27T12:40:49Z</time>
      </trkpt>
      <trkpt lat="44.15985" lon="5.43323">
        <ele>623.98</ele>
        <time>2019-04-27T12:41:00Z</time>
      </trkpt>
      <trkpt lat="44.15959" lon="5.43337">
        <ele>624.86</ele>
        <time>2019-04-27T12:41:10Z</time>
      </trkpt>
      <trkpt lat="44.15925" lon="5.43344">
        <ele>625.903</ele>
        <time>2019-04-27T12:41:21Z</time>
      </trkpt>
      <trkpt lat="44.15893" lon="5.43355">
        <ele>627.067</ele>
        <time>2019-04-27T12:41:32Z</time>
      </trkpt>
      <trkpt lat="44.15871" lon="5.43381">
        <ele>629.013</ele>
        <time>2019-04-27T12:41:43Z</time>
      </trkpt>
      <trkpt lat="44.15855" lon="5.43416">
        <ele>630.21</ele>
        <time>2019-04-27T12:41:54Z</time>
      </trkpt>
      <trkpt lat="44.15839" lon="5.43436">
        <ele>631.71</ele>
        <time>2019-04-27T12:42:05Z</time>
      </trkpt>
      <trkpt lat="44.15822" lon="5.43454">
        <ele>632.853</ele>
        <time>2019-04-27T12:42:16Z</time>
      </trkpt>
      <trkpt lat="44.15804" lon="5.43474">
        <ele>633.738</ele>
        <time>2019-04-27T12:42:27Z</time>
      </trkpt>
      <trkpt lat="44.15782" lon="5.43477">
        <ele>634.836</ele>
        <time>2019-04-27T12:42:37Z</time>
      </trkpt>
      <trkpt lat="44.1576" lon="5.43483">
        <ele>636.545</ele>
        <time>2019-04-27T12:42:48Z</time>
      </trkpt>
      <trkpt lat="44.15739" lon="5.4349">
        <ele>638.372</ele>
        <time>2019-04-27T12:42:58Z</time>
      </trkpt>
      <trkpt lat="44.15718" lon="5.43497">
        <ele>640.831</ele>
        <time>2019-04-27T12:43:09Z</time>
      </trkpt>
      <trkpt lat="44.15697" lon="5.43504">
        <ele>642.826</ele>
        <time>2019-04-27T12:43:20Z</time>
      </trkpt>
      <trkpt lat="44.15675" lon="5.43515">
        <ele>644.465</ele>
        <time>2019-04-27T12:43:31Z</time>
      </trkpt>
      <trkpt lat="44.15654" lon="5.4352">
        <ele>645.83</ele>
        <time>2019-04-27T12:43:41Z</time>
      </trkpt>
      <trkpt lat="44.15631" lon="5.43521">
        <ele>647.619</ele>
        <time>2019-04-27T12:43:51Z</time>
      </trkpt>
      <trkpt lat="44.15612" lon="5.43535">
        <ele>649.109</ele>
        <time>2019-04-27T12:44:02Z</time>
      </trkpt>
      <trkpt lat="44.15589" lon="5.4357">
        <ele>650.619</ele>
        <time>2019-04-27T12:44:12Z</time>
      </trkpt>
      <trkpt lat="44.15547" lon="5.43591">
        <ele>656.673</ele>
        <time>2019-04-27T12:44:23Z</time>
      </trkpt>
      <trkpt lat="44.15506" lon="5.43575">
        <ele>656.813</ele>
        <time>2019-04-27T12:44:33Z</time>
      </trkpt>
      <trkpt lat="44.15468" lon="5.43568">
        <ele>656.075</ele>
        <time>2019-04-27T12:44:43Z</time>
      </trkpt>
      <trkpt lat="44.15435" lon="5.43566">
        <ele>655.77</ele>
        <time>2019-04-27T12:44:54Z</time>
      </trkpt>
      <trkpt lat="44.15409" lon="5.43564">
        <ele>655.359</ele>
        <time>2019-04-27T12:45:04Z</time>
      </trkpt>
      <trkpt lat="44.15379" lon="5.4356">
        <ele>655.147</ele>
        <time>2019-04-27T12:45:14Z</time>
      </trkpt>
      <trkpt lat="44.15352" lon="5.4354">
        <ele>655.218</ele>
        <time>2019-04-27T12:45:24Z</time>
      </trkpt>
      <trkpt lat="44.15321" lon="5.43504">
        <ele>656.101</ele>
        <time>2019-04-27T12:45:35Z</time>
      </trkpt>
      <trkpt lat="44.15296" lon="5.43469">
        <ele>656.577</ele>
        <time>2019-04-27T12:45:45Z</time>
      </trkpt>
      <trkpt lat="44.15281" lon="5.43419">
        <ele>656.756</ele>
        <time>2019-04-27T12:45:56Z</time>
      </trkpt>
      <trkpt lat="44.15281" lon="5.43371">
        <ele>656.956</ele>
        <time>2019-04-27T12:46:06Z</time>
      </trkpt>
      <trkpt lat="44.15286" lon="5.43325">
        <ele>657.515</ele>
        <time>2019-04-27T12:46:17Z</time>
      </trkpt>
      <trkpt lat="44.15291" lon="5.43288">
        <ele>658.247</ele>
        <time>2019-04-27T12:46:27Z</time>
      </trkpt>
      <trkpt lat="44.15294" lon="5.43246">
        <ele>659.979</ele>
        <time>2019-04-27T12:46:38Z</time>
      </trkpt>
      <trkpt lat="44.15297" lon="5.4321">
        <ele>661.43</ele>
        <time>2019-04-27T12:46:49Z</time>
      </trkpt>
      <trkpt lat="44.15299" lon="5.43178">
        <ele>662.64</ele>
        <time>2019-04-27T12:46:59Z</time>
      </trkpt>
      <trkpt lat="44.153" lon="5.43144">
        <ele>663.664</ele>
        <time>2019-04-27T12:47:10Z</time>
      </trkpt>
      <trkpt lat="44.15296" lon="5.43112">
        <ele>664.738</ele>
        <time>2019-04-27T12:47:20Z</time>
      </trkpt>
      <trkpt lat="44.15288" lon="5.43078">
        <ele>666.198</ele>
        <time>2019-04-27T12:47:31Z</time>
      </trkpt>
      <trkpt lat="44.15276" lon="5.43047">
        <ele>667.598</ele>
        <time>2019-04-27T12:47:42Z</time>
      </trkpt>
      <trkpt lat="44.15262" lon="5.43025">
        <ele>668.548</ele>
        <time>2019-04-27T12:47:52Z</time>
      </trkpt>
      <trkpt lat="44.15247" lon="5.43006">
        <ele>669.175</ele>
        <time>2019-04-27T12:48:02Z</time>
      </trkpt>
      <trkpt lat="44.15227" lon="5.42984">
        <ele>670.118</ele>
        <time>2019-04-27T12:48:13Z</time>
      </trkpt>
      <trkpt lat="44.15206" lon="5.42963">
        <ele>670.718</ele>
        <time>2019-04-27T12:48:23Z</time>
      </trkpt>
      <trkpt lat="44.15184" lon="5.42941">
        <ele>671.46</ele>
        <time>2019-04-27T12:48:34Z</time>
      </trkpt>
      <trkpt lat="44.15166" lon="5.42919">
        <ele>672.422</ele>
        <time>2019-04-27T12:48:44Z</time>
      </trkpt>
      <trkpt lat="44.15147" lon="5.42898">
        <ele>673.333</ele>
        <time>2019-04-27T12:48:55Z</time>
      </trkpt>
      <trkpt lat="44.15129" lon="5.42874">
        <ele>674.195</ele>
        <time>2019-04-27T12:49:05Z</time>
      </trkpt>
      <trkpt lat="44.15106" lon="5.42854">
        <ele>675.389</ele>
        <time>2019-04-27T12:49:16Z</time>
      </trkpt>
      <trkpt lat="44.1508" lon="5.42844">
        <ele>676.543</ele>
        <time>2019-04-27T12:49:27Z</time>
      </trkpt>
      <trkpt lat="44.15053" lon="5.42839">
        <ele>677.549</ele>
        <time>2019-04-27T12:49:38Z</time>
      </trkpt>
      <trkpt lat="44.15026" lon="5.42828">
        <ele>678.533</ele>
        <time>2019-04-27T12:49:49Z</time>
      </trkpt>
      <trkpt lat="44.15004" lon="5.42813">
        <ele>679.432</ele>
        <time>2019-04-27T12:49:59Z</time>
      </trkpt>
      <trkpt lat="44.14984" lon="5.42785">
        <ele>680.402</ele>
        <time>2019-04-27T12:50:10Z</time>
      </trkpt>
      <trkpt lat="44.14978" lon="5.42752">
        <ele>681.129</ele>
        <time>2019-04-27T12:50:20Z</time>
      </trkpt>
      <trkpt lat="44.14985" lon="5.42718">
        <ele>682.059</ele>
        <time>2019-04-27T12:50:30Z</time>
      </trkpt>
      <trkpt lat="44.14996" lon="5.42681">
        <ele>682.977</ele>
        <time>2019-04-27T12:50:41Z</time>
      </trkpt>
      <trkpt lat="44.15004" lon="5.42646">
        <ele>683.929</ele>
        <time>2019-04-27T12:50:51Z</time>
      </trkpt>
      <trkpt lat="44.15013" lon="5.4261">
        <ele>685.018</ele>
        <time>2019-04-27T12:51:02Z</time>
      </trkpt>
      <trkpt lat="44.1502" lon="5.4258">
        <ele>686.134</ele>
        <time>2019-04-27T12:51:12Z</time>
      </trkpt>
      <trkpt lat="44.15024" lon="5.42544">
        <ele>687.552</ele>
        <time>2019-04-27T12:51:23Z</time>
      </trkpt>
      <trkpt lat="44.15022" lon="5.42506">
        <ele>689.136</ele>
        <time>2019-04-27T12:51:34Z</time>
      </trkpt>
      <trkpt lat="44.15014" lon="5.42471">
        <ele>690.653</ele>
        <time>2019-04-27T12:51:45Z</time>
      </trkpt>
      <trkpt lat="44.15005" lon="5.42442">
        <ele>691.913</ele>
        <time>2019-04-27T12:51:55Z</time>
      </trkpt>
      <trkpt lat="44.14995" lon="5.42407">
        <ele>692.951</ele>
        <time>2019-04-27T12:52:06Z</time>
      </trkpt>
      <trkpt lat="44.14983" lon="5.42375">
        <ele>693.852</ele>
        <time>2019-04-27T12:52:17Z</time>
      </trkpt>
      <trkpt lat="44.14975" lon="5.42358">
        <ele>694.59</ele>
        <time>2019-04-27T12:52:27Z</time>
      </trkpt>
      <trkpt lat="44.14975" lon="5.42357">
        <ele>694.758</ele>
        <time>2019-04-27T12:52:38Z</time>
      </trkpt>
      <trkpt lat="44.14973" lon="5.42355">
        <ele>694.983</ele>
        <time>2019-04-27T12:52:49Z</time>
      </trkpt>
      <trkpt lat="44.14973" lon="5.42354">
        <ele>695.152</ele>
        <time>2019-04-27T12:52:59Z</time>
      </trkpt>
      <trkpt lat="44.14972" lon="5.42352">
        <ele>695.385</ele>
        <time>2019-04-27T12:53:10Z</time>
      </trkpt>
      <trkpt lat="44.14972" lon="5.42352">
        <ele>695.674</ele>
        <time>2019-04-27T12:53:20Z</time>
      </trkpt>
      <trkpt lat="44.14972" lon="5.42353">
        <ele>695.799</ele>
        <time>2019-04-27T12:53:31Z</time>
      </trkpt>
      <trkpt lat="44.14971" lon="5.42354">
        <ele>695.798</ele>
        <time>2019-04-27T12:53:42Z</time>
      </trkpt>
      <trkpt lat="44.14971" lon="5.42354">
        <ele>695.679</ele>
        <time>2019-04-27T12:53:52Z</time>
      </trkpt>
      <trkpt lat="44.14971" lon="5.42354">
        <ele>695.553</ele>
        <time>2019-04-27T12:54:03Z</time>
      </trkpt>
      <trkpt lat="44.14971" lon="5.42355">
        <ele>695.512</ele>
        <time>2019-04-27T12:54:13Z</time>
      </trkpt>
      <trkpt lat="44.14971" lon="5.42355">
        <ele>695.527</ele>
        <time>2019-04-27T12:54:24Z</time>
      </trkpt>
      <trkpt lat="44.14971" lon="5.42357">
        <ele>695.641</ele>
        <time>2019-04-27T12:54:34Z</time>
      </trkpt>
      <trkpt lat="44.14972" lon="5.42357">
        <ele>695.746</ele>
        <time>2019-04-27T12:54:45Z</time>
      </trkpt>
      <trkpt lat="44.1497" lon="5.42358">
        <ele>696.057</ele>
        <time>2019-04-27T12:54:55Z</time>
      </trkpt>
      <trkpt lat="44.14951" lon="5.4234">
        <ele>696.875</ele>
        <time>2019-04-27T12:55:06Z</time>
      </trkpt>
      <trkpt lat="44.14931" lon="5.4232">
        <ele>697.423</ele>
        <time>2019-04-27T12:55:16Z</time>
      </trkpt>
      <trkpt lat="44.14913" lon="5.423">
        <ele>698.028</ele>
        <time>2019-04-27T12:55:26Z</time>
      </trkpt>
      <trkpt lat="44.14891" lon="5.42276">
        <ele>698.627</ele>
        <time>2019-04-27T12:55:37Z</time>
      </trkpt>
      <trkpt lat="44.14872" lon="5.42248">
        <ele>699.47</ele>
        <time>2019-04-27T12:55:48Z</time>
      </trkpt>
      <trkpt lat="44.14853" lon="5.42221">
        <ele>700.61</ele>
        <time>2019-04-27T12:55:59Z</time>
      </trkpt>
      <trkpt lat="44.14832" lon="5.42199">
        <ele>701.96</ele>
        <time>2019-04-27T12:56:09Z</time>
      </trkpt>
      <trkpt lat="44.14806" lon="5.42171">
        <ele>703.372</ele>
        <time>2019-04-27T12:56:20Z</time>
      </trkpt>
      <trkpt lat="44.1479" lon="5.42135">
        <ele>704.588</ele>
        <time>2019-04-27T12:56:31Z</time>
      </trkpt>
      <trkpt lat="44.14774" lon="5.42109">
        <ele>706.047</ele>
        <time>2019-04-27T12:56:42Z</time>
      </trkpt>
      <trkpt lat="44.1475" lon="5.42097">
        <ele>706.782</ele>
        <time>2019-04-27T12:56:52Z</time>
      </trkpt>
      <trkpt lat="44.14723" lon="5.42075">
        <ele>707.648</ele>
        <time>2019-04-27T12:57:03Z</time>
      </trkpt>
      <trkpt lat="44.14712" lon="5.42049">
        <ele>709.464</ele>
        <time>2019-04-27T12:57:13Z</time>
      </trkpt>
      <trkpt lat="44.1469" lon="5.42028">
        <ele>711.73</ele>
        <time>2019-04-27T12:57:24Z</time>
      </trkpt>
      <trkpt lat="44.14667" lon="5.42021">
        <ele>713.271</ele>
        <time>2019-04-27T12:57:34Z</time>
      </trkpt>
      <trkpt lat="44.14639" lon="5.42013">
        <ele>714.115</ele>
        <time>2019-04-27T12:57:45Z</time>
      </trkpt>
      <trkpt lat="44.14613" lon="5.42006">
        <ele>714.834</ele>
        <time>2019-04-27T12:57:55Z</time>
      </trkpt>
      <trkpt lat="44.1459" lon="5.42001">
        <ele>715.577</ele>
        <time>2019-04-27T12:58:06Z</time>
      </trkpt>
      <trkpt lat="44.14564" lon="5.42">
        <ele>716.631</ele>
        <time>2019-04-27T12:58:17Z</time>
      </trkpt>
      <trkpt lat="44.14538" lon="5.42009">
        <ele>717.995</ele>
        <time>2019-04-27T12:58:27Z</time>
      </trkpt>
      <trkpt lat="44.14511" lon="5.42023">
        <ele>719.687</ele>
        <time>2019-04-27T12:58:38Z</time>
      </trkpt>
      <trkpt lat="44.14491" lon="5.42044">
        <ele>720.786</ele>
        <time>2019-04-27T12:58:48Z</time>
      </trkpt>
      <trkpt lat="44.14465" lon="5.42057">
        <ele>721.433</ele>
        <time>2019-04-27T12:58:59Z</time>
      </trkpt>
      <trkpt lat="44.1444" lon="5.42057">
        <ele>721.992</ele>
        <time>2019-04-27T12:59:09Z</time>
      </trkpt>
      <trkpt lat="44.14415" lon="5.42052">
        <ele>722.784</ele>
        <time>2019-04-27T12:59:20Z</time>
      </trkpt>
      <trkpt lat="44.14394" lon="5.42048">
        <ele>723.36</ele>
        <time>2019-04-27T12:59:30Z</time>
      </trkpt>
      <trkpt lat="44.14372" lon="5.42041">
        <ele>723.657</ele>
        <time>2019-04-27T12:59:40Z</time>
      </trkpt>
      <trkpt lat="44.1435" lon="5.42027">
        <ele>723.851</ele>
        <time>2019-04-27T12:59:51Z</time>
      </trkpt>
      <trkpt lat="44.14328" lon="5.42014">
        <ele>724.331</ele>
        <time>2019-04-27T13:00:02Z</time>
      </trkpt>
      <trkpt lat="44.14309" lon="5.42005">
        <ele>724.913</ele>
        <time>2019-04-27T13:00:13Z</time>
      </trkpt>
      <trkpt lat="44.14289" lon="5.42001">
        <ele>725.411</ele>
        <time>2019-04-27T13:00:23Z</time>
      </trkpt>
      <trkpt lat="44.14267" lon="5.42008">
        <ele>726.977</ele>
        <time>2019-04-27T13:00:34Z</time>
      </trkpt>
      <trkpt lat="44.1424" lon="5.42018">
        <ele>728.168</ele>
        <time>2019-04-27T13:00:45Z</time>
      </trkpt>
      <trkpt lat="44.1422" lon="5.4202">
        <ele>728.953</ele>
        <time>2019-04-27T13:00:55Z</time>
      </trkpt>
      <trkpt lat="44.14198" lon="5.42013">
        <ele>729.843</ele>
        <time>2019-04-27T13:01:06Z</time>
      </trkpt>
      <trkpt lat="44.14179" lon="5.42">
        <ele>730.727</ele>
        <time>2019-04-27T13:01:16Z</time>
      </trkpt>
      <trkpt lat="44.14164" lon="5.41977">
        <ele>732.112</ele>
        <time>2019-04-27T13:01:27Z</time>
      </trkpt>
      <trkpt lat="44.14152" lon="5.41962">
        <ele>733.801</ele>
        <time>2019-04-27T13:01:37Z</time>
      </trkpt>
      <trkpt lat="44.1413" lon="5.41942">
        <ele>735.013</ele>
        <time>2019-04-27T13:01:48Z</time>
      </trkpt>
      <trkpt lat="44.14113" lon="5.4192">
        <ele>735.923</ele>
        <time>2019-04-27T13:01:58Z</time>
      </trkpt>
      <trkpt lat="44.141" lon="5.41893">
        <ele>737.406</ele>
        <time>2019-04-27T13:02:08Z</time>
      </trkpt>
      <trkpt lat="44.1408" lon="5.41874">
        <ele>739.129</ele>
        <time>2019-04-27T13:02:19Z</time>
      </trkpt>
      <trkpt lat="44.14057" lon="5.41864">
        <ele>741.239</ele>
        <time>2019-04-27T13:02:30Z</time>
      </trkpt>
      <trkpt lat="44.14038" lon="5.41871">
        <ele>743.254</ele>
        <time>2019-04-27T13:02:41Z</time>
      </trkpt>
      <trkpt lat="44.14011" lon="5.41879">
        <ele>744.101</ele>
        <time>2019-04-27T13:02:52Z</time>
      </trkpt>
      <trkpt lat="44.13982" lon="5.41883">
        <ele>745.126</ele>
        <time>2019-04-27T13:03:02Z</time>
      </trkpt>
      <trkpt lat="44.13961" lon="5.41876">
        <ele>746.014</ele>
        <time>2019-04-27T13:03:13Z</time>
      </trkpt>
      <trkpt lat="44.13944" lon="5.41863">
        <ele>746.733</ele>
        <time>2019-04-27T13:03:24Z</time>
      </trkpt>
      <trkpt lat="44.13928" lon="5.41848">
        <ele>747.46</ele>
        <time>2019-04-27T13:03:34Z</time>
      </trkpt>
      <trkpt lat="44.13912" lon="5.41837">
        <ele>748.662</ele>
        <time>2019-04-27T13:03:44Z</time>
      </trkpt>
      <trkpt lat="44.13891" lon="5.41837">
        <ele>749.707</ele>
        <time>2019-04-27T13:03:55Z</time>
      </trkpt>
      <trkpt lat="44.13871" lon="5.41854">
        <ele>750.759</ele>
        <time>2019-04-27T13:04:06Z</time>
      </trkpt>
      <trkpt lat="44.13858" lon="5.41875">
        <ele>751.77</ele>
        <time>2019-04-27T13:04:16Z</time>
      </trkpt>
      <trkpt lat="44.13853" lon="5.41902">
        <ele>752.758</ele>
        <time>2019-04-27T13:04:27Z</time>
      </trkpt>
      <trkpt lat="44.13851" lon="5.41932">
        <ele>753.649</ele>
        <time>2019-04-27T13:04:37Z</time>
      </trkpt>
      <trkpt lat="44.13848" lon="5.41961">
        <ele>754.622</ele>
        <time>2019-04-27T13:04:47Z</time>
      </trkpt>
      <trkpt lat="44.13837" lon="5.41983">
        <ele>755.732</ele>
        <time>2019-04-27T13:04:58Z</time>
      </trkpt>
      <trkpt lat="44.13821" lon="5.41993">
        <ele>757.02</ele>
        <time>2019-04-27T13:05:09Z</time>
      </trkpt>
      <trkpt lat="44.13798" lon="5.41989">
        <ele>758.477</ele>
        <time>2019-04-27T13:05:20Z</time>
      </trkpt>
      <trkpt lat="44.13779" lon="5.41985">
        <ele>760.277</ele>
        <time>2019-04-27T13:05:31Z</time>
      </trkpt>
      <trkpt lat="44.13761" lon="5.41984">
        <ele>761.921</ele>
        <time>2019-04-27T13:05:42Z</time>
      </trkpt>
      <trkpt lat="44.13742" lon="5.41989">
        <ele>763.198</ele>
        <time>2019-04-27T13:05:52Z</time>
      </trkpt>
      <trkpt lat="44.13722" lon="5.41999">
        <ele>764.392</ele>
        <time>2019-04-27T13:06:03Z</time>
      </trkpt>
      <trkpt lat="44.13706" lon="5.42001">
        <ele>765.402</ele>
        <time>2019-04-27T13:06:13Z</time>
      </trkpt>
      <trkpt lat="44.13682" lon="5.42005">
        <ele>767.67</ele>
        <time>2019-04-27T13:06:24Z</time>
      </trkpt>
      <trkpt lat="44.13658" lon="5.42013">
        <ele>769.904</ele>
        <time>2019-04-27T13:06:35Z</time>
      </trkpt>
      <trkpt lat="44.13633" lon="5.42017">
        <ele>770.826</ele>
        <time>2019-04-27T13:06:45Z</time>
      </trkpt>
      <trkpt lat="44.13605" lon="5.42015">
        <ele>771.847</ele>
        <time>2019-04-27T13:06:56Z</time>
      </trkpt>
      <trkpt lat="44.13581" lon="5.42018">
        <ele>773.465</ele>
        <time>2019-04-27T13:07:07Z</time>
      </trkpt>
      <trkpt lat="44.13558" lon="5.4202">
        <ele>774.733</ele>
        <time>2019-04-27T13:07:17Z</time>
      </trkpt>
      <trkpt lat="44.13535" lon="5.4202">
        <ele>776.442</ele>
        <time>2019-04-27T13:07:27Z</time>
      </trkpt>
      <trkpt lat="44.13513" lon="5.42021">
        <ele>778.362</ele>
        <time>2019-04-27T13:07:38Z</time>
      </trkpt>
      <trkpt lat="44.13487" lon="5.4202">
        <ele>779.617</ele>
        <time>2019-04-27T13:07:49Z</time>
      </trkpt>
      <trkpt lat="44.13463" lon="5.42021">
        <ele>780.334</ele>
        <time>2019-04-27T13:08:00Z</time>
      </trkpt>
      <trkpt lat="44.13442" lon="5.4202">
        <ele>781.522</ele>
        <time>2019-04-27T13:08:10Z</time>
      </trkpt>
      <trkpt lat="44.1342" lon="5.42023">
        <ele>781.849</ele>
        <time>2019-04-27T13:08:21Z</time>
      </trkpt>
      <trkpt lat="44.13392" lon="5.42021">
        <ele>782.23</ele>
        <time>2019-04-27T13:08:31Z</time>
      </trkpt>
      <trkpt lat="44.13369" lon="5.42015">
        <ele>783.052</ele>
        <time>2019-04-27T13:08:42Z</time>
      </trkpt>
      <trkpt lat="44.13349" lon="5.42013">
        <ele>783.918</ele>
        <time>2019-04-27T13:08:52Z</time>
      </trkpt>
      <trkpt lat="44.13328" lon="5.42023">
        <ele>784.878</ele>
        <time>2019-04-27T13:09:03Z</time>
      </trkpt>
      <trkpt lat="44.13311" lon="5.42044">
        <ele>785.757</ele>
        <time>2019-04-27T13:09:14Z</time>
      </trkpt>
      <trkpt lat="44.13299" lon="5.42068">
        <ele>786.544</ele>
        <time>2019-04-27T13:09:24Z</time>
      </trkpt>
      <trkpt lat="44.13291" lon="5.42097">
        <ele>787.642</ele>
        <time>2019-04-27T13:09:35Z</time>
      </trkpt>
      <trkpt lat="44.13288" lon="5.42127">
        <ele>788.536</ele>
        <time>2019-04-27T13:09:45Z</time>
      </trkpt>
      <trkpt lat="44.13284" lon="5.42158">
        <ele>789.761</ele>
        <time>2019-04-27T13:09:55Z</time>
      </trkpt>
      <trkpt lat="44.13277" lon="5.42195">
        <ele>791.11</ele>
        <time>2019-04-27T13:10:06Z</time>
      </trkpt>
      <trkpt lat="44.13271" lon="5.42227">
        <ele>792.318</ele>
        <time>2019-04-27T13:10:16Z</time>
      </trkpt>
      <trkpt lat="44.13266" lon="5.42257">
        <ele>793.488</ele>
        <time>2019-04-27T13:10:27Z</time>
      </trkpt>
      <trkpt lat="44.13262" lon="5.42284">
        <ele>794.658</ele>
        <time>2019-04-27T13:10:38Z</time>
      </trkpt>
      <trkpt lat="44.13247" lon="5.42313">
        <ele>795.834</ele>
        <time>2019-04-27T13:10:49Z</time>
      </trkpt>
      <trkpt lat="44.13232" lon="5.42339">
        <ele>796.993</ele>
        <time>2019-04-27T13:11:00Z</time>
      </trkpt>
      <trkpt lat="44.1322" lon="5.42362">
        <ele>797.791</ele>
        <time>2019-04-27T13:11:11Z</time>
      </trkpt>
      <trkpt lat="44.13203" lon="5.42386">
        <ele>798.522</ele>
        <time>2019-04-27T13:11:21Z</time>
      </trkpt>
      <trkpt lat="44.13192" lon="5.42404">
        <ele>799.285</ele>
        <time>2019-04-27T13:11:31Z</time>
      </trkpt>
      <trkpt lat="44.13181" lon="5.42429">
        <ele>800.107</ele>
        <time>2019-04-27T13:11:42Z</time>
      </trkpt>
      <trkpt lat="44.13178" lon="5.42455">
        <ele>801.159</ele>
        <time>2019-04-27T13:11:52Z</time>
      </trkpt>
      <trkpt lat="44.13192" lon="5.42477">
        <ele>802.246</ele>
        <time>2019-04-27T13:12:02Z</time>
      </trkpt>
      <trkpt lat="44.13218" lon="5.4248">
        <ele>803.294</ele>
        <time>2019-04-27T13:12:13Z</time>
      </trkpt>
      <trkpt lat="44.13247" lon="5.42474">
        <ele>804.737</ele>
        <time>2019-04-27T13:12:23Z</time>
      </trkpt>
      <trkpt lat="44.13277" lon="5.42472">
        <ele>806.373</ele>
        <time>2019-04-27T13:12:34Z</time>
      </trkpt>
      <trkpt lat="44.13299" lon="5.42489">
        <ele>807.334</ele>
        <time>2019-04-27T13:12:44Z</time>
      </trkpt>
      <trkpt lat="44.13305" lon="5.42529">
        <ele>808.372</ele>
        <time>2019-04-27T13:12:55Z</time>
      </trkpt>
      <trkpt lat="44.13293" lon="5.42561">
        <ele>809.216</ele>
        <time>2019-04-27T13:13:05Z</time>
      </trkpt>
      <trkpt lat="44.13267" lon="5.42583">
        <ele>810.26</ele>
        <time>2019-04-27T13:13:16Z</time>
      </trkpt>
      <trkpt lat="44.13255" lon="5.42608">
        <ele>811.215</ele>
        <time>2019-04-27T13:13:27Z</time>
      </trkpt>
      <trkpt lat="44.13255" lon="5.42608">
        <ele>812.048</ele>
        <time>2019-04-27T13:13:39Z</time>
      </trkpt>
      <trkpt lat="44.1326" lon="5.4261">
        <ele>813.821</ele>
        <time>2019-04-27T13:13:50Z</time>
      </trkpt>
      <trkpt lat="44.13257" lon="5.42609">
        <ele>813.87</ele>
        <time>2019-04-27T13:14:00Z</time>
      </trkpt>
      <trkpt lat="44.13257" lon="5.42608">
        <ele>813.976</ele>
        <time>2019-04-27T13:14:11Z</time>
      </trkpt>
      <trkpt lat="44.13257" lon="5.42608">
        <ele>814.011</ele>
        <time>2019-04-27T13:14:21Z</time>
      </trkpt>
      <trkpt lat="44.13257" lon="5.42609">
        <ele>814.024</ele>
        <time>2019-04-27T13:14:31Z</time>
      </trkpt>
      <trkpt lat="44.13256" lon="5.42609">
        <ele>814.048</ele>
        <time>2019-04-27T13:14:42Z</time>
      </trkpt>
      <trkpt lat="44.13256" lon="5.4261">
        <ele>814.059</ele>
        <time>2019-04-27T13:14:52Z</time>
      </trkpt>
      <trkpt lat="44.13256" lon="5.4261">
        <ele>814.103</ele>
        <time>2019-04-27T13:15:02Z</time>
      </trkpt>
      <trkpt lat="44.13255" lon="5.42619">
        <ele>814.307</ele>
        <time>2019-04-27T13:15:12Z</time>
      </trkpt>
      <trkpt lat="44.13253" lon="5.42655">
        <ele>814.789</ele>
        <time>2019-04-27T13:15:23Z</time>
      </trkpt>
      <trkpt lat="44.13249" lon="5.42695">
        <ele>815.174</ele>
        <time>2019-04-27T13:15:34Z</time>
      </trkpt>
      <trkpt lat="44.13234" lon="5.42731">
        <ele>815.548</ele>
        <time>2019-04-27T13:15:45Z</time>
      </trkpt>
      <trkpt lat="44.13214" lon="5.42751">
        <ele>815.971</ele>
        <time>2019-04-27T13:15:55Z</time>
      </trkpt>
      <trkpt lat="44.13188" lon="5.42757">
        <ele>816.679</ele>
        <time>2019-04-27T13:16:05Z</time>
      </trkpt>
      <trkpt lat="44.1316" lon="5.42752">
        <ele>817.559</ele>
        <time>2019-04-27T13:16:16Z</time>
      </trkpt>
      <trkpt lat="44.13134" lon="5.42745">
        <ele>818.053</ele>
        <time>2019-04-27T13:16:27Z</time>
      </trkpt>
      <trkpt lat="44.13107" lon="5.42738">
        <ele>818.579</ele>
        <time>2019-04-27T13:16:37Z</time>
      </trkpt>
      <trkpt lat="44.13079" lon="5.42731">
        <ele>819.449</ele>
        <time>2019-04-27T13:16:48Z</time>
      </trkpt>
      <trkpt lat="44.13057" lon="5.42717">
        <ele>820.033</ele>
        <time>2019-04-27T13:16:58Z</time>
      </trkpt>
      <trkpt lat="44.13032" lon="5.42698">
        <ele>820.623</ele>
        <time>2019-04-27T13:17:09Z</time>
      </trkpt>
      <trkpt lat="44.13008" lon="5.42679">
        <ele>821.615</ele>
        <time>2019-04-27T13:17:19Z</time>
      </trkpt>
      <trkpt lat="44.12981" lon="5.4266">
        <ele>822.789</ele>
        <time>2019-04-27T13:17:30Z</time>
      </trkpt>
      <trkpt lat="44.12957" lon="5.42654">
        <ele>823.873</ele>
        <time>2019-04-27T13:17:40Z</time>
      </trkpt>
      <trkpt lat="44.12933" lon="5.42663">
        <ele>824.944</ele>
        <time>2019-04-27T13:17:50Z</time>
      </trkpt>
      <trkpt lat="44.12914" lon="5.4269">
        <ele>825.982</ele>
        <time>2019-04-27T13:18:00Z</time>
      </trkpt>
      <trkpt lat="44.12923" lon="5.42735">
        <ele>827.019</ele>
        <time>2019-04-27T13:18:11Z</time>
      </trkpt>
      <trkpt lat="44.12934" lon="5.4279">
        <ele>830.232</ele>
        <time>2019-04-27T13:18:21Z</time>
      </trkpt>
      <trkpt lat="44.12902" lon="5.42791">
        <ele>833.124</ele>
        <time>2019-04-27T13:18:31Z</time>
      </trkpt>
      <trkpt lat="44.12884" lon="5.42779">
        <ele>832.441</ele>
        <time>2019-04-27T13:18:42Z</time>
      </trkpt>
      <trkpt lat="44.12883" lon="5.42772">
        <ele>830.738</ele>
        <time>2019-04-27T13:18:53Z</time>
      </trkpt>
      <trkpt lat="44.1288" lon="5.42777">
        <ele>830.554</ele>
        <time>2019-04-27T13:19:03Z</time>
      </trkpt>
      <trkpt lat="44.12881" lon="5.42775">
        <ele>831.033</ele>
        <time>2019-04-27T13:19:14Z</time>
      </trkpt>
      <trkpt lat="44.12882" lon="5.42772">
        <ele>831.032</ele>
        <time>2019-04-27T13:19:25Z</time>
      </trkpt>
      <trkpt lat="44.12881" lon="5.42774">
        <ele>832.242</ele>
        <time>2019-04-27T13:19:35Z</time>
      </trkpt>
      <trkpt lat="44.12883" lon="5.42774">
        <ele>833.902</ele>
        <time>2019-04-27T13:19:46Z</time>
      </trkpt>
      <trkpt lat="44.12881" lon="5.42771">
        <ele>834.557</ele>
        <time>2019-04-27T13:19:56Z</time>
      </trkpt>
      <trkpt lat="44.12847" lon="5.4274">
        <ele>832.056</ele>
        <time>2019-04-27T13:20:07Z</time>
      </trkpt>
      <trkpt lat="44.12811" lon="5.42717">
        <ele>827.676</ele>
        <time>2019-04-27T13:20:17Z</time>
      </trkpt>
      <trkpt lat="44.1275" lon="5.42699">
        <ele>822.895</ele>
        <time>2019-04-27T13:20:27Z</time>
      </trkpt>
      <trkpt lat="44.12696" lon="5.4268">
        <ele>820.682</ele>
        <time>2019-04-27T13:20:38Z</time>
      </trkpt>
      <trkpt lat="44.12691" lon="5.42674">
        <ele>819.812</ele>
        <time>2019-04-27T13:20:49Z</time>
      </trkpt>
      <trkpt lat="44.12692" lon="5.42676">
        <ele>819.176</ele>
        <time>2019-04-27T13:20:59Z</time>
      </trkpt>
      <trkpt lat="44.12692" lon="5.42676">
        <ele>819.018</ele>
        <time>2019-04-27T13:21:09Z</time>
      </trkpt>
      <trkpt lat="44.12692" lon="5.42675">
        <ele>818.858</ele>
        <time>2019-04-27T13:21:19Z</time>
      </trkpt>
      <trkpt lat="44.1269" lon="5.42674">
        <ele>818.766</ele>
        <time>2019-04-27T13:21:30Z</time>
      </trkpt>
      <trkpt lat="44.12678" lon="5.42665">
        <ele>819.349</ele>
        <time>2019-04-27T13:21:40Z</time>
      </trkpt>
      <trkpt lat="44.12628" lon="5.42648">
        <ele>826.029</ele>
        <time>2019-04-27T13:21:51Z</time>
      </trkpt>
      <trkpt lat="44.12568" lon="5.42628">
        <ele>827.723</ele>
        <time>2019-04-27T13:22:01Z</time>
      </trkpt>
      <trkpt lat="44.12511" lon="5.42565">
        <ele>828.844</ele>
        <time>2019-04-27T13:22:12Z</time>
      </trkpt>
      <trkpt lat="44.12459" lon="5.42508">
        <ele>829.924</ele>
        <time>2019-04-27T13:22:22Z</time>
      </trkpt>
      <trkpt lat="44.12396" lon="5.42438">
        <ele>828.767</ele>
        <time>2019-04-27T13:22:33Z</time>
      </trkpt>
      <trkpt lat="44.12352" lon="5.42357">
        <ele>824.191</ele>
        <time>2019-04-27T13:22:43Z</time>
      </trkpt>
      <trkpt lat="44.12307" lon="5.42292">
        <ele>821.157</ele>
        <time>2019-04-27T13:22:53Z</time>
      </trkpt>
      <trkpt lat="44.12245" lon="5.42301">
        <ele>818.424</ele>
        <time>2019-04-27T13:23:04Z</time>
      </trkpt>
      <trkpt lat="44.12188" lon="5.42318">
        <ele>817.369</ele>
        <time>2019-04-27T13:23:14Z</time>
      </trkpt>
      <trkpt lat="44.12141" lon="5.42328">
        <ele>816.461</ele>
        <time>2019-04-27T13:23:24Z</time>
      </trkpt>
      <trkpt lat="44.12087" lon="5.42336">
        <ele>814.538</ele>
        <time>2019-04-27T13:23:34Z</time>
      </trkpt>
      <trkpt lat="44.12024" lon="5.4231">
        <ele>814.588</ele>
        <time>2019-04-27T13:23:45Z</time>
      </trkpt>
      <trkpt lat="44.11968" lon="5.42291">
        <ele>813.319</ele>
        <time>2019-04-27T13:23:56Z</time>
      </trkpt>
      <trkpt lat="44.11921" lon="5.42238">
        <ele>815.806</ele>
        <time>2019-04-27T13:24:07Z</time>
      </trkpt>
      <trkpt lat="44.11872" lon="5.42196">
        <ele>817.215</ele>
        <time>2019-04-27T13:24:18Z</time>
      </trkpt>
      <trkpt lat="44.11823" lon="5.42155">
        <ele>816.434</ele>
        <time>2019-04-27T13:24:29Z</time>
      </trkpt>
      <trkpt lat="44.11771" lon="5.42116">
        <ele>816.236</ele>
        <time>2019-04-27T13:24:40Z</time>
      </trkpt>
      <trkpt lat="44.11719" lon="5.42073">
        <ele>815.418</ele>
        <time>2019-04-27T13:24:51Z</time>
      </trkpt>
      <trkpt lat="44.11681" lon="5.42018">
        <ele>815.466</ele>
        <time>2019-04-27T13:25:02Z</time>
      </trkpt>
      <trkpt lat="44.11641" lon="5.41978">
        <ele>814.722</ele>
        <time>2019-04-27T13:25:12Z</time>
      </trkpt>
      <trkpt lat="44.11601" lon="5.41919">
        <ele>816.683</ele>
        <time>2019-04-27T13:25:23Z</time>
      </trkpt>
      <trkpt lat="44.11565" lon="5.4186">
        <ele>817.337</ele>
        <time>2019-04-27T13:25:33Z</time>
      </trkpt>
      <trkpt lat="44.11514" lon="5.41807">
        <ele>817.287</ele>
        <time>2019-04-27T13:25:44Z</time>
      </trkpt>
      <trkpt lat="44.11465" lon="5.41756">
        <ele>816.167</ele>
        <time>2019-04-27T13:25:55Z</time>
      </trkpt>
      <trkpt lat="44.11415" lon="5.41709">
        <ele>814.595</ele>
        <time>2019-04-27T13:26:06Z</time>
      </trkpt>
      <trkpt lat="44.11363" lon="5.41665">
        <ele>813.715</ele>
        <time>2019-04-27T13:26:17Z</time>
      </trkpt>
      <trkpt lat="44.11309" lon="5.4163">
        <ele>813.451</ele>
        <time>2019-04-27T13:26:28Z</time>
      </trkpt>
      <trkpt lat="44.11254" lon="5.41597">
        <ele>813.261</ele>
        <time>2019-04-27T13:26:39Z</time>
      </trkpt>
      <trkpt lat="44.11204" lon="5.4157">
        <ele>812.643</ele>
        <time>2019-04-27T13:26:49Z</time>
      </trkpt>
      <trkpt lat="44.11147" lon="5.41546">
        <ele>811.377</ele>
        <time>2019-04-27T13:27:00Z</time>
      </trkpt>
      <trkpt lat="44.11084" lon="5.41526">
        <ele>810.724</ele>
        <time>2019-04-27T13:27:11Z</time>
      </trkpt>
      <trkpt lat="44.11018" lon="5.41512">
        <ele>810.332</ele>
        <time>2019-04-27T13:27:22Z</time>
      </trkpt>
      <trkpt lat="44.10957" lon="5.41482">
        <ele>810.026</ele>
        <time>2019-04-27T13:27:33Z</time>
      </trkpt>
      <trkpt lat="44.10901" lon="5.41461">
        <ele>809.116</ele>
        <time>2019-04-27T13:27:43Z</time>
      </trkpt>
      <trkpt lat="44.10844" lon="5.41452">
        <ele>807.678</ele>
        <time>2019-04-27T13:27:54Z</time>
      </trkpt>
      <trkpt lat="44.10787" lon="5.41444">
        <ele>806.14</ele>
        <time>2019-04-27T13:28:05Z</time>
      </trkpt>
      <trkpt lat="44.10737" lon="5.41415">
        <ele>807.953</ele>
        <time>2019-04-27T13:28:15Z</time>
      </trkpt>
      <trkpt lat="44.10692" lon="5.41378">
        <ele>810.168</ele>
        <time>2019-04-27T13:28:26Z</time>
      </trkpt>
      <trkpt lat="44.10641" lon="5.41346">
        <ele>810.903</ele>
        <time>2019-04-27T13:28:37Z</time>
      </trkpt>
      <trkpt lat="44.10593" lon="5.41324">
        <ele>809.495</ele>
        <time>2019-04-27T13:28:47Z</time>
      </trkpt>
      <trkpt lat="44.1054" lon="5.41295">
        <ele>808.75</ele>
        <time>2019-04-27T13:28:58Z</time>
      </trkpt>
      <trkpt lat="44.10486" lon="5.41279">
        <ele>808.181</ele>
        <time>2019-04-27T13:29:09Z</time>
      </trkpt>
      <trkpt lat="44.10439" lon="5.41268">
        <ele>806.814</ele>
        <time>2019-04-27T13:29:19Z</time>
      </trkpt>
      <trkpt lat="44.10389" lon="5.41246">
        <ele>806.868</ele>
        <time>2019-04-27T13:29:29Z</time>
      </trkpt>
      <trkpt lat="44.10335" lon="5.41231">
        <ele>807.779</ele>
        <time>2019-04-27T13:29:40Z</time>
      </trkpt>
      <trkpt lat="44.1028" lon="5.41214">
        <ele>806.839</ele>
        <time>2019-04-27T13:29:51Z</time>
      </trkpt>
      <trkpt lat="44.10227" lon="5.41193">
        <ele>806.537</ele>
        <time>2019-04-27T13:30:01Z</time>
      </trkpt>
      <trkpt lat="44.10168" lon="5.41159">
        <ele>806.256</ele>
        <time>2019-04-27T13:30:12Z</time>
      </trkpt>
      <trkpt lat="44.1011" lon="5.41122">
        <ele>808.255</ele>
        <time>2019-04-27T13:30:23Z</time>
      </trkpt>
      <trkpt lat="44.10055" lon="5.41084">
        <ele>809.926</ele>
        <time>2019-04-27T13:30:34Z</time>
      </trkpt>
      <trkpt lat="44.10003" lon="5.41063">
        <ele>809.822</ele>
        <time>2019-04-27T13:30:44Z</time>
      </trkpt>
      <trkpt lat="44.09954" lon="5.41034">
        <ele>809.279</ele>
        <time>2019-04-27T13:30:54Z</time>
      </trkpt>
      <trkpt lat="44.09897" lon="5.41006">
        <ele>807.936</ele>
        <time>2019-04-27T13:31:05Z</time>
      </trkpt>
      <trkpt lat="44.09841" lon="5.40974">
        <ele>807.641</ele>
        <time>2019-04-27T13:31:16Z</time>
      </trkpt>
      <trkpt lat="44.09785" lon="5.40935">
        <ele>807.776</ele>
        <time>2019-04-27T13:31:27Z</time>
      </trkpt>
      <trkpt lat="44.09725" lon="5.40904">
        <ele>808.277</ele>
        <time>2019-04-27T13:31:38Z</time>
      </trkpt>
      <trkpt lat="44.09673" lon="5.40872">
        <ele>807.81</ele>
        <time>2019-04-27T13:31:48Z</time>
      </trkpt>
      <trkpt lat="44.09614" lon="5.40861">
        <ele>807.364</ele>
        <time>2019-04-27T13:31:59Z</time>
      </trkpt>
      <trkpt lat="44.09559" lon="5.40848">
        <ele>806.603</ele>
        <time>2019-04-27T13:32:09Z</time>
      </trkpt>
      <trkpt lat="44.09502" lon="5.40834">
        <ele>806.295</ele>
        <time>2019-04-27T13:32:20Z</time>
      </trkpt>
      <trkpt lat="44.09437" lon="5.40832">
        <ele>805.111</ele>
        <time>2019-04-27T13:32:31Z</time>
      </trkpt>
      <trkpt lat="44.09373" lon="5.40822">
        <ele>804.991</ele>
        <time>2019-04-27T13:32:42Z</time>
      </trkpt>
      <trkpt lat="44.09333" lon="5.40823">
        <ele>805.133</ele>
        <time>2019-04-27T13:32:52Z</time>
      </trkpt>
      <trkpt lat="44.09301" lon="5.40827">
        <ele>805.295</ele>
        <time>2019-04-27T13:33:03Z</time>
      </trkpt>
      <trkpt lat="44.09281" lon="5.4083">
        <ele>805.722</ele>
        <time>2019-04-27T13:33:14Z</time>
      </trkpt>
      <trkpt lat="44.09281" lon="5.4083">
        <ele>805.873</ele>
        <time>2019-04-27T13:33:25Z</time>
      </trkpt>
      <trkpt lat="44.09281" lon="5.4083">
        <ele>806.012</ele>
        <time>2019-04-27T13:33:36Z</time>
      </trkpt>
      <trkpt lat="44.09281" lon="5.4083">
        <ele>806.167</ele>
        <time>2019-04-27T13:33:46Z</time>
      </trkpt>
      <trkpt lat="44.09273" lon="5.40825">
        <ele>806.391</ele>
        <time>2019-04-27T13:33:57Z</time>
      </trkpt>
      <trkpt lat="44.09273" lon="5.40825">
        <ele>806.658</ele>
        <time>2019-04-27T13:34:08Z</time>
      </trkpt>
      <trkpt lat="44.09273" lon="5.40825">
        <ele>806.985</ele>
        <time>2019-04-27T13:34:19Z</time>
      </trkpt>
      <trkpt lat="44.09268" lon="5.40814">
        <ele>807.269</ele>
        <time>2019-04-27T13:34:29Z</time>
      </trkpt>
      <trkpt lat="44.09268" lon="5.40814">
        <ele>807.52</ele>
        <time>2019-04-27T13:34:40Z</time>
      </trkpt>
      <trkpt lat="44.09263" lon="5.40804">
        <ele>807.794</ele>
        <time>2019-04-27T13:34:51Z</time>
      </trkpt>
      <trkpt lat="44.09263" lon="5.40804">
        <ele>808.072</ele>
        <time>2019-04-27T13:35:01Z</time>
      </trkpt>
      <trkpt lat="44.09263" lon="5.40804">
        <ele>808.414</ele>
        <time>2019-04-27T13:35:12Z</time>
      </trkpt>
      <trkpt lat="44.09263" lon="5.40804">
        <ele>808.734</ele>
        <time>2019-04-27T13:35:22Z</time>
      </trkpt>
      <trkpt lat="44.09263" lon="5.40804">
        <ele>809.12</ele>
        <time>2019-04-27T13:35:33Z</time>
      </trkpt>
      <trkpt lat="44.09263" lon="5.40804">
        <ele>809.485</ele>
        <time>2019-04-27T13:35:43Z</time>
      </trkpt>
      <trkpt lat="44.09263" lon="5.40804">
        <ele>809.91</ele>
        <time>2019-04-27T13:35:54Z</time>
      </trkpt>
      <trkpt lat="44.09263" lon="5.40804">
        <ele>810.271</ele>
        <time>2019-04-27T13:36:05Z</time>
      </trkpt>
      <trkpt lat="44.09263" lon="5.40804">
        <ele>811.376</ele>
        <time>2019-04-27T13:36:16Z</time>
      </trkpt>
      <trkpt lat="44.09254" lon="5.40814">
        <ele>814.82</ele>
        <time>2019-04-27T13:36:27Z</time>
      </trkpt>
      <trkpt lat="44.09227" lon="5.40826">
        <ele>817.125</ele>
        <time>2019-04-27T13:36:38Z</time>
      </trkpt>
      <trkpt lat="44.09219" lon="5.4084">
        <ele>818.777</ele>
        <time>2019-04-27T13:36:49Z</time>
      </trkpt>
      <trkpt lat="44.09218" lon="5.4087">
        <ele>818.859</ele>
        <time>2019-04-27T13:37:00Z</time>
      </trkpt>
      <trkpt lat="44.09214" lon="5.40903">
        <ele>817.962</ele>
        <time>2019-04-27T13:37:11Z</time>
      </trkpt>
      <trkpt lat="44.092" lon="5.40922">
        <ele>817.548</ele>
        <time>2019-04-27T13:37:21Z</time>
      </trkpt>
      <trkpt lat="44.09185" lon="5.4093">
        <ele>818.798</ele>
        <time>2019-04-27T13:37:32Z</time>
      </trkpt>
      <trkpt lat="44.09199" lon="5.40966">
        <ele>819.895</ele>
        <time>2019-04-27T13:37:42Z</time>
      </trkpt>
      <trkpt lat="44.0922" lon="5.41001">
        <ele>820.372</ele>
        <time>2019-04-27T13:37:53Z</time>
      </trkpt>
      <trkpt lat="44.09239" lon="5.41033">
        <ele>820.891</ele>
        <time>2019-04-27T13:38:04Z</time>
      </trkpt>
      <trkpt lat="44.09253" lon="5.41061">
        <ele>821.195</ele>
        <time>2019-04-27T13:38:14Z</time>
      </trkpt>
      <trkpt lat="44.0927" lon="5.41086">
        <ele>820.994</ele>
        <time>2019-04-27T13:38:24Z</time>
      </trkpt>
      <trkpt lat="44.09284" lon="5.4111">
        <ele>821.07</ele>
        <time>2019-04-27T13:38:34Z</time>
      </trkpt>
      <trkpt lat="44.09296" lon="5.41137">
        <ele>822.243</ele>
        <time>2019-04-27T13:38:45Z</time>
      </trkpt>
      <trkpt lat="44.0931" lon="5.41161">
        <ele>823.123</ele>
        <time>2019-04-27T13:38:56Z</time>
      </trkpt>
      <trkpt lat="44.09325" lon="5.41184">
        <ele>823.833</ele>
        <time>2019-04-27T13:39:06Z</time>
      </trkpt>
      <trkpt lat="44.09342" lon="5.41196">
        <ele>824.936</ele>
        <time>2019-04-27T13:39:17Z</time>
      </trkpt>
      <trkpt lat="44.09363" lon="5.4119">
        <ele>825.349</ele>
        <time>2019-04-27T13:39:28Z</time>
      </trkpt>
      <trkpt lat="44.09377" lon="5.41171">
        <ele>825.676</ele>
        <time>2019-04-27T13:39:39Z</time>
      </trkpt>
      <trkpt lat="44.09388" lon="5.41146">
        <ele>826.088</ele>
        <time>2019-04-27T13:39:50Z</time>
      </trkpt>
      <trkpt lat="44.09401" lon="5.41122">
        <ele>826.73</ele>
        <time>2019-04-27T13:40:01Z</time>
      </trkpt>
      <trkpt lat="44.0941" lon="5.41096">
        <ele>827.197</ele>
        <time>2019-04-27T13:40:12Z</time>
      </trkpt>
      <trkpt lat="44.09417" lon="5.41073">
        <ele>828.152</ele>
        <time>2019-04-27T13:40:22Z</time>
      </trkpt>
      <trkpt lat="44.09434" lon="5.41052">
        <ele>829.564</ele>
        <time>2019-04-27T13:40:33Z</time>
      </trkpt>
      <trkpt lat="44.09454" lon="5.41047">
        <ele>830.503</ele>
        <time>2019-04-27T13:40:44Z</time>
      </trkpt>
      <trkpt lat="44.09474" lon="5.41049">
        <ele>831.13</ele>
        <time>2019-04-27T13:40:55Z</time>
      </trkpt>
      <trkpt lat="44.09498" lon="5.41058">
        <ele>831.943</ele>
        <time>2019-04-27T13:41:06Z</time>
      </trkpt>
      <trkpt lat="44.09513" lon="5.41075">
        <ele>832.947</ele>
        <time>2019-04-27T13:41:16Z</time>
      </trkpt>
      <trkpt lat="44.09523" lon="5.41101">
        <ele>833.962</ele>
        <time>2019-04-27T13:41:27Z</time>
      </trkpt>
      <trkpt lat="44.09529" lon="5.4113">
        <ele>835.569</ele>
        <time>2019-04-27T13:41:38Z</time>
      </trkpt>
      <trkpt lat="44.09535" lon="5.41168">
        <ele>836.911</ele>
        <time>2019-04-27T13:41:49Z</time>
      </trkpt>
      <trkpt lat="44.09551" lon="5.41207">
        <ele>837.662</ele>
        <time>2019-04-27T13:41:59Z</time>
      </trkpt>
      <trkpt lat="44.09577" lon="5.41253">
        <ele>838.05</ele>
        <time>2019-04-27T13:42:10Z</time>
      </trkpt>
      <trkpt lat="44.09602" lon="5.41289">
        <ele>839.281</ele>
        <time>2019-04-27T13:42:20Z</time>
      </trkpt>
      <trkpt lat="44.09623" lon="5.41336">
        <ele>840.754</ele>
        <time>2019-04-27T13:42:31Z</time>
      </trkpt>
      <trkpt lat="44.09654" lon="5.41334">
        <ele>841.612</ele>
        <time>2019-04-27T13:42:42Z</time>
      </trkpt>
      <trkpt lat="44.0969" lon="5.4134">
        <ele>842.888</ele>
        <time>2019-04-27T13:42:53Z</time>
      </trkpt>
      <trkpt lat="44.09709" lon="5.41353">
        <ele>843.51</ele>
        <time>2019-04-27T13:43:04Z</time>
      </trkpt>
      <trkpt lat="44.09712" lon="5.41348">
        <ele>843.828</ele>
        <time>2019-04-27T13:43:15Z</time>
      </trkpt>
      <trkpt lat="44.09712" lon="5.41348">
        <ele>843.883</ele>
        <time>2019-04-27T13:43:25Z</time>
      </trkpt>
      <trkpt lat="44.09712" lon="5.41348">
        <ele>843.965</ele>
        <time>2019-04-27T13:43:36Z</time>
      </trkpt>
      <trkpt lat="44.09712" lon="5.41347">
        <ele>844.036</ele>
        <time>2019-04-27T13:43:47Z</time>
      </trkpt>
      <trkpt lat="44.09711" lon="5.41344">
        <ele>844.086</ele>
        <time>2019-04-27T13:43:58Z</time>
      </trkpt>
      <trkpt lat="44.09711" lon="5.41344">
        <ele>844.148</ele>
        <time>2019-04-27T13:44:08Z</time>
      </trkpt>
      <trkpt lat="44.09711" lon="5.41344">
        <ele>844.222</ele>
        <time>2019-04-27T13:44:19Z</time>
      </trkpt>
      <trkpt lat="44.09712" lon="5.41344">
        <ele>844.296</ele>
        <time>2019-04-27T13:44:29Z</time>
      </trkpt>
      <trkpt lat="44.09712" lon="5.41344">
        <ele>844.382</ele>
        <time>2019-04-27T13:44:40Z</time>
      </trkpt>
      <trkpt lat="44.09712" lon="5.41344">
        <ele>844.452</ele>
        <time>2019-04-27T13:44:50Z</time>
      </trkpt>
      <trkpt lat="44.0971" lon="5.41348">
        <ele>844.752</ele>
        <time>2019-04-27T13:45:01Z</time>
      </trkpt>
      <trkpt lat="44.09693" lon="5.4134">
        <ele>844.942</ele>
        <time>2019-04-27T13:45:12Z</time>
      </trkpt>
      <trkpt lat="44.09662" lon="5.41318">
        <ele>844.921</ele>
        <time>2019-04-27T13:45:22Z</time>
      </trkpt>
      <trkpt lat="44.09623" lon="5.41326">
        <ele>843.372</ele>
        <time>2019-04-27T13:45:32Z</time>
      </trkpt>
      <trkpt lat="44.09632" lon="5.41362">
        <ele>843.286</ele>
        <time>2019-04-27T13:45:43Z</time>
      </trkpt>
      <trkpt lat="44.09662" lon="5.4139">
        <ele>843.343</ele>
        <time>2019-04-27T13:45:53Z</time>
      </trkpt>
      <trkpt lat="44.09693" lon="5.41434">
        <ele>843.481</ele>
        <time>2019-04-27T13:46:04Z</time>
      </trkpt>
      <trkpt lat="44.09724" lon="5.41479">
        <ele>843.877</ele>
        <time>2019-04-27T13:46:15Z</time>
      </trkpt>
      <trkpt lat="44.09757" lon="5.41526">
        <ele>843.947</ele>
        <time>2019-04-27T13:46:26Z</time>
      </trkpt>
      <trkpt lat="44.09793" lon="5.41578">
        <ele>842.476</ele>
        <time>2019-04-27T13:46:37Z</time>
      </trkpt>
      <trkpt lat="44.09824" lon="5.41623">
        <ele>842.191</ele>
        <time>2019-04-27T13:46:47Z</time>
      </trkpt>
      <trkpt lat="44.0986" lon="5.41671">
        <ele>846.456</ele>
        <time>2019-04-27T13:46:58Z</time>
      </trkpt>
      <trkpt lat="44.09893" lon="5.41724">
        <ele>847.146</ele>
        <time>2019-04-27T13:47:09Z</time>
      </trkpt>
      <trkpt lat="44.09937" lon="5.41785">
        <ele>845.914</ele>
        <time>2019-04-27T13:47:20Z</time>
      </trkpt>
      <trkpt lat="44.09981" lon="5.41849">
        <ele>844.621</ele>
        <time>2019-04-27T13:47:31Z</time>
      </trkpt>
      <trkpt lat="44.10021" lon="5.41908">
        <ele>843.253</ele>
        <time>2019-04-27T13:47:41Z</time>
      </trkpt>
      <trkpt lat="44.10067" lon="5.41976">
        <ele>841.712</ele>
        <time>2019-04-27T13:47:52Z</time>
      </trkpt>
      <trkpt lat="44.10107" lon="5.42036">
        <ele>841.409</ele>
        <time>2019-04-27T13:48:02Z</time>
      </trkpt>
      <trkpt lat="44.1013" lon="5.42093">
        <ele>841.986</ele>
        <time>2019-04-27T13:48:13Z</time>
      </trkpt>
      <trkpt lat="44.10145" lon="5.42146">
        <ele>842.352</ele>
        <time>2019-04-27T13:48:24Z</time>
      </trkpt>
      <trkpt lat="44.10154" lon="5.42181">
        <ele>842.818</ele>
        <time>2019-04-27T13:48:34Z</time>
      </trkpt>
      <trkpt lat="44.10159" lon="5.42221">
        <ele>843.887</ele>
        <time>2019-04-27T13:48:45Z</time>
      </trkpt>
      <trkpt lat="44.10175" lon="5.42259">
        <ele>845.063</ele>
        <time>2019-04-27T13:48:56Z</time>
      </trkpt>
      <trkpt lat="44.102" lon="5.42307">
        <ele>847.415</ele>
        <time>2019-04-27T13:49:07Z</time>
      </trkpt>
      <trkpt lat="44.10221" lon="5.42349">
        <ele>848.702</ele>
        <time>2019-04-27T13:49:17Z</time>
      </trkpt>
      <trkpt lat="44.10243" lon="5.42397">
        <ele>850.343</ele>
        <time>2019-04-27T13:49:28Z</time>
      </trkpt>
      <trkpt lat="44.10273" lon="5.42447">
        <ele>853.763</ele>
        <time>2019-04-27T13:49:39Z</time>
      </trkpt>
      <trkpt lat="44.1028" lon="5.42486">
        <ele>854.877</ele>
        <time>2019-04-27T13:49:50Z</time>
      </trkpt>
      <trkpt lat="44.10261" lon="5.4249">
        <ele>855.241</ele>
        <time>2019-04-27T13:50:01Z</time>
      </trkpt>
      <trkpt lat="44.10261" lon="5.4249">
        <ele>855.229</ele>
        <time>2019-04-27T13:50:11Z</time>
      </trkpt>
      <trkpt lat="44.10261" lon="5.4249">
        <ele>855.209</ele>
        <time>2019-04-27T13:50:22Z</time>
      </trkpt>
      <trkpt lat="44.10261" lon="5.4249">
        <ele>855.202</ele>
        <time>2019-04-27T13:50:32Z</time>
      </trkpt>
      <trkpt lat="44.10261" lon="5.4249">
        <ele>855.204</ele>
        <time>2019-04-27T13:50:43Z</time>
      </trkpt>
      <trkpt lat="44.10261" lon="5.4249">
        <ele>855.22</ele>
        <time>2019-04-27T13:50:53Z</time>
      </trkpt>
      <trkpt lat="44.10261" lon="5.4249">
        <ele>855.258</ele>
        <time>2019-04-27T13:51:04Z</time>
      </trkpt>
      <trkpt lat="44.10261" lon="5.4249">
        <ele>855.317</ele>
        <time>2019-04-27T13:51:15Z</time>
      </trkpt>
      <trkpt lat="44.10261" lon="5.4249">
        <ele>855.377</ele>
        <time>2019-04-27T13:51:25Z</time>
      </trkpt>
      <trkpt lat="44.10261" lon="5.4249">
        <ele>855.42</ele>
        <time>2019-04-27T13:51:36Z</time>
      </trkpt>
      <trkpt lat="44.10261" lon="5.4249">
        <ele>855.458</ele>
        <time>2019-04-27T13:51:47Z</time>
      </trkpt>
      <trkpt lat="44.10261" lon="5.4249">
        <ele>855.496</ele>
        <time>2019-04-27T13:51:57Z</time>
      </trkpt>
      <trkpt lat="44.10261" lon="5.4249">
        <ele>855.543</ele>
        <time>2019-04-27T13:52:08Z</time>
      </trkpt>
      <trkpt lat="44.10261" lon="5.4249">
        <ele>855.579</ele>
        <time>2019-04-27T13:52:18Z</time>
      </trkpt>
      <trkpt lat="44.10261" lon="5.4249">
        <ele>855.607</ele>
        <time>2019-04-27T13:52:29Z</time>
      </trkpt>
      <trkpt lat="44.10261" lon="5.4249">
        <ele>855.622</ele>
        <time>2019-04-27T13:52:40Z</time>
      </trkpt>
      <trkpt lat="44.10261" lon="5.4249">
        <ele>855.627</ele>
        <time>2019-04-27T13:52:51Z</time>
      </trkpt>
      <trkpt lat="44.10266" lon="5.42495">
        <ele>855.612</ele>
        <time>2019-04-27T13:53:02Z</time>
      </trkpt>
      <trkpt lat="44.10266" lon="5.42495">
        <ele>855.59</ele>
        <time>2019-04-27T13:53:12Z</time>
      </trkpt>
      <trkpt lat="44.10266" lon="5.42495">
        <ele>855.577</ele>
        <time>2019-04-27T13:53:23Z</time>
      </trkpt>
      <trkpt lat="44.10267" lon="5.42495">
        <ele>855.574</ele>
        <time>2019-04-27T13:53:33Z</time>
      </trkpt>
      <trkpt lat="44.10267" lon="5.42495">
        <ele>855.581</ele>
        <time>2019-04-27T13:53:44Z</time>
      </trkpt>
      <trkpt lat="44.10267" lon="5.42495">
        <ele>855.593</ele>
        <time>2019-04-27T13:53:54Z</time>
      </trkpt>
      <trkpt lat="44.10267" lon="5.42495">
        <ele>855.621</ele>
        <time>2019-04-27T13:54:05Z</time>
      </trkpt>
      <trkpt lat="44.10267" lon="5.42495">
        <ele>855.678</ele>
        <time>2019-04-27T13:54:16Z</time>
      </trkpt>
      <trkpt lat="44.10265" lon="5.42495">
        <ele>856.006</ele>
        <time>2019-04-27T13:54:26Z</time>
      </trkpt>
      <trkpt lat="44.10264" lon="5.42491">
        <ele>856.328</ele>
        <time>2019-04-27T13:54:37Z</time>
      </trkpt>
      <trkpt lat="44.10264" lon="5.42491">
        <ele>856.349</ele>
        <time>2019-04-27T13:54:48Z</time>
      </trkpt>
      <trkpt lat="44.10265" lon="5.42484">
        <ele>856.335</ele>
        <time>2019-04-27T13:54:59Z</time>
      </trkpt>
      <trkpt lat="44.10261" lon="5.42456">
        <ele>855.65</ele>
        <time>2019-04-27T13:55:10Z</time>
      </trkpt>
      <trkpt lat="44.10238" lon="5.4242">
        <ele>854.266</ele>
        <time>2019-04-27T13:55:21Z</time>
      </trkpt>
      <trkpt lat="44.102" lon="5.42395">
        <ele>847.899</ele>
        <time>2019-04-27T13:55:31Z</time>
      </trkpt>
      <trkpt lat="44.10169" lon="5.4237">
        <ele>846.112</ele>
        <time>2019-04-27T13:55:42Z</time>
      </trkpt>
      <trkpt lat="44.10152" lon="5.42357">
        <ele>844.45</ele>
        <time>2019-04-27T13:55:52Z</time>
      </trkpt>
      <trkpt lat="44.10132" lon="5.42363">
        <ele>843.105</ele>
        <time>2019-04-27T13:56:03Z</time>
      </trkpt>
      <trkpt lat="44.10126" lon="5.42365">
        <ele>843.006</ele>
        <time>2019-04-27T13:56:14Z</time>
      </trkpt>
      <trkpt lat="44.10125" lon="5.42366">
        <ele>842.738</ele>
        <time>2019-04-27T13:56:25Z</time>
      </trkpt>
      <trkpt lat="44.10114" lon="5.42361">
        <ele>841.894</ele>
        <time>2019-04-27T13:56:35Z</time>
      </trkpt>
      <trkpt lat="44.101" lon="5.42349">
        <ele>841.139</ele>
        <time>2019-04-27T13:56:45Z</time>
      </trkpt>
      <trkpt lat="44.10085" lon="5.42336">
        <ele>840.427</ele>
        <time>2019-04-27T13:56:56Z</time>
      </trkpt>
      <trkpt lat="44.10081" lon="5.42331">
        <ele>840.167</ele>
        <time>2019-04-27T13:57:07Z</time>
      </trkpt>
      <trkpt lat="44.1009" lon="5.42335">
        <ele>840.358</ele>
        <time>2019-04-27T13:57:17Z</time>
      </trkpt>
      <trkpt lat="44.10101" lon="5.42345">
        <ele>840.687</ele>
        <time>2019-04-27T13:57:27Z</time>
      </trkpt>
      <trkpt lat="44.10112" lon="5.42354">
        <ele>841.363</ele>
        <time>2019-04-27T13:57:37Z</time>
      </trkpt>
      <trkpt lat="44.10113" lon="5.42352">
        <ele>841.433</ele>
        <time>2019-04-27T13:57:48Z</time>
      </trkpt>
      <trkpt lat="44.10113" lon="5.42352">
        <ele>841.515</ele>
        <time>2019-04-27T13:57:58Z</time>
      </trkpt>
      <trkpt lat="44.10113" lon="5.42351">
        <ele>841.545</ele>
        <time>2019-04-27T13:58:08Z</time>
      </trkpt>
      <trkpt lat="44.10118" lon="5.42358">
        <ele>841.288</ele>
        <time>2019-04-27T13:58:19Z</time>
      </trkpt>
      <trkpt lat="44.10124" lon="5.42374">
        <ele>841.307</ele>
        <time>2019-04-27T13:58:30Z</time>
      </trkpt>
      <trkpt lat="44.10125" lon="5.42375">
        <ele>841.35</ele>
        <time>2019-04-27T13:58:41Z</time>
      </trkpt>
      <trkpt lat="44.10125" lon="5.42375">
        <ele>841.416</ele>
        <time>2019-04-27T13:58:51Z</time>
      </trkpt>
      <trkpt lat="44.10125" lon="5.42375">
        <ele>841.683</ele>
        <time>2019-04-27T13:59:01Z</time>
      </trkpt>
      <trkpt lat="44.10119" lon="5.42368">
        <ele>842.018</ele>
        <time>2019-04-27T13:59:12Z</time>
      </trkpt>
      <trkpt lat="44.10118" lon="5.42366">
        <ele>842.166</ele>
        <time>2019-04-27T13:59:23Z</time>
      </trkpt>
      <trkpt lat="44.10118" lon="5.42366">
        <ele>842.316</ele>
        <time>2019-04-27T13:59:34Z</time>
      </trkpt>
      <trkpt lat="44.10118" lon="5.42366">
        <ele>842.516</ele>
        <time>2019-04-27T13:59:44Z</time>
      </trkpt>
      <trkpt lat="44.10118" lon="5.42366">
        <ele>842.719</ele>
        <time>2019-04-27T13:59:55Z</time>
      </trkpt>
      <trkpt lat="44.10118" lon="5.42365">
        <ele>842.88</ele>
        <time>2019-04-27T14:00:05Z</time>
      </trkpt>
      <trkpt lat="44.10118" lon="5.42365">
        <ele>843.011</ele>
        <time>2019-04-27T14:00:16Z</time>
      </trkpt>
      <trkpt lat="44.10118" lon="5.42365">
        <ele>843.108</ele>
        <time>2019-04-27T14:00:26Z</time>
      </trkpt>
      <trkpt lat="44.10118" lon="5.42365">
        <ele>843.23</ele>
        <time>2019-04-27T14:00:37Z</time>
      </trkpt>
      <trkpt lat="44.10118" lon="5.42365">
        <ele>843.349</ele>
        <time>2019-04-27T14:00:47Z</time>
      </trkpt>
      <trkpt lat="44.10117" lon="5.42365">
        <ele>843.526</ele>
        <time>2019-04-27T14:00:58Z</time>
      </trkpt>
      <trkpt lat="44.10118" lon="5.42365">
        <ele>843.758</ele>
        <time>2019-04-27T14:01:08Z</time>
      </trkpt>
      <trkpt lat="44.10117" lon="5.42365">
        <ele>844.082</ele>
        <time>2019-04-27T14:01:19Z</time>
      </trkpt>
      <trkpt lat="44.10117" lon="5.42365">
        <ele>844.453</ele>
        <time>2019-04-27T14:01:30Z</time>
      </trkpt>
      <trkpt lat="44.10117" lon="5.42365">
        <ele>844.77</ele>
        <time>2019-04-27T14:01:40Z</time>
      </trkpt>
      <trkpt lat="44.10117" lon="5.42365">
        <ele>845.109</ele>
        <time>2019-04-27T14:01:51Z</time>
      </trkpt>
      <trkpt lat="44.10116" lon="5.42365">
        <ele>845.427</ele>
        <time>2019-04-27T14:02:01Z</time>
      </trkpt>
      <trkpt lat="44.10117" lon="5.42364">
        <ele>845.855</ele>
        <time>2019-04-27T14:02:12Z</time>
      </trkpt>
      <trkpt lat="44.10116" lon="5.42364">
        <ele>846.35</ele>
        <time>2019-04-27T14:02:23Z</time>
      </trkpt>
      <trkpt lat="44.10116" lon="5.42364">
        <ele>846.861</ele>
        <time>2019-04-27T14:02:33Z</time>
      </trkpt>
      <trkpt lat="44.10115" lon="5.42363">
        <ele>847.452</ele>
        <time>2019-04-27T14:02:44Z</time>
      </trkpt>
      <trkpt lat="44.10115" lon="5.42363">
        <ele>848.023</ele>
        <time>2019-04-27T14:02:55Z</time>
      </trkpt>
      <trkpt lat="44.10115" lon="5.42363">
        <ele>848.594</ele>
        <time>2019-04-27T14:03:06Z</time>
      </trkpt>
      <trkpt lat="44.10116" lon="5.42363">
        <ele>849.148</ele>
        <time>2019-04-27T14:03:17Z</time>
      </trkpt>
      <trkpt lat="44.10116" lon="5.42362">
        <ele>849.648</ele>
        <time>2019-04-27T14:03:28Z</time>
      </trkpt>
      <trkpt lat="44.10116" lon="5.42362">
        <ele>850.062</ele>
        <time>2019-04-27T14:03:39Z</time>
      </trkpt>
      <trkpt lat="44.10116" lon="5.42362">
        <ele>850.361</ele>
        <time>2019-04-27T14:03:49Z</time>
      </trkpt>
      <trkpt lat="44.10116" lon="5.42362">
        <ele>850.598</ele>
        <time>2019-04-27T14:03:59Z</time>
      </trkpt>
      <trkpt lat="44.10116" lon="5.42362">
        <ele>850.818</ele>
        <time>2019-04-27T14:04:10Z</time>
      </trkpt>
      <trkpt lat="44.10117" lon="5.42362">
        <ele>851.01</ele>
        <time>2019-04-27T14:04:20Z</time>
      </trkpt>
      <trkpt lat="44.10117" lon="5.42362">
        <ele>851.285</ele>
        <time>2019-04-27T14:04:31Z</time>
      </trkpt>
      <trkpt lat="44.10116" lon="5.42362">
        <ele>851.5</ele>
        <time>2019-04-27T14:04:42Z</time>
      </trkpt>
      <trkpt lat="44.10113" lon="5.4237">
        <ele>853.39</ele>
        <time>2019-04-27T14:04:53Z</time>
      </trkpt>
    </trkseg>
  </trk>
</gpx>